<?xml version="1.0" encoding="UTF-8" standalone="no" ?>
<gpx xmlns="http://www.topografix.com/GPX/1/1" xmlns:xsi="http://www.w3.org/2001/XMLSchema-instance" xsi:schemaLocation="http://www.topografix.com/GPX/1/1 http://www.topografix.com/GPX/1/1/gpx.xsd" version="1.1" creator="VisuGPX - https://www.visugpx.com">
  <metadata>
    <name>Les Zigouigouis de Yves</name>
    <desc><![CDATA[Les Zigouigouis de Yves, depuis le chemin de Chalon, le Gué sur l\'Yzeron]]></desc>
  </metadata>
  <trk>
    <name><![CDATA[25-08-2012 Zigouigouis]]></name>
    <trkseg>
      <trkpt lat="45.74252" lon="4.76393">
        <ele>202.49</ele>
        <time>2012-08-25T06:51:09Z</time>
      </trkpt>
      <trkpt lat="45.74246" lon="4.76378">
        <ele>202.49</ele>
        <time>2012-08-25T06:51:19Z</time>
      </trkpt>
      <trkpt lat="45.74248" lon="4.76376">
        <ele>202.01</ele>
        <time>2012-08-25T06:51:21Z</time>
      </trkpt>
      <trkpt lat="45.74252" lon="4.76377">
        <ele>202.49</ele>
        <time>2012-08-25T06:51:23Z</time>
      </trkpt>
      <trkpt lat="45.74258" lon="4.76379">
        <ele>202.98</ele>
        <time>2012-08-25T06:51:27Z</time>
      </trkpt>
      <trkpt lat="45.7426" lon="4.76378">
        <ele>202.49</ele>
        <time>2012-08-25T06:51:28Z</time>
      </trkpt>
      <trkpt lat="45.7426" lon="4.76376">
        <ele>202.98</ele>
        <time>2012-08-25T06:51:29Z</time>
      </trkpt>
      <trkpt lat="45.74261" lon="4.76368">
        <ele>202.49</ele>
        <time>2012-08-25T06:51:32Z</time>
      </trkpt>
      <trkpt lat="45.74262" lon="4.76366">
        <ele>202.49</ele>
        <time>2012-08-25T06:51:33Z</time>
      </trkpt>
      <trkpt lat="45.74263" lon="4.76364">
        <ele>202.01</ele>
        <time>2012-08-25T06:51:34Z</time>
      </trkpt>
      <trkpt lat="45.74265" lon="4.76362">
        <ele>202.49</ele>
        <time>2012-08-25T06:51:35Z</time>
      </trkpt>
      <trkpt lat="45.74267" lon="4.76361">
        <ele>202.49</ele>
        <time>2012-08-25T06:51:36Z</time>
      </trkpt>
      <trkpt lat="45.74269" lon="4.7636">
        <ele>202.49</ele>
        <time>2012-08-25T06:51:37Z</time>
      </trkpt>
      <trkpt lat="45.74295" lon="4.76341">
        <ele>202.49</ele>
        <time>2012-08-25T06:51:49Z</time>
      </trkpt>
      <trkpt lat="45.74324" lon="4.76317">
        <ele>203.46</ele>
        <time>2012-08-25T06:52:02Z</time>
      </trkpt>
      <trkpt lat="45.7436" lon="4.76277">
        <ele>202.98</ele>
        <time>2012-08-25T06:52:16Z</time>
      </trkpt>
      <trkpt lat="45.74385" lon="4.76247">
        <ele>203.46</ele>
        <time>2012-08-25T06:52:28Z</time>
      </trkpt>
      <trkpt lat="45.74386" lon="4.76243">
        <ele>203.46</ele>
        <time>2012-08-25T06:52:29Z</time>
      </trkpt>
      <trkpt lat="45.74385" lon="4.76224">
        <ele>203.46</ele>
        <time>2012-08-25T06:52:35Z</time>
      </trkpt>
      <trkpt lat="45.74385" lon="4.76221">
        <ele>203.94</ele>
        <time>2012-08-25T06:52:36Z</time>
      </trkpt>
      <trkpt lat="45.74385" lon="4.76209">
        <ele>203.94</ele>
        <time>2012-08-25T06:52:42Z</time>
      </trkpt>
      <trkpt lat="45.74386" lon="4.76171">
        <ele>202.49</ele>
        <time>2012-08-25T06:52:54Z</time>
      </trkpt>
      <trkpt lat="45.74383" lon="4.76163">
        <ele>201.53</ele>
        <time>2012-08-25T06:52:57Z</time>
      </trkpt>
      <trkpt lat="45.74383" lon="4.76159">
        <ele>202.01</ele>
        <time>2012-08-25T06:52:58Z</time>
      </trkpt>
      <trkpt lat="45.74382" lon="4.76155">
        <ele>202.01</ele>
        <time>2012-08-25T06:52:59Z</time>
      </trkpt>
      <trkpt lat="45.74381" lon="4.76151">
        <ele>202.01</ele>
        <time>2012-08-25T06:53:00Z</time>
      </trkpt>
      <trkpt lat="45.74375" lon="4.76129">
        <ele>201.53</ele>
        <time>2012-08-25T06:53:10Z</time>
      </trkpt>
      <trkpt lat="45.7437" lon="4.76117">
        <ele>202.01</ele>
        <time>2012-08-25T06:53:21Z</time>
      </trkpt>
      <trkpt lat="45.74366" lon="4.76096">
        <ele>202.49</ele>
        <time>2012-08-25T06:53:35Z</time>
      </trkpt>
      <trkpt lat="45.74367" lon="4.76092">
        <ele>202.98</ele>
        <time>2012-08-25T06:53:39Z</time>
      </trkpt>
      <trkpt lat="45.74368" lon="4.7609">
        <ele>202.49</ele>
        <time>2012-08-25T06:53:40Z</time>
      </trkpt>
      <trkpt lat="45.74368" lon="4.76088">
        <ele>202.01</ele>
        <time>2012-08-25T06:53:41Z</time>
      </trkpt>
      <trkpt lat="45.74368" lon="4.76085">
        <ele>202.49</ele>
        <time>2012-08-25T06:53:42Z</time>
      </trkpt>
      <trkpt lat="45.74368" lon="4.76082">
        <ele>202.49</ele>
        <time>2012-08-25T06:53:43Z</time>
      </trkpt>
      <trkpt lat="45.74365" lon="4.76073">
        <ele>203.46</ele>
        <time>2012-08-25T06:53:49Z</time>
      </trkpt>
      <trkpt lat="45.74361" lon="4.76065">
        <ele>203.94</ele>
        <time>2012-08-25T06:53:57Z</time>
      </trkpt>
      <trkpt lat="45.74362" lon="4.76033">
        <ele>203.94</ele>
        <time>2012-08-25T06:54:08Z</time>
      </trkpt>
      <trkpt lat="45.74363" lon="4.76025">
        <ele>203.94</ele>
        <time>2012-08-25T06:54:12Z</time>
      </trkpt>
      <trkpt lat="45.74365" lon="4.76023">
        <ele>203.46</ele>
        <time>2012-08-25T06:54:14Z</time>
      </trkpt>
      <trkpt lat="45.74373" lon="4.76003">
        <ele>203.46</ele>
        <time>2012-08-25T06:54:23Z</time>
      </trkpt>
      <trkpt lat="45.74375" lon="4.75976">
        <ele>203.94</ele>
        <time>2012-08-25T06:54:36Z</time>
      </trkpt>
      <trkpt lat="45.74374" lon="4.75972">
        <ele>203.94</ele>
        <time>2012-08-25T06:54:48Z</time>
      </trkpt>
      <trkpt lat="45.74373" lon="4.75976">
        <ele>203.94</ele>
        <time>2012-08-25T06:55:00Z</time>
      </trkpt>
      <trkpt lat="45.74368" lon="4.75981">
        <ele>203.46</ele>
        <time>2012-08-25T06:55:12Z</time>
      </trkpt>
      <trkpt lat="45.74367" lon="4.75977">
        <ele>204.42</ele>
        <time>2012-08-25T06:55:24Z</time>
      </trkpt>
      <trkpt lat="45.74368" lon="4.75968">
        <ele>204.42</ele>
        <time>2012-08-25T06:55:35Z</time>
      </trkpt>
      <trkpt lat="45.7437" lon="4.75965">
        <ele>204.9</ele>
        <time>2012-08-25T06:55:36Z</time>
      </trkpt>
      <trkpt lat="45.74371" lon="4.75963">
        <ele>204.42</ele>
        <time>2012-08-25T06:55:37Z</time>
      </trkpt>
      <trkpt lat="45.74372" lon="4.75961">
        <ele>204.42</ele>
        <time>2012-08-25T06:55:38Z</time>
      </trkpt>
      <trkpt lat="45.74374" lon="4.75958">
        <ele>204.42</ele>
        <time>2012-08-25T06:55:39Z</time>
      </trkpt>
      <trkpt lat="45.74375" lon="4.75956">
        <ele>204.42</ele>
        <time>2012-08-25T06:55:40Z</time>
      </trkpt>
      <trkpt lat="45.74375" lon="4.75953">
        <ele>203.94</ele>
        <time>2012-08-25T06:55:41Z</time>
      </trkpt>
      <trkpt lat="45.74382" lon="4.75922">
        <ele>204.9</ele>
        <time>2012-08-25T06:55:51Z</time>
      </trkpt>
      <trkpt lat="45.74384" lon="4.75914">
        <ele>204.9</ele>
        <time>2012-08-25T06:55:54Z</time>
      </trkpt>
      <trkpt lat="45.74384" lon="4.75911">
        <ele>204.9</ele>
        <time>2012-08-25T06:55:55Z</time>
      </trkpt>
      <trkpt lat="45.74385" lon="4.75874">
        <ele>205.38</ele>
        <time>2012-08-25T06:56:07Z</time>
      </trkpt>
      <trkpt lat="45.74384" lon="4.75847">
        <ele>205.38</ele>
        <time>2012-08-25T06:56:16Z</time>
      </trkpt>
      <trkpt lat="45.74383" lon="4.75845">
        <ele>205.86</ele>
        <time>2012-08-25T06:56:17Z</time>
      </trkpt>
      <trkpt lat="45.74373" lon="4.75815">
        <ele>205.86</ele>
        <time>2012-08-25T06:56:25Z</time>
      </trkpt>
      <trkpt lat="45.74371" lon="4.75811">
        <ele>205.86</ele>
        <time>2012-08-25T06:56:26Z</time>
      </trkpt>
      <trkpt lat="45.74369" lon="4.75806">
        <ele>205.86</ele>
        <time>2012-08-25T06:56:27Z</time>
      </trkpt>
      <trkpt lat="45.74354" lon="4.7576">
        <ele>206.82</ele>
        <time>2012-08-25T06:56:40Z</time>
      </trkpt>
      <trkpt lat="45.74359" lon="4.75756">
        <ele>205.86</ele>
        <time>2012-08-25T06:56:44Z</time>
      </trkpt>
      <trkpt lat="45.74363" lon="4.75739">
        <ele>204.42</ele>
        <time>2012-08-25T06:56:59Z</time>
      </trkpt>
      <trkpt lat="45.74361" lon="4.75736">
        <ele>204.42</ele>
        <time>2012-08-25T06:57:07Z</time>
      </trkpt>
      <trkpt lat="45.74361" lon="4.75734">
        <ele>203.94</ele>
        <time>2012-08-25T06:57:08Z</time>
      </trkpt>
      <trkpt lat="45.7436" lon="4.7573">
        <ele>204.42</ele>
        <time>2012-08-25T06:57:10Z</time>
      </trkpt>
      <trkpt lat="45.7436" lon="4.75727">
        <ele>203.94</ele>
        <time>2012-08-25T06:57:11Z</time>
      </trkpt>
      <trkpt lat="45.7436" lon="4.75719">
        <ele>205.38</ele>
        <time>2012-08-25T06:57:15Z</time>
      </trkpt>
      <trkpt lat="45.7436" lon="4.75716">
        <ele>204.9</ele>
        <time>2012-08-25T06:57:16Z</time>
      </trkpt>
      <trkpt lat="45.74361" lon="4.75702">
        <ele>204.9</ele>
        <time>2012-08-25T06:57:21Z</time>
      </trkpt>
      <trkpt lat="45.7436" lon="4.75699">
        <ele>204.9</ele>
        <time>2012-08-25T06:57:22Z</time>
      </trkpt>
      <trkpt lat="45.74358" lon="4.75696">
        <ele>205.38</ele>
        <time>2012-08-25T06:57:23Z</time>
      </trkpt>
      <trkpt lat="45.74356" lon="4.75694">
        <ele>205.86</ele>
        <time>2012-08-25T06:57:24Z</time>
      </trkpt>
      <trkpt lat="45.74354" lon="4.75692">
        <ele>206.34</ele>
        <time>2012-08-25T06:57:25Z</time>
      </trkpt>
      <trkpt lat="45.74352" lon="4.75691">
        <ele>206.34</ele>
        <time>2012-08-25T06:57:26Z</time>
      </trkpt>
      <trkpt lat="45.74351" lon="4.75689">
        <ele>207.3</ele>
        <time>2012-08-25T06:57:27Z</time>
      </trkpt>
      <trkpt lat="45.74349" lon="4.75688">
        <ele>207.3</ele>
        <time>2012-08-25T06:57:28Z</time>
      </trkpt>
      <trkpt lat="45.74346" lon="4.75681">
        <ele>207.3</ele>
        <time>2012-08-25T06:57:32Z</time>
      </trkpt>
      <trkpt lat="45.74346" lon="4.75678">
        <ele>207.78</ele>
        <time>2012-08-25T06:57:33Z</time>
      </trkpt>
      <trkpt lat="45.74346" lon="4.75676">
        <ele>207.78</ele>
        <time>2012-08-25T06:57:34Z</time>
      </trkpt>
      <trkpt lat="45.74349" lon="4.75672">
        <ele>208.26</ele>
        <time>2012-08-25T06:57:37Z</time>
      </trkpt>
      <trkpt lat="45.74351" lon="4.75654">
        <ele>208.26</ele>
        <time>2012-08-25T06:57:44Z</time>
      </trkpt>
      <trkpt lat="45.74352" lon="4.75652">
        <ele>208.26</ele>
        <time>2012-08-25T06:57:45Z</time>
      </trkpt>
      <trkpt lat="45.74353" lon="4.75649">
        <ele>208.74</ele>
        <time>2012-08-25T06:57:46Z</time>
      </trkpt>
      <trkpt lat="45.74354" lon="4.75645">
        <ele>208.74</ele>
        <time>2012-08-25T06:57:47Z</time>
      </trkpt>
      <trkpt lat="45.74354" lon="4.7564">
        <ele>208.74</ele>
        <time>2012-08-25T06:57:48Z</time>
      </trkpt>
      <trkpt lat="45.74354" lon="4.75634">
        <ele>208.74</ele>
        <time>2012-08-25T06:57:49Z</time>
      </trkpt>
      <trkpt lat="45.74354" lon="4.7563">
        <ele>208.26</ele>
        <time>2012-08-25T06:57:50Z</time>
      </trkpt>
      <trkpt lat="45.74354" lon="4.75625">
        <ele>208.26</ele>
        <time>2012-08-25T06:57:51Z</time>
      </trkpt>
      <trkpt lat="45.74351" lon="4.75606">
        <ele>208.26</ele>
        <time>2012-08-25T06:57:56Z</time>
      </trkpt>
      <trkpt lat="45.7435" lon="4.75602">
        <ele>208.26</ele>
        <time>2012-08-25T06:57:57Z</time>
      </trkpt>
      <trkpt lat="45.74347" lon="4.75597">
        <ele>208.26</ele>
        <time>2012-08-25T06:57:58Z</time>
      </trkpt>
      <trkpt lat="45.74346" lon="4.75594">
        <ele>208.26</ele>
        <time>2012-08-25T06:57:59Z</time>
      </trkpt>
      <trkpt lat="45.74345" lon="4.7559">
        <ele>208.26</ele>
        <time>2012-08-25T06:58:00Z</time>
      </trkpt>
      <trkpt lat="45.74344" lon="4.75587">
        <ele>208.74</ele>
        <time>2012-08-25T06:58:01Z</time>
      </trkpt>
      <trkpt lat="45.7432" lon="4.75549">
        <ele>209.22</ele>
        <time>2012-08-25T06:58:14Z</time>
      </trkpt>
      <trkpt lat="45.74291" lon="4.75533">
        <ele>209.22</ele>
        <time>2012-08-25T06:58:27Z</time>
      </trkpt>
      <trkpt lat="45.74274" lon="4.75531">
        <ele>209.7</ele>
        <time>2012-08-25T06:58:40Z</time>
      </trkpt>
      <trkpt lat="45.74267" lon="4.75525">
        <ele>209.7</ele>
        <time>2012-08-25T06:58:53Z</time>
      </trkpt>
      <trkpt lat="45.74263" lon="4.75521">
        <ele>209.22</ele>
        <time>2012-08-25T06:58:57Z</time>
      </trkpt>
      <trkpt lat="45.74262" lon="4.75519">
        <ele>209.22</ele>
        <time>2012-08-25T06:58:58Z</time>
      </trkpt>
      <trkpt lat="45.74261" lon="4.75517">
        <ele>209.22</ele>
        <time>2012-08-25T06:58:59Z</time>
      </trkpt>
      <trkpt lat="45.74259" lon="4.75516">
        <ele>208.74</ele>
        <time>2012-08-25T06:59:00Z</time>
      </trkpt>
      <trkpt lat="45.74258" lon="4.75515">
        <ele>209.22</ele>
        <time>2012-08-25T06:59:01Z</time>
      </trkpt>
      <trkpt lat="45.74246" lon="4.75512">
        <ele>209.22</ele>
        <time>2012-08-25T06:59:14Z</time>
      </trkpt>
      <trkpt lat="45.74237" lon="4.75512">
        <ele>209.7</ele>
        <time>2012-08-25T06:59:29Z</time>
      </trkpt>
      <trkpt lat="45.74234" lon="4.75512">
        <ele>210.19</ele>
        <time>2012-08-25T06:59:35Z</time>
      </trkpt>
      <trkpt lat="45.7423" lon="4.75518">
        <ele>211.63</ele>
        <time>2012-08-25T06:59:44Z</time>
      </trkpt>
      <trkpt lat="45.74225" lon="4.75517">
        <ele>211.63</ele>
        <time>2012-08-25T07:00:00Z</time>
      </trkpt>
      <trkpt lat="45.74221" lon="4.75517">
        <ele>212.11</ele>
        <time>2012-08-25T07:00:24Z</time>
      </trkpt>
      <trkpt lat="45.74218" lon="4.75518">
        <ele>211.63</ele>
        <time>2012-08-25T07:00:26Z</time>
      </trkpt>
      <trkpt lat="45.74217" lon="4.75519">
        <ele>211.63</ele>
        <time>2012-08-25T07:00:27Z</time>
      </trkpt>
      <trkpt lat="45.74215" lon="4.75519">
        <ele>212.59</ele>
        <time>2012-08-25T07:00:28Z</time>
      </trkpt>
      <trkpt lat="45.74212" lon="4.75518">
        <ele>212.11</ele>
        <time>2012-08-25T07:00:31Z</time>
      </trkpt>
      <trkpt lat="45.74209" lon="4.75515">
        <ele>212.11</ele>
        <time>2012-08-25T07:00:34Z</time>
      </trkpt>
      <trkpt lat="45.74208" lon="4.75512">
        <ele>212.11</ele>
        <time>2012-08-25T07:00:35Z</time>
      </trkpt>
      <trkpt lat="45.74208" lon="4.7551">
        <ele>212.11</ele>
        <time>2012-08-25T07:00:36Z</time>
      </trkpt>
      <trkpt lat="45.74208" lon="4.75497">
        <ele>211.15</ele>
        <time>2012-08-25T07:00:44Z</time>
      </trkpt>
      <trkpt lat="45.74207" lon="4.75492">
        <ele>211.15</ele>
        <time>2012-08-25T07:00:47Z</time>
      </trkpt>
      <trkpt lat="45.74205" lon="4.75487">
        <ele>211.15</ele>
        <time>2012-08-25T07:00:50Z</time>
      </trkpt>
      <trkpt lat="45.74204" lon="4.75484">
        <ele>211.63</ele>
        <time>2012-08-25T07:00:51Z</time>
      </trkpt>
      <trkpt lat="45.74202" lon="4.75467">
        <ele>211.15</ele>
        <time>2012-08-25T07:00:58Z</time>
      </trkpt>
      <trkpt lat="45.74196" lon="4.75452">
        <ele>211.15</ele>
        <time>2012-08-25T07:01:09Z</time>
      </trkpt>
      <trkpt lat="45.74191" lon="4.75446">
        <ele>212.11</ele>
        <time>2012-08-25T07:01:21Z</time>
      </trkpt>
      <trkpt lat="45.74195" lon="4.75431">
        <ele>210.67</ele>
        <time>2012-08-25T07:01:37Z</time>
      </trkpt>
      <trkpt lat="45.74187" lon="4.75424">
        <ele>212.11</ele>
        <time>2012-08-25T07:01:57Z</time>
      </trkpt>
      <trkpt lat="45.74182" lon="4.75436">
        <ele>214.03</ele>
        <time>2012-08-25T07:02:11Z</time>
      </trkpt>
      <trkpt lat="45.74175" lon="4.75444">
        <ele>214.51</ele>
        <time>2012-08-25T07:02:32Z</time>
      </trkpt>
      <trkpt lat="45.74174" lon="4.75448">
        <ele>214.99</ele>
        <time>2012-08-25T07:02:48Z</time>
      </trkpt>
      <trkpt lat="45.74173" lon="4.75448">
        <ele>215.47</ele>
        <time>2012-08-25T07:02:49Z</time>
      </trkpt>
      <trkpt lat="45.74171" lon="4.75451">
        <ele>216.43</ele>
        <time>2012-08-25T07:02:54Z</time>
      </trkpt>
      <trkpt lat="45.74157" lon="4.75463">
        <ele>218.84</ele>
        <time>2012-08-25T07:03:08Z</time>
      </trkpt>
      <trkpt lat="45.74145" lon="4.75464">
        <ele>221.72</ele>
        <time>2012-08-25T07:03:17Z</time>
      </trkpt>
      <trkpt lat="45.74127" lon="4.75467">
        <ele>225.57</ele>
        <time>2012-08-25T07:03:30Z</time>
      </trkpt>
      <trkpt lat="45.74119" lon="4.75469">
        <ele>227.01</ele>
        <time>2012-08-25T07:03:37Z</time>
      </trkpt>
      <trkpt lat="45.74118" lon="4.7547">
        <ele>227.49</ele>
        <time>2012-08-25T07:03:38Z</time>
      </trkpt>
      <trkpt lat="45.74104" lon="4.75468">
        <ele>229.41</ele>
        <time>2012-08-25T07:03:47Z</time>
      </trkpt>
      <trkpt lat="45.74103" lon="4.75468">
        <ele>229.41</ele>
        <time>2012-08-25T07:03:48Z</time>
      </trkpt>
      <trkpt lat="45.74102" lon="4.75469">
        <ele>229.89</ele>
        <time>2012-08-25T07:03:49Z</time>
      </trkpt>
      <trkpt lat="45.74101" lon="4.75469">
        <ele>230.37</ele>
        <time>2012-08-25T07:03:50Z</time>
      </trkpt>
      <trkpt lat="45.74099" lon="4.7547">
        <ele>230.37</ele>
        <time>2012-08-25T07:03:51Z</time>
      </trkpt>
      <trkpt lat="45.74098" lon="4.7547">
        <ele>230.37</ele>
        <time>2012-08-25T07:03:52Z</time>
      </trkpt>
      <trkpt lat="45.74097" lon="4.7547">
        <ele>230.85</ele>
        <time>2012-08-25T07:03:53Z</time>
      </trkpt>
      <trkpt lat="45.74095" lon="4.7547">
        <ele>230.85</ele>
        <time>2012-08-25T07:03:54Z</time>
      </trkpt>
      <trkpt lat="45.74082" lon="4.7547">
        <ele>233.26</ele>
        <time>2012-08-25T07:04:06Z</time>
      </trkpt>
      <trkpt lat="45.74075" lon="4.75469">
        <ele>234.22</ele>
        <time>2012-08-25T07:04:12Z</time>
      </trkpt>
      <trkpt lat="45.74073" lon="4.75468">
        <ele>234.22</ele>
        <time>2012-08-25T07:04:13Z</time>
      </trkpt>
      <trkpt lat="45.74072" lon="4.75468">
        <ele>234.7</ele>
        <time>2012-08-25T07:04:14Z</time>
      </trkpt>
      <trkpt lat="45.7407" lon="4.75468">
        <ele>234.7</ele>
        <time>2012-08-25T07:04:15Z</time>
      </trkpt>
      <trkpt lat="45.74055" lon="4.75467">
        <ele>236.14</ele>
        <time>2012-08-25T07:04:27Z</time>
      </trkpt>
      <trkpt lat="45.74038" lon="4.75469">
        <ele>238.06</ele>
        <time>2012-08-25T07:04:41Z</time>
      </trkpt>
      <trkpt lat="45.74019" lon="4.75465">
        <ele>241.43</ele>
        <time>2012-08-25T07:04:54Z</time>
      </trkpt>
      <trkpt lat="45.74006" lon="4.75472">
        <ele>243.83</ele>
        <time>2012-08-25T07:05:07Z</time>
      </trkpt>
      <trkpt lat="45.74006" lon="4.75472">
        <ele>244.31</ele>
        <time>2012-08-25T07:05:08Z</time>
      </trkpt>
      <trkpt lat="45.73988" lon="4.75486">
        <ele>247.2</ele>
        <time>2012-08-25T07:05:24Z</time>
      </trkpt>
      <trkpt lat="45.73982" lon="4.75484">
        <ele>248.16</ele>
        <time>2012-08-25T07:05:32Z</time>
      </trkpt>
      <trkpt lat="45.73978" lon="4.75478">
        <ele>247.68</ele>
        <time>2012-08-25T07:05:36Z</time>
      </trkpt>
      <trkpt lat="45.73976" lon="4.75478">
        <ele>247.68</ele>
        <time>2012-08-25T07:05:38Z</time>
      </trkpt>
      <trkpt lat="45.73971" lon="4.75477">
        <ele>247.68</ele>
        <time>2012-08-25T07:05:42Z</time>
      </trkpt>
      <trkpt lat="45.73952" lon="4.75468">
        <ele>248.16</ele>
        <time>2012-08-25T07:05:56Z</time>
      </trkpt>
      <trkpt lat="45.73951" lon="4.75468">
        <ele>247.68</ele>
        <time>2012-08-25T07:05:57Z</time>
      </trkpt>
      <trkpt lat="45.73949" lon="4.75467">
        <ele>247.68</ele>
        <time>2012-08-25T07:05:58Z</time>
      </trkpt>
      <trkpt lat="45.73933" lon="4.75459">
        <ele>250.08</ele>
        <time>2012-08-25T07:06:09Z</time>
      </trkpt>
      <trkpt lat="45.73932" lon="4.75459">
        <ele>249.6</ele>
        <time>2012-08-25T07:06:10Z</time>
      </trkpt>
      <trkpt lat="45.73926" lon="4.75456">
        <ele>250.08</ele>
        <time>2012-08-25T07:06:14Z</time>
      </trkpt>
      <trkpt lat="45.73925" lon="4.75455">
        <ele>250.56</ele>
        <time>2012-08-25T07:06:15Z</time>
      </trkpt>
      <trkpt lat="45.73923" lon="4.75455">
        <ele>251.04</ele>
        <time>2012-08-25T07:06:16Z</time>
      </trkpt>
      <trkpt lat="45.73903" lon="4.75446">
        <ele>253.44</ele>
        <time>2012-08-25T07:06:32Z</time>
      </trkpt>
      <trkpt lat="45.73889" lon="4.75435">
        <ele>255.37</ele>
        <time>2012-08-25T07:06:44Z</time>
      </trkpt>
      <trkpt lat="45.73878" lon="4.75422">
        <ele>256.81</ele>
        <time>2012-08-25T07:06:54Z</time>
      </trkpt>
      <trkpt lat="45.73877" lon="4.7542">
        <ele>256.81</ele>
        <time>2012-08-25T07:06:55Z</time>
      </trkpt>
      <trkpt lat="45.73876" lon="4.75418">
        <ele>256.33</ele>
        <time>2012-08-25T07:06:56Z</time>
      </trkpt>
      <trkpt lat="45.73875" lon="4.75417">
        <ele>256.81</ele>
        <time>2012-08-25T07:06:57Z</time>
      </trkpt>
      <trkpt lat="45.73873" lon="4.75414">
        <ele>256.81</ele>
        <time>2012-08-25T07:06:58Z</time>
      </trkpt>
      <trkpt lat="45.73868" lon="4.75409">
        <ele>257.29</ele>
        <time>2012-08-25T07:07:02Z</time>
      </trkpt>
      <trkpt lat="45.73866" lon="4.75408">
        <ele>256.81</ele>
        <time>2012-08-25T07:07:03Z</time>
      </trkpt>
      <trkpt lat="45.73849" lon="4.75393">
        <ele>259.69</ele>
        <time>2012-08-25T07:07:16Z</time>
      </trkpt>
      <trkpt lat="45.73841" lon="4.75384">
        <ele>260.17</ele>
        <time>2012-08-25T07:07:22Z</time>
      </trkpt>
      <trkpt lat="45.73825" lon="4.75367">
        <ele>260.17</ele>
        <time>2012-08-25T07:07:34Z</time>
      </trkpt>
      <trkpt lat="45.73802" lon="4.75351">
        <ele>260.65</ele>
        <time>2012-08-25T07:07:47Z</time>
      </trkpt>
      <trkpt lat="45.73776" lon="4.75353">
        <ele>262.1</ele>
        <time>2012-08-25T07:07:59Z</time>
      </trkpt>
      <trkpt lat="45.73748" lon="4.75354">
        <ele>262.1</ele>
        <time>2012-08-25T07:08:14Z</time>
      </trkpt>
      <trkpt lat="45.73743" lon="4.75351">
        <ele>262.58</ele>
        <time>2012-08-25T07:08:19Z</time>
      </trkpt>
      <trkpt lat="45.73742" lon="4.7535">
        <ele>262.58</ele>
        <time>2012-08-25T07:08:20Z</time>
      </trkpt>
      <trkpt lat="45.73739" lon="4.75348">
        <ele>262.58</ele>
        <time>2012-08-25T07:08:33Z</time>
      </trkpt>
      <trkpt lat="45.73737" lon="4.75349">
        <ele>262.58</ele>
        <time>2012-08-25T07:08:51Z</time>
      </trkpt>
      <trkpt lat="45.73736" lon="4.75353">
        <ele>262.58</ele>
        <time>2012-08-25T07:09:07Z</time>
      </trkpt>
      <trkpt lat="45.73735" lon="4.75355">
        <ele>262.58</ele>
        <time>2012-08-25T07:09:08Z</time>
      </trkpt>
      <trkpt lat="45.73734" lon="4.75357">
        <ele>262.58</ele>
        <time>2012-08-25T07:09:09Z</time>
      </trkpt>
      <trkpt lat="45.73733" lon="4.75358">
        <ele>262.58</ele>
        <time>2012-08-25T07:09:10Z</time>
      </trkpt>
      <trkpt lat="45.73731" lon="4.7536">
        <ele>262.58</ele>
        <time>2012-08-25T07:09:11Z</time>
      </trkpt>
      <trkpt lat="45.7373" lon="4.75362">
        <ele>262.58</ele>
        <time>2012-08-25T07:09:12Z</time>
      </trkpt>
      <trkpt lat="45.73712" lon="4.75386">
        <ele>264.02</ele>
        <time>2012-08-25T07:09:26Z</time>
      </trkpt>
      <trkpt lat="45.73683" lon="4.75411">
        <ele>264.02</ele>
        <time>2012-08-25T07:09:44Z</time>
      </trkpt>
      <trkpt lat="45.7368" lon="4.75411">
        <ele>264.5</ele>
        <time>2012-08-25T07:09:46Z</time>
      </trkpt>
      <trkpt lat="45.73679" lon="4.75409">
        <ele>264.98</ele>
        <time>2012-08-25T07:09:47Z</time>
      </trkpt>
      <trkpt lat="45.73678" lon="4.75407">
        <ele>264.5</ele>
        <time>2012-08-25T07:09:48Z</time>
      </trkpt>
      <trkpt lat="45.73667" lon="4.7535">
        <ele>266.42</ele>
        <time>2012-08-25T07:10:08Z</time>
      </trkpt>
      <trkpt lat="45.73647" lon="4.75288">
        <ele>267.38</ele>
        <time>2012-08-25T07:10:29Z</time>
      </trkpt>
      <trkpt lat="45.73633" lon="4.75237">
        <ele>268.35</ele>
        <time>2012-08-25T07:10:46Z</time>
      </trkpt>
      <trkpt lat="45.73645" lon="4.75186">
        <ele>267.86</ele>
        <time>2012-08-25T07:11:01Z</time>
      </trkpt>
      <trkpt lat="45.73683" lon="4.7515">
        <ele>267.38</ele>
        <time>2012-08-25T07:11:17Z</time>
      </trkpt>
      <trkpt lat="45.73705" lon="4.75121">
        <ele>268.35</ele>
        <time>2012-08-25T07:11:28Z</time>
      </trkpt>
      <trkpt lat="45.73707" lon="4.7512">
        <ele>267.86</ele>
        <time>2012-08-25T07:11:29Z</time>
      </trkpt>
      <trkpt lat="45.7371" lon="4.75121">
        <ele>267.38</ele>
        <time>2012-08-25T07:11:30Z</time>
      </trkpt>
      <trkpt lat="45.73757" lon="4.75124">
        <ele>267.38</ele>
        <time>2012-08-25T07:11:45Z</time>
      </trkpt>
      <trkpt lat="45.73814" lon="4.75125">
        <ele>267.38</ele>
        <time>2012-08-25T07:12:01Z</time>
      </trkpt>
      <trkpt lat="45.73827" lon="4.75124">
        <ele>266.9</ele>
        <time>2012-08-25T07:12:04Z</time>
      </trkpt>
      <trkpt lat="45.73832" lon="4.75122">
        <ele>267.38</ele>
        <time>2012-08-25T07:12:05Z</time>
      </trkpt>
      <trkpt lat="45.73836" lon="4.75121">
        <ele>267.38</ele>
        <time>2012-08-25T07:12:06Z</time>
      </trkpt>
      <trkpt lat="45.73841" lon="4.75118">
        <ele>266.42</ele>
        <time>2012-08-25T07:12:07Z</time>
      </trkpt>
      <trkpt lat="45.73845" lon="4.75114">
        <ele>266.9</ele>
        <time>2012-08-25T07:12:08Z</time>
      </trkpt>
      <trkpt lat="45.73849" lon="4.7511">
        <ele>266.42</ele>
        <time>2012-08-25T07:12:09Z</time>
      </trkpt>
      <trkpt lat="45.73852" lon="4.75106">
        <ele>266.9</ele>
        <time>2012-08-25T07:12:10Z</time>
      </trkpt>
      <trkpt lat="45.73899" lon="4.75055">
        <ele>265.46</ele>
        <time>2012-08-25T07:12:23Z</time>
      </trkpt>
      <trkpt lat="45.73903" lon="4.75054">
        <ele>265.46</ele>
        <time>2012-08-25T07:12:24Z</time>
      </trkpt>
      <trkpt lat="45.73908" lon="4.75054">
        <ele>264.5</ele>
        <time>2012-08-25T07:12:25Z</time>
      </trkpt>
      <trkpt lat="45.73913" lon="4.75055">
        <ele>264.98</ele>
        <time>2012-08-25T07:12:26Z</time>
      </trkpt>
      <trkpt lat="45.73917" lon="4.75057">
        <ele>264.5</ele>
        <time>2012-08-25T07:12:27Z</time>
      </trkpt>
      <trkpt lat="45.73921" lon="4.75058">
        <ele>264.5</ele>
        <time>2012-08-25T07:12:28Z</time>
      </trkpt>
      <trkpt lat="45.73923" lon="4.7506">
        <ele>263.54</ele>
        <time>2012-08-25T07:12:29Z</time>
      </trkpt>
      <trkpt lat="45.73925" lon="4.75061">
        <ele>263.06</ele>
        <time>2012-08-25T07:12:30Z</time>
      </trkpt>
      <trkpt lat="45.73926" lon="4.75062">
        <ele>263.54</ele>
        <time>2012-08-25T07:12:31Z</time>
      </trkpt>
      <trkpt lat="45.73927" lon="4.75055">
        <ele>263.54</ele>
        <time>2012-08-25T07:12:35Z</time>
      </trkpt>
      <trkpt lat="45.73925" lon="4.75052">
        <ele>263.54</ele>
        <time>2012-08-25T07:12:36Z</time>
      </trkpt>
      <trkpt lat="45.73922" lon="4.7505">
        <ele>264.02</ele>
        <time>2012-08-25T07:12:37Z</time>
      </trkpt>
      <trkpt lat="45.73919" lon="4.75049">
        <ele>264.02</ele>
        <time>2012-08-25T07:12:38Z</time>
      </trkpt>
      <trkpt lat="45.73916" lon="4.75049">
        <ele>263.54</ele>
        <time>2012-08-25T07:12:39Z</time>
      </trkpt>
      <trkpt lat="45.73913" lon="4.75048">
        <ele>263.54</ele>
        <time>2012-08-25T07:12:40Z</time>
      </trkpt>
      <trkpt lat="45.7391" lon="4.75048">
        <ele>264.02</ele>
        <time>2012-08-25T07:12:41Z</time>
      </trkpt>
      <trkpt lat="45.73906" lon="4.75049">
        <ele>264.5</ele>
        <time>2012-08-25T07:12:42Z</time>
      </trkpt>
      <trkpt lat="45.73903" lon="4.7505">
        <ele>264.5</ele>
        <time>2012-08-25T07:12:43Z</time>
      </trkpt>
      <trkpt lat="45.73899" lon="4.75051">
        <ele>264.98</ele>
        <time>2012-08-25T07:12:44Z</time>
      </trkpt>
      <trkpt lat="45.73897" lon="4.75053">
        <ele>264.98</ele>
        <time>2012-08-25T07:12:45Z</time>
      </trkpt>
      <trkpt lat="45.73894" lon="4.75056">
        <ele>264.98</ele>
        <time>2012-08-25T07:12:46Z</time>
      </trkpt>
      <trkpt lat="45.73892" lon="4.75059">
        <ele>264.98</ele>
        <time>2012-08-25T07:12:47Z</time>
      </trkpt>
      <trkpt lat="45.73851" lon="4.75105">
        <ele>266.42</ele>
        <time>2012-08-25T07:13:04Z</time>
      </trkpt>
      <trkpt lat="45.73806" lon="4.75124">
        <ele>267.86</ele>
        <time>2012-08-25T07:13:20Z</time>
      </trkpt>
      <trkpt lat="45.73748" lon="4.75122">
        <ele>268.35</ele>
        <time>2012-08-25T07:13:37Z</time>
      </trkpt>
      <trkpt lat="45.73705" lon="4.75116">
        <ele>268.35</ele>
        <time>2012-08-25T07:13:50Z</time>
      </trkpt>
      <trkpt lat="45.73705" lon="4.75112">
        <ele>267.86</ele>
        <time>2012-08-25T07:13:51Z</time>
      </trkpt>
      <trkpt lat="45.73705" lon="4.75107">
        <ele>268.35</ele>
        <time>2012-08-25T07:13:52Z</time>
      </trkpt>
      <trkpt lat="45.73714" lon="4.75039">
        <ele>268.83</ele>
        <time>2012-08-25T07:14:07Z</time>
      </trkpt>
      <trkpt lat="45.73719" lon="4.75006">
        <ele>268.35</ele>
        <time>2012-08-25T07:14:17Z</time>
      </trkpt>
      <trkpt lat="45.73717" lon="4.75005">
        <ele>268.83</ele>
        <time>2012-08-25T07:14:18Z</time>
      </trkpt>
      <trkpt lat="45.73716" lon="4.75006">
        <ele>268.35</ele>
        <time>2012-08-25T07:14:19Z</time>
      </trkpt>
      <trkpt lat="45.73715" lon="4.75009">
        <ele>268.35</ele>
        <time>2012-08-25T07:14:20Z</time>
      </trkpt>
      <trkpt lat="45.73715" lon="4.75013">
        <ele>267.86</ele>
        <time>2012-08-25T07:14:21Z</time>
      </trkpt>
      <trkpt lat="45.73714" lon="4.75017">
        <ele>268.35</ele>
        <time>2012-08-25T07:14:22Z</time>
      </trkpt>
      <trkpt lat="45.73703" lon="4.75097">
        <ele>268.35</ele>
        <time>2012-08-25T07:14:37Z</time>
      </trkpt>
      <trkpt lat="45.73698" lon="4.7512">
        <ele>268.83</ele>
        <time>2012-08-25T07:14:41Z</time>
      </trkpt>
      <trkpt lat="45.73696" lon="4.75125">
        <ele>267.86</ele>
        <time>2012-08-25T07:14:42Z</time>
      </trkpt>
      <trkpt lat="45.73693" lon="4.7513">
        <ele>267.86</ele>
        <time>2012-08-25T07:14:43Z</time>
      </trkpt>
      <trkpt lat="45.7369" lon="4.75135">
        <ele>267.86</ele>
        <time>2012-08-25T07:14:44Z</time>
      </trkpt>
      <trkpt lat="45.73687" lon="4.7514">
        <ele>268.35</ele>
        <time>2012-08-25T07:14:45Z</time>
      </trkpt>
      <trkpt lat="45.73684" lon="4.75144">
        <ele>267.86</ele>
        <time>2012-08-25T07:14:46Z</time>
      </trkpt>
      <trkpt lat="45.73646" lon="4.75178">
        <ele>267.86</ele>
        <time>2012-08-25T07:15:00Z</time>
      </trkpt>
      <trkpt lat="45.73646" lon="4.7518">
        <ele>267.86</ele>
        <time>2012-08-25T07:15:01Z</time>
      </trkpt>
      <trkpt lat="45.73647" lon="4.75181">
        <ele>268.35</ele>
        <time>2012-08-25T07:15:02Z</time>
      </trkpt>
      <trkpt lat="45.73649" lon="4.75181">
        <ele>268.83</ele>
        <time>2012-08-25T07:15:03Z</time>
      </trkpt>
      <trkpt lat="45.73651" lon="4.75178">
        <ele>267.86</ele>
        <time>2012-08-25T07:15:04Z</time>
      </trkpt>
      <trkpt lat="45.73654" lon="4.75175">
        <ele>267.86</ele>
        <time>2012-08-25T07:15:05Z</time>
      </trkpt>
      <trkpt lat="45.73699" lon="4.75131">
        <ele>267.86</ele>
        <time>2012-08-25T07:15:22Z</time>
      </trkpt>
      <trkpt lat="45.73706" lon="4.75123">
        <ele>268.35</ele>
        <time>2012-08-25T07:15:25Z</time>
      </trkpt>
      <trkpt lat="45.73709" lon="4.75123">
        <ele>268.83</ele>
        <time>2012-08-25T07:15:26Z</time>
      </trkpt>
      <trkpt lat="45.73712" lon="4.75123">
        <ele>268.35</ele>
        <time>2012-08-25T07:15:27Z</time>
      </trkpt>
      <trkpt lat="45.73715" lon="4.75124">
        <ele>268.35</ele>
        <time>2012-08-25T07:15:28Z</time>
      </trkpt>
      <trkpt lat="45.73718" lon="4.75124">
        <ele>267.86</ele>
        <time>2012-08-25T07:15:29Z</time>
      </trkpt>
      <trkpt lat="45.73722" lon="4.75124">
        <ele>267.86</ele>
        <time>2012-08-25T07:15:30Z</time>
      </trkpt>
      <trkpt lat="45.73725" lon="4.75124">
        <ele>267.86</ele>
        <time>2012-08-25T07:15:31Z</time>
      </trkpt>
      <trkpt lat="45.73799" lon="4.75125">
        <ele>267.86</ele>
        <time>2012-08-25T07:15:48Z</time>
      </trkpt>
      <trkpt lat="45.73829" lon="4.75124">
        <ele>267.38</ele>
        <time>2012-08-25T07:15:54Z</time>
      </trkpt>
      <trkpt lat="45.73834" lon="4.75122">
        <ele>267.38</ele>
        <time>2012-08-25T07:15:55Z</time>
      </trkpt>
      <trkpt lat="45.73839" lon="4.7512">
        <ele>267.38</ele>
        <time>2012-08-25T07:15:56Z</time>
      </trkpt>
      <trkpt lat="45.73844" lon="4.75116">
        <ele>266.9</ele>
        <time>2012-08-25T07:15:57Z</time>
      </trkpt>
      <trkpt lat="45.73849" lon="4.75112">
        <ele>267.38</ele>
        <time>2012-08-25T07:15:58Z</time>
      </trkpt>
      <trkpt lat="45.73854" lon="4.75107">
        <ele>266.9</ele>
        <time>2012-08-25T07:15:59Z</time>
      </trkpt>
      <trkpt lat="45.73858" lon="4.75102">
        <ele>267.38</ele>
        <time>2012-08-25T07:16:00Z</time>
      </trkpt>
      <trkpt lat="45.73898" lon="4.75059">
        <ele>265.94</ele>
        <time>2012-08-25T07:16:09Z</time>
      </trkpt>
      <trkpt lat="45.73903" lon="4.75057">
        <ele>265.46</ele>
        <time>2012-08-25T07:16:10Z</time>
      </trkpt>
      <trkpt lat="45.73908" lon="4.75057">
        <ele>265.94</ele>
        <time>2012-08-25T07:16:11Z</time>
      </trkpt>
      <trkpt lat="45.73912" lon="4.75057">
        <ele>264.98</ele>
        <time>2012-08-25T07:16:12Z</time>
      </trkpt>
      <trkpt lat="45.73915" lon="4.75057">
        <ele>264.5</ele>
        <time>2012-08-25T07:16:13Z</time>
      </trkpt>
      <trkpt lat="45.73917" lon="4.75059">
        <ele>263.54</ele>
        <time>2012-08-25T07:16:14Z</time>
      </trkpt>
      <trkpt lat="45.73918" lon="4.75061">
        <ele>263.54</ele>
        <time>2012-08-25T07:16:15Z</time>
      </trkpt>
      <trkpt lat="45.73919" lon="4.75061">
        <ele>263.54</ele>
        <time>2012-08-25T07:16:16Z</time>
      </trkpt>
      <trkpt lat="45.73921" lon="4.75061">
        <ele>264.02</ele>
        <time>2012-08-25T07:16:17Z</time>
      </trkpt>
      <trkpt lat="45.73923" lon="4.75054">
        <ele>263.54</ele>
        <time>2012-08-25T07:16:19Z</time>
      </trkpt>
      <trkpt lat="45.73921" lon="4.75051">
        <ele>263.54</ele>
        <time>2012-08-25T07:16:20Z</time>
      </trkpt>
      <trkpt lat="45.73918" lon="4.75048">
        <ele>264.02</ele>
        <time>2012-08-25T07:16:21Z</time>
      </trkpt>
      <trkpt lat="45.73914" lon="4.75048">
        <ele>264.02</ele>
        <time>2012-08-25T07:16:22Z</time>
      </trkpt>
      <trkpt lat="45.7391" lon="4.75049">
        <ele>264.5</ele>
        <time>2012-08-25T07:16:23Z</time>
      </trkpt>
      <trkpt lat="45.73906" lon="4.75052">
        <ele>264.5</ele>
        <time>2012-08-25T07:16:24Z</time>
      </trkpt>
      <trkpt lat="45.73875" lon="4.75082">
        <ele>265.94</ele>
        <time>2012-08-25T07:16:35Z</time>
      </trkpt>
      <trkpt lat="45.73875" lon="4.75086">
        <ele>266.42</ele>
        <time>2012-08-25T07:16:36Z</time>
      </trkpt>
      <trkpt lat="45.73877" lon="4.7509">
        <ele>266.42</ele>
        <time>2012-08-25T07:16:37Z</time>
      </trkpt>
      <trkpt lat="45.73915" lon="4.75163">
        <ele>264.5</ele>
        <time>2012-08-25T07:16:53Z</time>
      </trkpt>
      <trkpt lat="45.73931" lon="4.75187">
        <ele>265.46</ele>
        <time>2012-08-25T07:16:59Z</time>
      </trkpt>
      <trkpt lat="45.73935" lon="4.75189">
        <ele>264.98</ele>
        <time>2012-08-25T07:17:00Z</time>
      </trkpt>
      <trkpt lat="45.73939" lon="4.7519">
        <ele>265.46</ele>
        <time>2012-08-25T07:17:01Z</time>
      </trkpt>
      <trkpt lat="45.73967" lon="4.75196">
        <ele>265.94</ele>
        <time>2012-08-25T07:17:11Z</time>
      </trkpt>
      <trkpt lat="45.74" lon="4.75185">
        <ele>263.06</ele>
        <time>2012-08-25T07:17:21Z</time>
      </trkpt>
      <trkpt lat="45.74012" lon="4.75179">
        <ele>261.14</ele>
        <time>2012-08-25T07:17:25Z</time>
      </trkpt>
      <trkpt lat="45.74016" lon="4.75175">
        <ele>260.17</ele>
        <time>2012-08-25T07:17:27Z</time>
      </trkpt>
      <trkpt lat="45.74023" lon="4.75162">
        <ele>258.73</ele>
        <time>2012-08-25T07:17:31Z</time>
      </trkpt>
      <trkpt lat="45.74026" lon="4.75154">
        <ele>257.29</ele>
        <time>2012-08-25T07:17:33Z</time>
      </trkpt>
      <trkpt lat="45.74035" lon="4.75127">
        <ele>254.41</ele>
        <time>2012-08-25T07:17:41Z</time>
      </trkpt>
      <trkpt lat="45.74036" lon="4.75121">
        <ele>253.44</ele>
        <time>2012-08-25T07:17:43Z</time>
      </trkpt>
      <trkpt lat="45.74045" lon="4.75115">
        <ele>250.08</ele>
        <time>2012-08-25T07:17:54Z</time>
      </trkpt>
      <trkpt lat="45.74048" lon="4.75141">
        <ele>246.72</ele>
        <time>2012-08-25T07:18:03Z</time>
      </trkpt>
      <trkpt lat="45.74049" lon="4.75155">
        <ele>245.27</ele>
        <time>2012-08-25T07:18:06Z</time>
      </trkpt>
      <trkpt lat="45.74049" lon="4.7518">
        <ele>241.43</ele>
        <time>2012-08-25T07:18:15Z</time>
      </trkpt>
      <trkpt lat="45.74057" lon="4.75177">
        <ele>239.99</ele>
        <time>2012-08-25T07:18:20Z</time>
      </trkpt>
      <trkpt lat="45.74074" lon="4.7515">
        <ele>235.66</ele>
        <time>2012-08-25T07:18:28Z</time>
      </trkpt>
      <trkpt lat="45.74083" lon="4.7513">
        <ele>232.78</ele>
        <time>2012-08-25T07:18:34Z</time>
      </trkpt>
      <trkpt lat="45.74088" lon="4.75106">
        <ele>229.41</ele>
        <time>2012-08-25T07:18:41Z</time>
      </trkpt>
      <trkpt lat="45.7409" lon="4.751">
        <ele>228.93</ele>
        <time>2012-08-25T07:18:46Z</time>
      </trkpt>
      <trkpt lat="45.74092" lon="4.75111">
        <ele>226.53</ele>
        <time>2012-08-25T07:18:54Z</time>
      </trkpt>
      <trkpt lat="45.74094" lon="4.75121">
        <ele>225.09</ele>
        <time>2012-08-25T07:19:07Z</time>
      </trkpt>
      <trkpt lat="45.74097" lon="4.75126">
        <ele>225.57</ele>
        <time>2012-08-25T07:19:23Z</time>
      </trkpt>
      <trkpt lat="45.741" lon="4.75136">
        <ele>224.12</ele>
        <time>2012-08-25T07:19:36Z</time>
      </trkpt>
      <trkpt lat="45.741" lon="4.75158">
        <ele>222.68</ele>
        <time>2012-08-25T07:19:45Z</time>
      </trkpt>
      <trkpt lat="45.74099" lon="4.75164">
        <ele>220.76</ele>
        <time>2012-08-25T07:19:48Z</time>
      </trkpt>
      <trkpt lat="45.74099" lon="4.75178">
        <ele>218.36</ele>
        <time>2012-08-25T07:19:52Z</time>
      </trkpt>
      <trkpt lat="45.74103" lon="4.75184">
        <ele>217.4</ele>
        <time>2012-08-25T07:19:55Z</time>
      </trkpt>
      <trkpt lat="45.74113" lon="4.75194">
        <ele>215.47</ele>
        <time>2012-08-25T07:20:11Z</time>
      </trkpt>
      <trkpt lat="45.74104" lon="4.75184">
        <ele>218.36</ele>
        <time>2012-08-25T07:20:21Z</time>
      </trkpt>
      <trkpt lat="45.74107" lon="4.75177">
        <ele>218.84</ele>
        <time>2012-08-25T07:20:29Z</time>
      </trkpt>
      <trkpt lat="45.74111" lon="4.75166">
        <ele>218.36</ele>
        <time>2012-08-25T07:20:38Z</time>
      </trkpt>
      <trkpt lat="45.7411" lon="4.7515">
        <ele>216.91</ele>
        <time>2012-08-25T07:20:51Z</time>
      </trkpt>
      <trkpt lat="45.74108" lon="4.7513">
        <ele>217.88</ele>
        <time>2012-08-25T07:21:01Z</time>
      </trkpt>
      <trkpt lat="45.74109" lon="4.75117">
        <ele>217.4</ele>
        <time>2012-08-25T07:21:13Z</time>
      </trkpt>
      <trkpt lat="45.74118" lon="4.75097">
        <ele>215.47</ele>
        <time>2012-08-25T07:21:23Z</time>
      </trkpt>
      <trkpt lat="45.74122" lon="4.75087">
        <ele>214.51</ele>
        <time>2012-08-25T07:21:28Z</time>
      </trkpt>
      <trkpt lat="45.7413" lon="4.75064">
        <ele>214.99</ele>
        <time>2012-08-25T07:21:40Z</time>
      </trkpt>
      <trkpt lat="45.74133" lon="4.75051">
        <ele>214.51</ele>
        <time>2012-08-25T07:21:53Z</time>
      </trkpt>
      <trkpt lat="45.74132" lon="4.75039">
        <ele>214.99</ele>
        <time>2012-08-25T07:22:06Z</time>
      </trkpt>
      <trkpt lat="45.74133" lon="4.75023">
        <ele>214.99</ele>
        <time>2012-08-25T07:22:20Z</time>
      </trkpt>
      <trkpt lat="45.74133" lon="4.75014">
        <ele>214.99</ele>
        <time>2012-08-25T07:22:35Z</time>
      </trkpt>
      <trkpt lat="45.74131" lon="4.75008">
        <ele>215.47</ele>
        <time>2012-08-25T07:22:52Z</time>
      </trkpt>
      <trkpt lat="45.7413" lon="4.75003">
        <ele>214.99</ele>
        <time>2012-08-25T07:23:07Z</time>
      </trkpt>
      <trkpt lat="45.74133" lon="4.74995">
        <ele>215.47</ele>
        <time>2012-08-25T07:23:18Z</time>
      </trkpt>
      <trkpt lat="45.74137" lon="4.74984">
        <ele>216.91</ele>
        <time>2012-08-25T07:23:30Z</time>
      </trkpt>
      <trkpt lat="45.74138" lon="4.74983">
        <ele>217.4</ele>
        <time>2012-08-25T07:23:31Z</time>
      </trkpt>
      <trkpt lat="45.74147" lon="4.74976">
        <ele>217.4</ele>
        <time>2012-08-25T07:23:37Z</time>
      </trkpt>
      <trkpt lat="45.74156" lon="4.74966">
        <ele>217.88</ele>
        <time>2012-08-25T07:23:49Z</time>
      </trkpt>
      <trkpt lat="45.74157" lon="4.74965">
        <ele>217.4</ele>
        <time>2012-08-25T07:23:55Z</time>
      </trkpt>
      <trkpt lat="45.74163" lon="4.74959">
        <ele>217.4</ele>
        <time>2012-08-25T07:24:00Z</time>
      </trkpt>
      <trkpt lat="45.74179" lon="4.74943">
        <ele>219.8</ele>
        <time>2012-08-25T07:24:11Z</time>
      </trkpt>
      <trkpt lat="45.74194" lon="4.74921">
        <ele>219.8</ele>
        <time>2012-08-25T07:24:24Z</time>
      </trkpt>
      <trkpt lat="45.74202" lon="4.74913">
        <ele>219.8</ele>
        <time>2012-08-25T07:24:29Z</time>
      </trkpt>
      <trkpt lat="45.74226" lon="4.74902">
        <ele>218.84</ele>
        <time>2012-08-25T07:24:40Z</time>
      </trkpt>
      <trkpt lat="45.74244" lon="4.74872">
        <ele>220.76</ele>
        <time>2012-08-25T07:24:52Z</time>
      </trkpt>
      <trkpt lat="45.74264" lon="4.74851">
        <ele>222.68</ele>
        <time>2012-08-25T07:25:03Z</time>
      </trkpt>
      <trkpt lat="45.74273" lon="4.74848">
        <ele>221.24</ele>
        <time>2012-08-25T07:25:09Z</time>
      </trkpt>
      <trkpt lat="45.74278" lon="4.74853">
        <ele>219.8</ele>
        <time>2012-08-25T07:25:12Z</time>
      </trkpt>
      <trkpt lat="45.74312" lon="4.74847">
        <ele>219.8</ele>
        <time>2012-08-25T07:25:25Z</time>
      </trkpt>
      <trkpt lat="45.74322" lon="4.74835">
        <ele>219.32</ele>
        <time>2012-08-25T07:25:37Z</time>
      </trkpt>
      <trkpt lat="45.74341" lon="4.74819">
        <ele>220.28</ele>
        <time>2012-08-25T07:25:47Z</time>
      </trkpt>
      <trkpt lat="45.74349" lon="4.74807">
        <ele>221.24</ele>
        <time>2012-08-25T07:25:58Z</time>
      </trkpt>
      <trkpt lat="45.74357" lon="4.74796">
        <ele>221.72</ele>
        <time>2012-08-25T07:26:11Z</time>
      </trkpt>
      <trkpt lat="45.74373" lon="4.74773">
        <ele>222.2</ele>
        <time>2012-08-25T07:26:20Z</time>
      </trkpt>
      <trkpt lat="45.74381" lon="4.7476">
        <ele>222.68</ele>
        <time>2012-08-25T07:26:25Z</time>
      </trkpt>
      <trkpt lat="45.74381" lon="4.74744">
        <ele>222.68</ele>
        <time>2012-08-25T07:26:32Z</time>
      </trkpt>
      <trkpt lat="45.74379" lon="4.74725">
        <ele>222.2</ele>
        <time>2012-08-25T07:26:44Z</time>
      </trkpt>
      <trkpt lat="45.74377" lon="4.74713">
        <ele>223.64</ele>
        <time>2012-08-25T07:26:58Z</time>
      </trkpt>
      <trkpt lat="45.74375" lon="4.74706">
        <ele>223.16</ele>
        <time>2012-08-25T07:27:06Z</time>
      </trkpt>
      <trkpt lat="45.74365" lon="4.74684">
        <ele>223.64</ele>
        <time>2012-08-25T07:27:15Z</time>
      </trkpt>
      <trkpt lat="45.7436" lon="4.74666">
        <ele>223.64</ele>
        <time>2012-08-25T07:27:25Z</time>
      </trkpt>
      <trkpt lat="45.7436" lon="4.7465">
        <ele>223.64</ele>
        <time>2012-08-25T07:27:52Z</time>
      </trkpt>
      <trkpt lat="45.74358" lon="4.74647">
        <ele>223.64</ele>
        <time>2012-08-25T07:28:13Z</time>
      </trkpt>
      <trkpt lat="45.74348" lon="4.74645">
        <ele>225.09</ele>
        <time>2012-08-25T07:28:37Z</time>
      </trkpt>
      <trkpt lat="45.74345" lon="4.7464">
        <ele>226.53</ele>
        <time>2012-08-25T07:28:42Z</time>
      </trkpt>
      <trkpt lat="45.74344" lon="4.74636">
        <ele>227.01</ele>
        <time>2012-08-25T07:28:45Z</time>
      </trkpt>
      <trkpt lat="45.74335" lon="4.7462">
        <ele>230.37</ele>
        <time>2012-08-25T07:28:56Z</time>
      </trkpt>
      <trkpt lat="45.74325" lon="4.74596">
        <ele>233.26</ele>
        <time>2012-08-25T07:29:09Z</time>
      </trkpt>
      <trkpt lat="45.74317" lon="4.74575">
        <ele>234.7</ele>
        <time>2012-08-25T07:29:23Z</time>
      </trkpt>
      <trkpt lat="45.74316" lon="4.74562">
        <ele>235.18</ele>
        <time>2012-08-25T07:29:31Z</time>
      </trkpt>
      <trkpt lat="45.74314" lon="4.74536">
        <ele>237.58</ele>
        <time>2012-08-25T07:29:44Z</time>
      </trkpt>
      <trkpt lat="45.74315" lon="4.7452">
        <ele>240.95</ele>
        <time>2012-08-25T07:29:52Z</time>
      </trkpt>
      <trkpt lat="45.74319" lon="4.74488">
        <ele>243.35</ele>
        <time>2012-08-25T07:30:04Z</time>
      </trkpt>
      <trkpt lat="45.74315" lon="4.74464">
        <ele>246.72</ele>
        <time>2012-08-25T07:30:17Z</time>
      </trkpt>
      <trkpt lat="45.74313" lon="4.74463">
        <ele>246.72</ele>
        <time>2012-08-25T07:30:30Z</time>
      </trkpt>
      <trkpt lat="45.74309" lon="4.7446">
        <ele>243.83</ele>
        <time>2012-08-25T07:30:56Z</time>
      </trkpt>
      <trkpt lat="45.74309" lon="4.7446">
        <ele>248.64</ele>
        <time>2012-08-25T07:30:57Z</time>
      </trkpt>
      <trkpt lat="45.74309" lon="4.74461">
        <ele>246.23</ele>
        <time>2012-08-25T07:31:20Z</time>
      </trkpt>
      <trkpt lat="45.74313" lon="4.74463">
        <ele>246.72</ele>
        <time>2012-08-25T07:31:43Z</time>
      </trkpt>
      <trkpt lat="45.74313" lon="4.74467">
        <ele>246.72</ele>
        <time>2012-08-25T07:32:15Z</time>
      </trkpt>
      <trkpt lat="45.7431" lon="4.74467">
        <ele>247.2</ele>
        <time>2012-08-25T07:32:44Z</time>
      </trkpt>
      <trkpt lat="45.7431" lon="4.74473">
        <ele>247.2</ele>
        <time>2012-08-25T07:33:02Z</time>
      </trkpt>
      <trkpt lat="45.7431" lon="4.74468">
        <ele>247.2</ele>
        <time>2012-08-25T07:33:27Z</time>
      </trkpt>
      <trkpt lat="45.74312" lon="4.7447">
        <ele>247.2</ele>
        <time>2012-08-25T07:33:52Z</time>
      </trkpt>
      <trkpt lat="45.74309" lon="4.74483">
        <ele>253.44</ele>
        <time>2012-08-25T07:34:04Z</time>
      </trkpt>
      <trkpt lat="45.74306" lon="4.74488">
        <ele>251.52</ele>
        <time>2012-08-25T07:34:18Z</time>
      </trkpt>
      <trkpt lat="45.74304" lon="4.74487">
        <ele>251.52</ele>
        <time>2012-08-25T07:34:29Z</time>
      </trkpt>
      <trkpt lat="45.7429" lon="4.74483">
        <ele>255.37</ele>
        <time>2012-08-25T07:34:40Z</time>
      </trkpt>
      <trkpt lat="45.74273" lon="4.7449">
        <ele>258.73</ele>
        <time>2012-08-25T07:34:50Z</time>
      </trkpt>
      <trkpt lat="45.74266" lon="4.74498">
        <ele>260.17</ele>
        <time>2012-08-25T07:35:00Z</time>
      </trkpt>
      <trkpt lat="45.7426" lon="4.74507">
        <ele>261.62</ele>
        <time>2012-08-25T07:35:16Z</time>
      </trkpt>
      <trkpt lat="45.74255" lon="4.74515">
        <ele>264.02</ele>
        <time>2012-08-25T07:35:30Z</time>
      </trkpt>
      <trkpt lat="45.7425" lon="4.74527">
        <ele>264.98</ele>
        <time>2012-08-25T07:35:48Z</time>
      </trkpt>
      <trkpt lat="45.74243" lon="4.74543">
        <ele>266.42</ele>
        <time>2012-08-25T07:36:03Z</time>
      </trkpt>
      <trkpt lat="45.74238" lon="4.74555">
        <ele>267.38</ele>
        <time>2012-08-25T07:36:17Z</time>
      </trkpt>
      <trkpt lat="45.74237" lon="4.74555">
        <ele>266.9</ele>
        <time>2012-08-25T07:36:33Z</time>
      </trkpt>
      <trkpt lat="45.74236" lon="4.7456">
        <ele>267.86</ele>
        <time>2012-08-25T07:36:52Z</time>
      </trkpt>
      <trkpt lat="45.74235" lon="4.74563">
        <ele>267.86</ele>
        <time>2012-08-25T07:36:54Z</time>
      </trkpt>
      <trkpt lat="45.7423" lon="4.74574">
        <ele>267.86</ele>
        <time>2012-08-25T07:37:00Z</time>
      </trkpt>
      <trkpt lat="45.74216" lon="4.74611">
        <ele>267.38</ele>
        <time>2012-08-25T07:37:16Z</time>
      </trkpt>
      <trkpt lat="45.74182" lon="4.74642">
        <ele>267.86</ele>
        <time>2012-08-25T07:37:32Z</time>
      </trkpt>
      <trkpt lat="45.74144" lon="4.74658">
        <ele>269.31</ele>
        <time>2012-08-25T07:37:48Z</time>
      </trkpt>
      <trkpt lat="45.74105" lon="4.74686">
        <ele>270.27</ele>
        <time>2012-08-25T07:38:04Z</time>
      </trkpt>
      <trkpt lat="45.74056" lon="4.74719">
        <ele>268.35</ele>
        <time>2012-08-25T07:38:20Z</time>
      </trkpt>
      <trkpt lat="45.74007" lon="4.74748">
        <ele>268.83</ele>
        <time>2012-08-25T07:38:35Z</time>
      </trkpt>
      <trkpt lat="45.73956" lon="4.74768">
        <ele>268.83</ele>
        <time>2012-08-25T07:38:49Z</time>
      </trkpt>
      <trkpt lat="45.73895" lon="4.7477">
        <ele>268.35</ele>
        <time>2012-08-25T07:39:06Z</time>
      </trkpt>
      <trkpt lat="45.73852" lon="4.74789">
        <ele>268.83</ele>
        <time>2012-08-25T07:39:18Z</time>
      </trkpt>
      <trkpt lat="45.73824" lon="4.7481">
        <ele>269.79</ele>
        <time>2012-08-25T07:39:27Z</time>
      </trkpt>
      <trkpt lat="45.73822" lon="4.74809">
        <ele>270.27</ele>
        <time>2012-08-25T07:39:28Z</time>
      </trkpt>
      <trkpt lat="45.73821" lon="4.74807">
        <ele>270.27</ele>
        <time>2012-08-25T07:39:29Z</time>
      </trkpt>
      <trkpt lat="45.7382" lon="4.74804">
        <ele>270.27</ele>
        <time>2012-08-25T07:39:30Z</time>
      </trkpt>
      <trkpt lat="45.73819" lon="4.74801">
        <ele>270.27</ele>
        <time>2012-08-25T07:39:31Z</time>
      </trkpt>
      <trkpt lat="45.73819" lon="4.74798">
        <ele>271.23</ele>
        <time>2012-08-25T07:39:32Z</time>
      </trkpt>
      <trkpt lat="45.73819" lon="4.74795">
        <ele>271.23</ele>
        <time>2012-08-25T07:39:33Z</time>
      </trkpt>
      <trkpt lat="45.73819" lon="4.74792">
        <ele>271.23</ele>
        <time>2012-08-25T07:39:34Z</time>
      </trkpt>
      <trkpt lat="45.73819" lon="4.74788">
        <ele>271.71</ele>
        <time>2012-08-25T07:39:35Z</time>
      </trkpt>
      <trkpt lat="45.7382" lon="4.74739">
        <ele>274.59</ele>
        <time>2012-08-25T07:39:51Z</time>
      </trkpt>
      <trkpt lat="45.73821" lon="4.74696">
        <ele>278.44</ele>
        <time>2012-08-25T07:40:05Z</time>
      </trkpt>
      <trkpt lat="45.73824" lon="4.74651">
        <ele>280.84</ele>
        <time>2012-08-25T07:40:22Z</time>
      </trkpt>
      <trkpt lat="45.73832" lon="4.74611">
        <ele>282.28</ele>
        <time>2012-08-25T07:40:39Z</time>
      </trkpt>
      <trkpt lat="45.73842" lon="4.74559">
        <ele>283.25</ele>
        <time>2012-08-25T07:40:56Z</time>
      </trkpt>
      <trkpt lat="45.73838" lon="4.74503">
        <ele>283.73</ele>
        <time>2012-08-25T07:41:12Z</time>
      </trkpt>
      <trkpt lat="45.7383" lon="4.74467">
        <ele>283.73</ele>
        <time>2012-08-25T07:41:25Z</time>
      </trkpt>
      <trkpt lat="45.73814" lon="4.74403">
        <ele>281.8</ele>
        <time>2012-08-25T07:41:41Z</time>
      </trkpt>
      <trkpt lat="45.73773" lon="4.74351">
        <ele>278.92</ele>
        <time>2012-08-25T07:41:51Z</time>
      </trkpt>
      <trkpt lat="45.73762" lon="4.74342">
        <ele>277.96</ele>
        <time>2012-08-25T07:41:53Z</time>
      </trkpt>
      <trkpt lat="45.73757" lon="4.74338">
        <ele>277.96</ele>
        <time>2012-08-25T07:41:54Z</time>
      </trkpt>
      <trkpt lat="45.73751" lon="4.74334">
        <ele>277.48</ele>
        <time>2012-08-25T07:41:55Z</time>
      </trkpt>
      <trkpt lat="45.73717" lon="4.7431">
        <ele>276.52</ele>
        <time>2012-08-25T07:42:01Z</time>
      </trkpt>
      <trkpt lat="45.73712" lon="4.74305">
        <ele>276.52</ele>
        <time>2012-08-25T07:42:02Z</time>
      </trkpt>
      <trkpt lat="45.73708" lon="4.743">
        <ele>276.52</ele>
        <time>2012-08-25T07:42:03Z</time>
      </trkpt>
      <trkpt lat="45.73705" lon="4.74294">
        <ele>276.52</ele>
        <time>2012-08-25T07:42:04Z</time>
      </trkpt>
      <trkpt lat="45.73704" lon="4.74289">
        <ele>276.04</ele>
        <time>2012-08-25T07:42:05Z</time>
      </trkpt>
      <trkpt lat="45.73705" lon="4.74283">
        <ele>276.04</ele>
        <time>2012-08-25T07:42:06Z</time>
      </trkpt>
      <trkpt lat="45.73708" lon="4.74278">
        <ele>276.04</ele>
        <time>2012-08-25T07:42:07Z</time>
      </trkpt>
      <trkpt lat="45.73711" lon="4.74273">
        <ele>276.52</ele>
        <time>2012-08-25T07:42:08Z</time>
      </trkpt>
      <trkpt lat="45.73714" lon="4.74269">
        <ele>276.52</ele>
        <time>2012-08-25T07:42:09Z</time>
      </trkpt>
      <trkpt lat="45.73732" lon="4.74258">
        <ele>278.92</ele>
        <time>2012-08-25T07:42:14Z</time>
      </trkpt>
      <trkpt lat="45.73761" lon="4.74237">
        <ele>281.8</ele>
        <time>2012-08-25T07:42:25Z</time>
      </trkpt>
      <trkpt lat="45.73781" lon="4.74204">
        <ele>284.69</ele>
        <time>2012-08-25T07:42:39Z</time>
      </trkpt>
      <trkpt lat="45.73798" lon="4.74168">
        <ele>286.61</ele>
        <time>2012-08-25T07:42:52Z</time>
      </trkpt>
      <trkpt lat="45.73811" lon="4.74126">
        <ele>288.05</ele>
        <time>2012-08-25T07:43:07Z</time>
      </trkpt>
      <trkpt lat="45.73828" lon="4.74078">
        <ele>286.61</ele>
        <time>2012-08-25T07:43:19Z</time>
      </trkpt>
      <trkpt lat="45.73844" lon="4.74024">
        <ele>284.21</ele>
        <time>2012-08-25T07:43:28Z</time>
      </trkpt>
      <trkpt lat="45.73851" lon="4.74006">
        <ele>284.69</ele>
        <time>2012-08-25T07:43:31Z</time>
      </trkpt>
      <trkpt lat="45.73854" lon="4.74001">
        <ele>284.21</ele>
        <time>2012-08-25T07:43:32Z</time>
      </trkpt>
      <trkpt lat="45.73892" lon="4.73938">
        <ele>283.73</ele>
        <time>2012-08-25T07:43:46Z</time>
      </trkpt>
      <trkpt lat="45.73895" lon="4.7393">
        <ele>282.77</ele>
        <time>2012-08-25T07:43:50Z</time>
      </trkpt>
      <trkpt lat="45.73895" lon="4.73928">
        <ele>283.25</ele>
        <time>2012-08-25T07:43:51Z</time>
      </trkpt>
      <trkpt lat="45.73894" lon="4.73919">
        <ele>283.73</ele>
        <time>2012-08-25T07:43:56Z</time>
      </trkpt>
      <trkpt lat="45.73893" lon="4.73917">
        <ele>283.73</ele>
        <time>2012-08-25T07:43:57Z</time>
      </trkpt>
      <trkpt lat="45.73891" lon="4.73917">
        <ele>283.73</ele>
        <time>2012-08-25T07:43:59Z</time>
      </trkpt>
      <trkpt lat="45.7389" lon="4.73917">
        <ele>283.73</ele>
        <time>2012-08-25T07:44:00Z</time>
      </trkpt>
      <trkpt lat="45.73889" lon="4.73918">
        <ele>283.25</ele>
        <time>2012-08-25T07:44:01Z</time>
      </trkpt>
      <trkpt lat="45.73886" lon="4.73919">
        <ele>283.73</ele>
        <time>2012-08-25T07:44:04Z</time>
      </trkpt>
      <trkpt lat="45.73868" lon="4.73927">
        <ele>284.69</ele>
        <time>2012-08-25T07:44:17Z</time>
      </trkpt>
      <trkpt lat="45.73861" lon="4.73931">
        <ele>285.65</ele>
        <time>2012-08-25T07:44:23Z</time>
      </trkpt>
      <trkpt lat="45.73836" lon="4.73934">
        <ele>287.57</ele>
        <time>2012-08-25T07:44:40Z</time>
      </trkpt>
      <trkpt lat="45.73818" lon="4.73929">
        <ele>289.49</ele>
        <time>2012-08-25T07:44:54Z</time>
      </trkpt>
      <trkpt lat="45.73815" lon="4.73931">
        <ele>289.97</ele>
        <time>2012-08-25T07:44:57Z</time>
      </trkpt>
      <trkpt lat="45.73795" lon="4.73934">
        <ele>292.38</ele>
        <time>2012-08-25T07:45:12Z</time>
      </trkpt>
      <trkpt lat="45.73781" lon="4.73936">
        <ele>295.26</ele>
        <time>2012-08-25T07:45:24Z</time>
      </trkpt>
      <trkpt lat="45.73776" lon="4.73934">
        <ele>296.22</ele>
        <time>2012-08-25T07:45:28Z</time>
      </trkpt>
      <trkpt lat="45.73752" lon="4.7393">
        <ele>298.63</ele>
        <time>2012-08-25T07:45:46Z</time>
      </trkpt>
      <trkpt lat="45.73733" lon="4.73933">
        <ele>301.51</ele>
        <time>2012-08-25T07:46:02Z</time>
      </trkpt>
      <trkpt lat="45.73724" lon="4.73932">
        <ele>302.95</ele>
        <time>2012-08-25T07:46:10Z</time>
      </trkpt>
      <trkpt lat="45.7372" lon="4.73934">
        <ele>303.43</ele>
        <time>2012-08-25T07:46:14Z</time>
      </trkpt>
      <trkpt lat="45.73713" lon="4.73932">
        <ele>303.91</ele>
        <time>2012-08-25T07:46:19Z</time>
      </trkpt>
      <trkpt lat="45.73693" lon="4.7393">
        <ele>306.8</ele>
        <time>2012-08-25T07:46:35Z</time>
      </trkpt>
      <trkpt lat="45.73691" lon="4.73928">
        <ele>307.28</ele>
        <time>2012-08-25T07:46:37Z</time>
      </trkpt>
      <trkpt lat="45.73686" lon="4.73922">
        <ele>307.28</ele>
        <time>2012-08-25T07:46:42Z</time>
      </trkpt>
      <trkpt lat="45.73684" lon="4.73922">
        <ele>307.76</ele>
        <time>2012-08-25T07:46:44Z</time>
      </trkpt>
      <trkpt lat="45.73682" lon="4.7392">
        <ele>308.24</ele>
        <time>2012-08-25T07:46:46Z</time>
      </trkpt>
      <trkpt lat="45.73667" lon="4.73913">
        <ele>309.68</ele>
        <time>2012-08-25T07:46:59Z</time>
      </trkpt>
      <trkpt lat="45.73647" lon="4.73902">
        <ele>312.09</ele>
        <time>2012-08-25T07:47:15Z</time>
      </trkpt>
      <trkpt lat="45.73628" lon="4.73894">
        <ele>312.57</ele>
        <time>2012-08-25T07:47:30Z</time>
      </trkpt>
      <trkpt lat="45.73626" lon="4.73891">
        <ele>313.05</ele>
        <time>2012-08-25T07:47:48Z</time>
      </trkpt>
      <trkpt lat="45.73624" lon="4.73889">
        <ele>313.05</ele>
        <time>2012-08-25T07:48:18Z</time>
      </trkpt>
      <trkpt lat="45.73624" lon="4.73889">
        <ele>313.05</ele>
        <time>2012-08-25T07:48:44Z</time>
      </trkpt>
      <trkpt lat="45.73624" lon="4.73894">
        <ele>313.05</ele>
        <time>2012-08-25T07:49:07Z</time>
      </trkpt>
      <trkpt lat="45.73624" lon="4.73894">
        <ele>313.53</ele>
        <time>2012-08-25T07:49:28Z</time>
      </trkpt>
      <trkpt lat="45.73624" lon="4.73896">
        <ele>313.53</ele>
        <time>2012-08-25T07:49:47Z</time>
      </trkpt>
      <trkpt lat="45.73624" lon="4.73894">
        <ele>313.53</ele>
        <time>2012-08-25T07:50:11Z</time>
      </trkpt>
      <trkpt lat="45.73625" lon="4.73891">
        <ele>314.01</ele>
        <time>2012-08-25T07:50:39Z</time>
      </trkpt>
      <trkpt lat="45.73625" lon="4.7389">
        <ele>314.01</ele>
        <time>2012-08-25T07:51:00Z</time>
      </trkpt>
      <trkpt lat="45.73625" lon="4.73894">
        <ele>313.53</ele>
        <time>2012-08-25T07:51:31Z</time>
      </trkpt>
      <trkpt lat="45.73626" lon="4.73895">
        <ele>314.49</ele>
        <time>2012-08-25T07:52:05Z</time>
      </trkpt>
      <trkpt lat="45.73622" lon="4.7389">
        <ele>314.97</ele>
        <time>2012-08-25T07:52:35Z</time>
      </trkpt>
      <trkpt lat="45.73622" lon="4.73892">
        <ele>315.45</ele>
        <time>2012-08-25T07:52:52Z</time>
      </trkpt>
      <trkpt lat="45.73622" lon="4.73898">
        <ele>314.97</ele>
        <time>2012-08-25T07:52:56Z</time>
      </trkpt>
      <trkpt lat="45.73626" lon="4.73919">
        <ele>316.41</ele>
        <time>2012-08-25T07:53:06Z</time>
      </trkpt>
      <trkpt lat="45.73627" lon="4.7392">
        <ele>315.45</ele>
        <time>2012-08-25T07:53:07Z</time>
      </trkpt>
      <trkpt lat="45.73628" lon="4.73924">
        <ele>315.93</ele>
        <time>2012-08-25T07:53:09Z</time>
      </trkpt>
      <trkpt lat="45.7363" lon="4.73932">
        <ele>315.93</ele>
        <time>2012-08-25T07:53:12Z</time>
      </trkpt>
      <trkpt lat="45.73641" lon="4.73954">
        <ele>314.49</ele>
        <time>2012-08-25T07:53:23Z</time>
      </trkpt>
      <trkpt lat="45.7364" lon="4.73977">
        <ele>314.49</ele>
        <time>2012-08-25T07:53:35Z</time>
      </trkpt>
      <trkpt lat="45.7364" lon="4.73979">
        <ele>314.49</ele>
        <time>2012-08-25T07:53:36Z</time>
      </trkpt>
      <trkpt lat="45.73642" lon="4.74">
        <ele>313.53</ele>
        <time>2012-08-25T07:53:46Z</time>
      </trkpt>
      <trkpt lat="45.73634" lon="4.74035">
        <ele>314.49</ele>
        <time>2012-08-25T07:53:59Z</time>
      </trkpt>
      <trkpt lat="45.73633" lon="4.74037">
        <ele>314.49</ele>
        <time>2012-08-25T07:54:01Z</time>
      </trkpt>
      <trkpt lat="45.73626" lon="4.74052">
        <ele>314.97</ele>
        <time>2012-08-25T07:54:10Z</time>
      </trkpt>
      <trkpt lat="45.73621" lon="4.74066">
        <ele>314.49</ele>
        <time>2012-08-25T07:54:21Z</time>
      </trkpt>
      <trkpt lat="45.73612" lon="4.74085">
        <ele>314.49</ele>
        <time>2012-08-25T07:54:37Z</time>
      </trkpt>
      <trkpt lat="45.73611" lon="4.74087">
        <ele>314.01</ele>
        <time>2012-08-25T07:54:38Z</time>
      </trkpt>
      <trkpt lat="45.7361" lon="4.74091">
        <ele>314.01</ele>
        <time>2012-08-25T07:54:40Z</time>
      </trkpt>
      <trkpt lat="45.73612" lon="4.74097">
        <ele>313.53</ele>
        <time>2012-08-25T07:54:43Z</time>
      </trkpt>
      <trkpt lat="45.73618" lon="4.741">
        <ele>313.05</ele>
        <time>2012-08-25T07:54:46Z</time>
      </trkpt>
      <trkpt lat="45.73625" lon="4.74109">
        <ele>311.12</ele>
        <time>2012-08-25T07:54:50Z</time>
      </trkpt>
      <trkpt lat="45.73634" lon="4.74117">
        <ele>308.72</ele>
        <time>2012-08-25T07:54:55Z</time>
      </trkpt>
      <trkpt lat="45.73637" lon="4.74121">
        <ele>307.76</ele>
        <time>2012-08-25T07:54:57Z</time>
      </trkpt>
      <trkpt lat="45.73638" lon="4.74123">
        <ele>307.76</ele>
        <time>2012-08-25T07:54:58Z</time>
      </trkpt>
      <trkpt lat="45.73643" lon="4.74127">
        <ele>306.32</ele>
        <time>2012-08-25T07:55:01Z</time>
      </trkpt>
      <trkpt lat="45.73651" lon="4.74129">
        <ele>304.88</ele>
        <time>2012-08-25T07:55:05Z</time>
      </trkpt>
      <trkpt lat="45.73653" lon="4.7413">
        <ele>304.39</ele>
        <time>2012-08-25T07:55:06Z</time>
      </trkpt>
      <trkpt lat="45.73664" lon="4.74141">
        <ele>301.99</ele>
        <time>2012-08-25T07:55:11Z</time>
      </trkpt>
      <trkpt lat="45.73683" lon="4.74148">
        <ele>299.59</ele>
        <time>2012-08-25T07:55:17Z</time>
      </trkpt>
      <trkpt lat="45.73698" lon="4.74145">
        <ele>299.11</ele>
        <time>2012-08-25T07:55:23Z</time>
      </trkpt>
      <trkpt lat="45.73706" lon="4.7415">
        <ele>298.15</ele>
        <time>2012-08-25T07:55:27Z</time>
      </trkpt>
      <trkpt lat="45.73728" lon="4.74139">
        <ele>296.22</ele>
        <time>2012-08-25T07:55:39Z</time>
      </trkpt>
      <trkpt lat="45.73734" lon="4.74142">
        <ele>295.74</ele>
        <time>2012-08-25T07:55:44Z</time>
      </trkpt>
      <trkpt lat="45.7374" lon="4.74148">
        <ele>294.78</ele>
        <time>2012-08-25T07:55:48Z</time>
      </trkpt>
      <trkpt lat="45.7375" lon="4.7416">
        <ele>292.38</ele>
        <time>2012-08-25T07:55:55Z</time>
      </trkpt>
      <trkpt lat="45.73789" lon="4.74151">
        <ele>289.49</ele>
        <time>2012-08-25T07:56:06Z</time>
      </trkpt>
      <trkpt lat="45.73794" lon="4.74153">
        <ele>289.01</ele>
        <time>2012-08-25T07:56:09Z</time>
      </trkpt>
      <trkpt lat="45.73797" lon="4.74159">
        <ele>289.01</ele>
        <time>2012-08-25T07:56:15Z</time>
      </trkpt>
      <trkpt lat="45.73796" lon="4.74163">
        <ele>289.01</ele>
        <time>2012-08-25T07:56:16Z</time>
      </trkpt>
      <trkpt lat="45.73795" lon="4.74166">
        <ele>288.53</ele>
        <time>2012-08-25T07:56:17Z</time>
      </trkpt>
      <trkpt lat="45.73794" lon="4.7417">
        <ele>288.53</ele>
        <time>2012-08-25T07:56:18Z</time>
      </trkpt>
      <trkpt lat="45.73792" lon="4.74174">
        <ele>288.05</ele>
        <time>2012-08-25T07:56:19Z</time>
      </trkpt>
      <trkpt lat="45.7379" lon="4.7418">
        <ele>287.57</ele>
        <time>2012-08-25T07:56:20Z</time>
      </trkpt>
      <trkpt lat="45.73783" lon="4.74199">
        <ele>286.61</ele>
        <time>2012-08-25T07:56:23Z</time>
      </trkpt>
      <trkpt lat="45.7378" lon="4.74204">
        <ele>285.65</ele>
        <time>2012-08-25T07:56:24Z</time>
      </trkpt>
      <trkpt lat="45.73778" lon="4.74207">
        <ele>285.17</ele>
        <time>2012-08-25T07:56:25Z</time>
      </trkpt>
      <trkpt lat="45.73775" lon="4.74214">
        <ele>284.21</ele>
        <time>2012-08-25T07:56:35Z</time>
      </trkpt>
      <trkpt lat="45.73777" lon="4.7422">
        <ele>284.21</ele>
        <time>2012-08-25T07:56:48Z</time>
      </trkpt>
      <trkpt lat="45.73782" lon="4.74218">
        <ele>284.69</ele>
        <time>2012-08-25T07:57:02Z</time>
      </trkpt>
      <trkpt lat="45.73794" lon="4.74218">
        <ele>284.69</ele>
        <time>2012-08-25T07:57:18Z</time>
      </trkpt>
      <trkpt lat="45.73796" lon="4.74218">
        <ele>284.69</ele>
        <time>2012-08-25T07:57:21Z</time>
      </trkpt>
      <trkpt lat="45.7381" lon="4.74222">
        <ele>285.65</ele>
        <time>2012-08-25T07:57:28Z</time>
      </trkpt>
      <trkpt lat="45.73841" lon="4.74229">
        <ele>284.69</ele>
        <time>2012-08-25T07:57:40Z</time>
      </trkpt>
      <trkpt lat="45.73878" lon="4.74236">
        <ele>285.17</ele>
        <time>2012-08-25T07:57:51Z</time>
      </trkpt>
      <trkpt lat="45.73907" lon="4.74241">
        <ele>283.25</ele>
        <time>2012-08-25T07:58:01Z</time>
      </trkpt>
      <trkpt lat="45.73906" lon="4.74242">
        <ele>282.77</ele>
        <time>2012-08-25T07:58:34Z</time>
      </trkpt>
      <trkpt lat="45.73907" lon="4.74241">
        <ele>282.77</ele>
        <time>2012-08-25T07:59:11Z</time>
      </trkpt>
      <trkpt lat="45.73907" lon="4.74243">
        <ele>282.77</ele>
        <time>2012-08-25T07:59:46Z</time>
      </trkpt>
      <trkpt lat="45.7391" lon="4.74242">
        <ele>282.77</ele>
        <time>2012-08-25T08:00:18Z</time>
      </trkpt>
      <trkpt lat="45.73912" lon="4.74243">
        <ele>282.77</ele>
        <time>2012-08-25T08:00:22Z</time>
      </trkpt>
      <trkpt lat="45.73941" lon="4.7425">
        <ele>282.28</ele>
        <time>2012-08-25T08:00:36Z</time>
      </trkpt>
      <trkpt lat="45.73964" lon="4.74258">
        <ele>281.32</ele>
        <time>2012-08-25T08:00:50Z</time>
      </trkpt>
      <trkpt lat="45.73965" lon="4.7426">
        <ele>281.8</ele>
        <time>2012-08-25T08:01:01Z</time>
      </trkpt>
      <trkpt lat="45.73973" lon="4.74263">
        <ele>281.32</ele>
        <time>2012-08-25T08:01:05Z</time>
      </trkpt>
      <trkpt lat="45.73977" lon="4.74264">
        <ele>281.32</ele>
        <time>2012-08-25T08:01:08Z</time>
      </trkpt>
      <trkpt lat="45.74003" lon="4.74264">
        <ele>281.32</ele>
        <time>2012-08-25T08:01:16Z</time>
      </trkpt>
      <trkpt lat="45.74038" lon="4.74266">
        <ele>280.36</ele>
        <time>2012-08-25T08:01:27Z</time>
      </trkpt>
      <trkpt lat="45.74056" lon="4.74273">
        <ele>278.44</ele>
        <time>2012-08-25T08:01:32Z</time>
      </trkpt>
      <trkpt lat="45.7408" lon="4.74278">
        <ele>274.59</ele>
        <time>2012-08-25T08:01:39Z</time>
      </trkpt>
      <trkpt lat="45.74088" lon="4.7428">
        <ele>272.19</ele>
        <time>2012-08-25T08:01:43Z</time>
      </trkpt>
      <trkpt lat="45.74092" lon="4.7428">
        <ele>271.71</ele>
        <time>2012-08-25T08:01:45Z</time>
      </trkpt>
      <trkpt lat="45.74114" lon="4.74278">
        <ele>270.75</ele>
        <time>2012-08-25T08:01:59Z</time>
      </trkpt>
      <trkpt lat="45.74122" lon="4.74281">
        <ele>270.27</ele>
        <time>2012-08-25T08:02:20Z</time>
      </trkpt>
      <trkpt lat="45.74128" lon="4.74284">
        <ele>270.75</ele>
        <time>2012-08-25T08:02:47Z</time>
      </trkpt>
      <trkpt lat="45.74131" lon="4.74285">
        <ele>270.75</ele>
        <time>2012-08-25T08:03:05Z</time>
      </trkpt>
      <trkpt lat="45.74137" lon="4.7429">
        <ele>268.35</ele>
        <time>2012-08-25T08:03:10Z</time>
      </trkpt>
      <trkpt lat="45.74142" lon="4.74293">
        <ele>265.46</ele>
        <time>2012-08-25T08:03:21Z</time>
      </trkpt>
      <trkpt lat="45.74146" lon="4.74297">
        <ele>264.5</ele>
        <time>2012-08-25T08:03:37Z</time>
      </trkpt>
      <trkpt lat="45.74153" lon="4.74304">
        <ele>261.14</ele>
        <time>2012-08-25T08:03:46Z</time>
      </trkpt>
      <trkpt lat="45.74154" lon="4.74305">
        <ele>261.14</ele>
        <time>2012-08-25T08:03:47Z</time>
      </trkpt>
      <trkpt lat="45.74157" lon="4.74307">
        <ele>259.69</ele>
        <time>2012-08-25T08:03:50Z</time>
      </trkpt>
      <trkpt lat="45.74159" lon="4.74309">
        <ele>258.25</ele>
        <time>2012-08-25T08:03:52Z</time>
      </trkpt>
      <trkpt lat="45.74166" lon="4.74312">
        <ele>256.33</ele>
        <time>2012-08-25T08:03:58Z</time>
      </trkpt>
      <trkpt lat="45.74171" lon="4.74314">
        <ele>253.44</ele>
        <time>2012-08-25T08:04:03Z</time>
      </trkpt>
      <trkpt lat="45.74179" lon="4.74318">
        <ele>250.08</ele>
        <time>2012-08-25T08:04:09Z</time>
      </trkpt>
      <trkpt lat="45.74182" lon="4.74321">
        <ele>249.6</ele>
        <time>2012-08-25T08:04:11Z</time>
      </trkpt>
      <trkpt lat="45.74201" lon="4.74315">
        <ele>246.23</ele>
        <time>2012-08-25T08:04:20Z</time>
      </trkpt>
      <trkpt lat="45.74204" lon="4.74312">
        <ele>244.79</ele>
        <time>2012-08-25T08:04:24Z</time>
      </trkpt>
      <trkpt lat="45.74207" lon="4.74307">
        <ele>243.35</ele>
        <time>2012-08-25T08:04:27Z</time>
      </trkpt>
      <trkpt lat="45.74208" lon="4.74305">
        <ele>241.43</ele>
        <time>2012-08-25T08:04:29Z</time>
      </trkpt>
      <trkpt lat="45.74211" lon="4.74296">
        <ele>239.02</ele>
        <time>2012-08-25T08:04:43Z</time>
      </trkpt>
      <trkpt lat="45.74215" lon="4.74291">
        <ele>238.54</ele>
        <time>2012-08-25T08:04:58Z</time>
      </trkpt>
      <trkpt lat="45.74218" lon="4.7429">
        <ele>237.58</ele>
        <time>2012-08-25T08:05:22Z</time>
      </trkpt>
      <trkpt lat="45.74227" lon="4.74291">
        <ele>237.1</ele>
        <time>2012-08-25T08:05:48Z</time>
      </trkpt>
      <trkpt lat="45.74228" lon="4.74293">
        <ele>235.66</ele>
        <time>2012-08-25T08:06:02Z</time>
      </trkpt>
      <trkpt lat="45.74237" lon="4.74294">
        <ele>232.3</ele>
        <time>2012-08-25T08:06:06Z</time>
      </trkpt>
      <trkpt lat="45.74247" lon="4.74292">
        <ele>230.37</ele>
        <time>2012-08-25T08:06:08Z</time>
      </trkpt>
      <trkpt lat="45.74256" lon="4.74281">
        <ele>229.89</ele>
        <time>2012-08-25T08:06:11Z</time>
      </trkpt>
      <trkpt lat="45.74267" lon="4.74233">
        <ele>228.93</ele>
        <time>2012-08-25T08:06:24Z</time>
      </trkpt>
      <trkpt lat="45.74268" lon="4.74231">
        <ele>227.97</ele>
        <time>2012-08-25T08:06:33Z</time>
      </trkpt>
      <trkpt lat="45.74265" lon="4.74231">
        <ele>229.41</ele>
        <time>2012-08-25T08:07:03Z</time>
      </trkpt>
      <trkpt lat="45.74264" lon="4.74233">
        <ele>229.41</ele>
        <time>2012-08-25T08:07:25Z</time>
      </trkpt>
      <trkpt lat="45.74265" lon="4.74231">
        <ele>230.37</ele>
        <time>2012-08-25T08:07:54Z</time>
      </trkpt>
      <trkpt lat="45.74265" lon="4.7423">
        <ele>229.89</ele>
        <time>2012-08-25T08:08:01Z</time>
      </trkpt>
      <trkpt lat="45.74267" lon="4.74226">
        <ele>229.89</ele>
        <time>2012-08-25T08:08:04Z</time>
      </trkpt>
      <trkpt lat="45.74268" lon="4.74224">
        <ele>229.89</ele>
        <time>2012-08-25T08:08:05Z</time>
      </trkpt>
      <trkpt lat="45.7427" lon="4.74222">
        <ele>229.41</ele>
        <time>2012-08-25T08:08:06Z</time>
      </trkpt>
      <trkpt lat="45.74272" lon="4.74221">
        <ele>229.89</ele>
        <time>2012-08-25T08:08:07Z</time>
      </trkpt>
      <trkpt lat="45.74274" lon="4.7422">
        <ele>229.41</ele>
        <time>2012-08-25T08:08:08Z</time>
      </trkpt>
      <trkpt lat="45.74293" lon="4.74217">
        <ele>230.85</ele>
        <time>2012-08-25T08:08:18Z</time>
      </trkpt>
      <trkpt lat="45.74307" lon="4.7421">
        <ele>234.22</ele>
        <time>2012-08-25T08:08:27Z</time>
      </trkpt>
      <trkpt lat="45.74308" lon="4.74208">
        <ele>234.22</ele>
        <time>2012-08-25T08:08:28Z</time>
      </trkpt>
      <trkpt lat="45.74309" lon="4.74206">
        <ele>233.74</ele>
        <time>2012-08-25T08:08:29Z</time>
      </trkpt>
      <trkpt lat="45.7431" lon="4.74204">
        <ele>233.74</ele>
        <time>2012-08-25T08:08:30Z</time>
      </trkpt>
      <trkpt lat="45.74311" lon="4.74201">
        <ele>234.22</ele>
        <time>2012-08-25T08:08:31Z</time>
      </trkpt>
      <trkpt lat="45.74312" lon="4.74199">
        <ele>234.22</ele>
        <time>2012-08-25T08:08:32Z</time>
      </trkpt>
      <trkpt lat="45.74312" lon="4.74196">
        <ele>234.7</ele>
        <time>2012-08-25T08:08:33Z</time>
      </trkpt>
      <trkpt lat="45.74313" lon="4.74193">
        <ele>234.22</ele>
        <time>2012-08-25T08:08:34Z</time>
      </trkpt>
      <trkpt lat="45.74314" lon="4.74188">
        <ele>234.22</ele>
        <time>2012-08-25T08:08:37Z</time>
      </trkpt>
      <trkpt lat="45.74314" lon="4.74185">
        <ele>234.22</ele>
        <time>2012-08-25T08:08:38Z</time>
      </trkpt>
      <trkpt lat="45.74314" lon="4.74182">
        <ele>234.22</ele>
        <time>2012-08-25T08:08:39Z</time>
      </trkpt>
      <trkpt lat="45.74314" lon="4.74179">
        <ele>233.74</ele>
        <time>2012-08-25T08:08:40Z</time>
      </trkpt>
      <trkpt lat="45.74315" lon="4.74176">
        <ele>233.74</ele>
        <time>2012-08-25T08:08:41Z</time>
      </trkpt>
      <trkpt lat="45.74315" lon="4.74173">
        <ele>233.74</ele>
        <time>2012-08-25T08:08:42Z</time>
      </trkpt>
      <trkpt lat="45.74315" lon="4.7417">
        <ele>233.74</ele>
        <time>2012-08-25T08:08:43Z</time>
      </trkpt>
      <trkpt lat="45.74315" lon="4.74168">
        <ele>233.74</ele>
        <time>2012-08-25T08:08:44Z</time>
      </trkpt>
      <trkpt lat="45.74315" lon="4.74165">
        <ele>234.22</ele>
        <time>2012-08-25T08:08:45Z</time>
      </trkpt>
      <trkpt lat="45.74315" lon="4.7416">
        <ele>234.22</ele>
        <time>2012-08-25T08:08:46Z</time>
      </trkpt>
      <trkpt lat="45.74314" lon="4.74157">
        <ele>233.74</ele>
        <time>2012-08-25T08:08:47Z</time>
      </trkpt>
      <trkpt lat="45.74314" lon="4.74153">
        <ele>234.22</ele>
        <time>2012-08-25T08:08:48Z</time>
      </trkpt>
      <trkpt lat="45.74314" lon="4.7415">
        <ele>234.22</ele>
        <time>2012-08-25T08:08:49Z</time>
      </trkpt>
      <trkpt lat="45.74313" lon="4.7414">
        <ele>234.22</ele>
        <time>2012-08-25T08:08:52Z</time>
      </trkpt>
      <trkpt lat="45.74312" lon="4.74137">
        <ele>234.7</ele>
        <time>2012-08-25T08:08:53Z</time>
      </trkpt>
      <trkpt lat="45.74312" lon="4.74135">
        <ele>234.7</ele>
        <time>2012-08-25T08:08:54Z</time>
      </trkpt>
      <trkpt lat="45.74311" lon="4.74132">
        <ele>234.7</ele>
        <time>2012-08-25T08:08:55Z</time>
      </trkpt>
      <trkpt lat="45.74311" lon="4.74128">
        <ele>234.22</ele>
        <time>2012-08-25T08:08:56Z</time>
      </trkpt>
      <trkpt lat="45.74309" lon="4.7412">
        <ele>233.74</ele>
        <time>2012-08-25T08:08:59Z</time>
      </trkpt>
      <trkpt lat="45.74308" lon="4.74117">
        <ele>234.22</ele>
        <time>2012-08-25T08:09:00Z</time>
      </trkpt>
      <trkpt lat="45.74307" lon="4.74114">
        <ele>234.22</ele>
        <time>2012-08-25T08:09:01Z</time>
      </trkpt>
      <trkpt lat="45.74306" lon="4.74112">
        <ele>234.22</ele>
        <time>2012-08-25T08:09:02Z</time>
      </trkpt>
      <trkpt lat="45.74306" lon="4.74108">
        <ele>233.74</ele>
        <time>2012-08-25T08:09:03Z</time>
      </trkpt>
      <trkpt lat="45.74305" lon="4.74105">
        <ele>233.74</ele>
        <time>2012-08-25T08:09:04Z</time>
      </trkpt>
      <trkpt lat="45.74304" lon="4.74101">
        <ele>234.22</ele>
        <time>2012-08-25T08:09:05Z</time>
      </trkpt>
      <trkpt lat="45.74302" lon="4.74098">
        <ele>233.74</ele>
        <time>2012-08-25T08:09:06Z</time>
      </trkpt>
      <trkpt lat="45.74284" lon="4.74061">
        <ele>234.22</ele>
        <time>2012-08-25T08:09:15Z</time>
      </trkpt>
      <trkpt lat="45.74267" lon="4.74018">
        <ele>234.7</ele>
        <time>2012-08-25T08:09:23Z</time>
      </trkpt>
      <trkpt lat="45.74246" lon="4.73969">
        <ele>234.7</ele>
        <time>2012-08-25T08:09:33Z</time>
      </trkpt>
      <trkpt lat="45.74232" lon="4.7395">
        <ele>234.7</ele>
        <time>2012-08-25T08:09:45Z</time>
      </trkpt>
      <trkpt lat="45.74224" lon="4.73933">
        <ele>234.7</ele>
        <time>2012-08-25T08:09:52Z</time>
      </trkpt>
      <trkpt lat="45.74223" lon="4.73932">
        <ele>235.18</ele>
        <time>2012-08-25T08:09:53Z</time>
      </trkpt>
      <trkpt lat="45.74222" lon="4.73929">
        <ele>234.7</ele>
        <time>2012-08-25T08:09:54Z</time>
      </trkpt>
      <trkpt lat="45.74217" lon="4.73896">
        <ele>235.66</ele>
        <time>2012-08-25T08:10:03Z</time>
      </trkpt>
      <trkpt lat="45.74217" lon="4.73893">
        <ele>235.66</ele>
        <time>2012-08-25T08:10:04Z</time>
      </trkpt>
      <trkpt lat="45.74216" lon="4.73884">
        <ele>235.66</ele>
        <time>2012-08-25T08:10:07Z</time>
      </trkpt>
      <trkpt lat="45.74203" lon="4.73854">
        <ele>235.66</ele>
        <time>2012-08-25T08:10:18Z</time>
      </trkpt>
      <trkpt lat="45.74199" lon="4.73849">
        <ele>235.66</ele>
        <time>2012-08-25T08:10:20Z</time>
      </trkpt>
      <trkpt lat="45.74198" lon="4.73846">
        <ele>235.66</ele>
        <time>2012-08-25T08:10:21Z</time>
      </trkpt>
      <trkpt lat="45.74195" lon="4.73843">
        <ele>235.66</ele>
        <time>2012-08-25T08:10:22Z</time>
      </trkpt>
      <trkpt lat="45.74194" lon="4.7384">
        <ele>235.66</ele>
        <time>2012-08-25T08:10:23Z</time>
      </trkpt>
      <trkpt lat="45.74192" lon="4.73838">
        <ele>235.66</ele>
        <time>2012-08-25T08:10:24Z</time>
      </trkpt>
      <trkpt lat="45.7419" lon="4.73834">
        <ele>236.14</ele>
        <time>2012-08-25T08:10:25Z</time>
      </trkpt>
      <trkpt lat="45.74188" lon="4.73832">
        <ele>236.14</ele>
        <time>2012-08-25T08:10:26Z</time>
      </trkpt>
      <trkpt lat="45.74186" lon="4.73829">
        <ele>236.14</ele>
        <time>2012-08-25T08:10:27Z</time>
      </trkpt>
      <trkpt lat="45.74166" lon="4.73766">
        <ele>236.62</ele>
        <time>2012-08-25T08:10:41Z</time>
      </trkpt>
      <trkpt lat="45.74153" lon="4.73719">
        <ele>236.62</ele>
        <time>2012-08-25T08:10:57Z</time>
      </trkpt>
      <trkpt lat="45.7415" lon="4.73717">
        <ele>236.62</ele>
        <time>2012-08-25T08:11:02Z</time>
      </trkpt>
      <trkpt lat="45.74148" lon="4.73717">
        <ele>236.62</ele>
        <time>2012-08-25T08:11:03Z</time>
      </trkpt>
      <trkpt lat="45.74147" lon="4.73717">
        <ele>236.14</ele>
        <time>2012-08-25T08:11:04Z</time>
      </trkpt>
      <trkpt lat="45.74145" lon="4.73719">
        <ele>236.14</ele>
        <time>2012-08-25T08:11:05Z</time>
      </trkpt>
      <trkpt lat="45.74144" lon="4.73721">
        <ele>235.66</ele>
        <time>2012-08-25T08:11:06Z</time>
      </trkpt>
      <trkpt lat="45.74142" lon="4.73723">
        <ele>236.14</ele>
        <time>2012-08-25T08:11:07Z</time>
      </trkpt>
      <trkpt lat="45.74111" lon="4.73742">
        <ele>235.66</ele>
        <time>2012-08-25T08:11:23Z</time>
      </trkpt>
      <trkpt lat="45.74086" lon="4.73719">
        <ele>235.66</ele>
        <time>2012-08-25T08:11:33Z</time>
      </trkpt>
      <trkpt lat="45.74081" lon="4.73687">
        <ele>238.06</ele>
        <time>2012-08-25T08:11:46Z</time>
      </trkpt>
      <trkpt lat="45.74069" lon="4.73659">
        <ele>240.95</ele>
        <time>2012-08-25T08:12:01Z</time>
      </trkpt>
      <trkpt lat="45.74067" lon="4.73657">
        <ele>240.95</ele>
        <time>2012-08-25T08:12:03Z</time>
      </trkpt>
      <trkpt lat="45.74066" lon="4.73657">
        <ele>240.95</ele>
        <time>2012-08-25T08:12:04Z</time>
      </trkpt>
      <trkpt lat="45.74065" lon="4.73657">
        <ele>240.95</ele>
        <time>2012-08-25T08:12:05Z</time>
      </trkpt>
      <trkpt lat="45.74063" lon="4.73656">
        <ele>241.43</ele>
        <time>2012-08-25T08:12:06Z</time>
      </trkpt>
      <trkpt lat="45.74062" lon="4.73656">
        <ele>241.43</ele>
        <time>2012-08-25T08:12:07Z</time>
      </trkpt>
      <trkpt lat="45.74061" lon="4.73655">
        <ele>241.91</ele>
        <time>2012-08-25T08:12:08Z</time>
      </trkpt>
      <trkpt lat="45.74059" lon="4.73655">
        <ele>241.91</ele>
        <time>2012-08-25T08:12:09Z</time>
      </trkpt>
      <trkpt lat="45.74058" lon="4.73654">
        <ele>241.91</ele>
        <time>2012-08-25T08:12:10Z</time>
      </trkpt>
      <trkpt lat="45.74056" lon="4.73654">
        <ele>242.39</ele>
        <time>2012-08-25T08:12:11Z</time>
      </trkpt>
      <trkpt lat="45.74029" lon="4.73656">
        <ele>245.27</ele>
        <time>2012-08-25T08:12:29Z</time>
      </trkpt>
      <trkpt lat="45.7401" lon="4.73659">
        <ele>248.64</ele>
        <time>2012-08-25T08:12:43Z</time>
      </trkpt>
      <trkpt lat="45.73994" lon="4.73662">
        <ele>252</ele>
        <time>2012-08-25T08:12:54Z</time>
      </trkpt>
      <trkpt lat="45.73975" lon="4.73669">
        <ele>254.89</ele>
        <time>2012-08-25T08:13:08Z</time>
      </trkpt>
      <trkpt lat="45.73957" lon="4.73682">
        <ele>258.25</ele>
        <time>2012-08-25T08:13:22Z</time>
      </trkpt>
      <trkpt lat="45.73933" lon="4.73696">
        <ele>261.14</ele>
        <time>2012-08-25T08:13:38Z</time>
      </trkpt>
      <trkpt lat="45.7391" lon="4.73702">
        <ele>263.54</ele>
        <time>2012-08-25T08:13:54Z</time>
      </trkpt>
      <trkpt lat="45.73909" lon="4.73703">
        <ele>263.06</ele>
        <time>2012-08-25T08:13:55Z</time>
      </trkpt>
      <trkpt lat="45.73909" lon="4.73705">
        <ele>263.54</ele>
        <time>2012-08-25T08:13:56Z</time>
      </trkpt>
      <trkpt lat="45.7391" lon="4.73707">
        <ele>263.06</ele>
        <time>2012-08-25T08:13:57Z</time>
      </trkpt>
      <trkpt lat="45.73911" lon="4.73709">
        <ele>263.54</ele>
        <time>2012-08-25T08:13:58Z</time>
      </trkpt>
      <trkpt lat="45.73912" lon="4.73711">
        <ele>263.06</ele>
        <time>2012-08-25T08:14:00Z</time>
      </trkpt>
      <trkpt lat="45.73913" lon="4.73712">
        <ele>264.02</ele>
        <time>2012-08-25T08:14:01Z</time>
      </trkpt>
      <trkpt lat="45.73928" lon="4.73712">
        <ele>264.5</ele>
        <time>2012-08-25T08:14:15Z</time>
      </trkpt>
      <trkpt lat="45.73932" lon="4.73713">
        <ele>264.98</ele>
        <time>2012-08-25T08:14:18Z</time>
      </trkpt>
      <trkpt lat="45.73951" lon="4.73722">
        <ele>265.94</ele>
        <time>2012-08-25T08:14:34Z</time>
      </trkpt>
      <trkpt lat="45.73963" lon="4.7375">
        <ele>267.86</ele>
        <time>2012-08-25T08:14:52Z</time>
      </trkpt>
      <trkpt lat="45.73964" lon="4.73781">
        <ele>269.31</ele>
        <time>2012-08-25T08:15:09Z</time>
      </trkpt>
      <trkpt lat="45.73958" lon="4.73806">
        <ele>271.71</ele>
        <time>2012-08-25T08:15:25Z</time>
      </trkpt>
      <trkpt lat="45.73955" lon="4.73821">
        <ele>273.15</ele>
        <time>2012-08-25T08:15:33Z</time>
      </trkpt>
      <trkpt lat="45.73954" lon="4.73823">
        <ele>273.15</ele>
        <time>2012-08-25T08:15:34Z</time>
      </trkpt>
      <trkpt lat="45.73946" lon="4.73851">
        <ele>276.04</ele>
        <time>2012-08-25T08:15:48Z</time>
      </trkpt>
      <trkpt lat="45.73934" lon="4.73871">
        <ele>279.4</ele>
        <time>2012-08-25T08:16:02Z</time>
      </trkpt>
      <trkpt lat="45.73919" lon="4.73893">
        <ele>281.8</ele>
        <time>2012-08-25T08:16:19Z</time>
      </trkpt>
      <trkpt lat="45.73906" lon="4.73909">
        <ele>281.8</ele>
        <time>2012-08-25T08:16:35Z</time>
      </trkpt>
      <trkpt lat="45.73898" lon="4.73911">
        <ele>283.25</ele>
        <time>2012-08-25T08:16:49Z</time>
      </trkpt>
      <trkpt lat="45.73897" lon="4.73908">
        <ele>282.77</ele>
        <time>2012-08-25T08:17:03Z</time>
      </trkpt>
      <trkpt lat="45.73896" lon="4.73909">
        <ele>282.77</ele>
        <time>2012-08-25T08:17:34Z</time>
      </trkpt>
      <trkpt lat="45.73896" lon="4.73907">
        <ele>282.77</ele>
        <time>2012-08-25T08:18:01Z</time>
      </trkpt>
      <trkpt lat="45.73894" lon="4.73907">
        <ele>282.28</ele>
        <time>2012-08-25T08:18:32Z</time>
      </trkpt>
      <trkpt lat="45.73895" lon="4.73906">
        <ele>282.28</ele>
        <time>2012-08-25T08:18:58Z</time>
      </trkpt>
      <trkpt lat="45.73898" lon="4.73898">
        <ele>282.28</ele>
        <time>2012-08-25T08:19:36Z</time>
      </trkpt>
      <trkpt lat="45.73897" lon="4.73904">
        <ele>282.28</ele>
        <time>2012-08-25T08:20:01Z</time>
      </trkpt>
      <trkpt lat="45.73899" lon="4.73907">
        <ele>282.28</ele>
        <time>2012-08-25T08:20:27Z</time>
      </trkpt>
      <trkpt lat="45.739" lon="4.73908">
        <ele>282.77</ele>
        <time>2012-08-25T08:20:50Z</time>
      </trkpt>
      <trkpt lat="45.73894" lon="4.73904">
        <ele>282.28</ele>
        <time>2012-08-25T08:21:08Z</time>
      </trkpt>
      <trkpt lat="45.73894" lon="4.73902">
        <ele>282.28</ele>
        <time>2012-08-25T08:21:09Z</time>
      </trkpt>
      <trkpt lat="45.73894" lon="4.739">
        <ele>282.77</ele>
        <time>2012-08-25T08:21:10Z</time>
      </trkpt>
      <trkpt lat="45.73891" lon="4.73893">
        <ele>282.28</ele>
        <time>2012-08-25T08:21:14Z</time>
      </trkpt>
      <trkpt lat="45.7389" lon="4.73891">
        <ele>282.28</ele>
        <time>2012-08-25T08:21:15Z</time>
      </trkpt>
      <trkpt lat="45.73889" lon="4.73889">
        <ele>282.28</ele>
        <time>2012-08-25T08:21:16Z</time>
      </trkpt>
      <trkpt lat="45.73887" lon="4.73888">
        <ele>282.77</ele>
        <time>2012-08-25T08:21:17Z</time>
      </trkpt>
      <trkpt lat="45.73885" lon="4.73887">
        <ele>282.77</ele>
        <time>2012-08-25T08:21:18Z</time>
      </trkpt>
      <trkpt lat="45.73873" lon="4.73871">
        <ele>283.25</ele>
        <time>2012-08-25T08:21:26Z</time>
      </trkpt>
      <trkpt lat="45.73854" lon="4.73839">
        <ele>283.73</ele>
        <time>2012-08-25T08:21:37Z</time>
      </trkpt>
      <trkpt lat="45.7384" lon="4.73819">
        <ele>284.21</ele>
        <time>2012-08-25T08:21:44Z</time>
      </trkpt>
      <trkpt lat="45.73837" lon="4.73819">
        <ele>284.69</ele>
        <time>2012-08-25T08:21:45Z</time>
      </trkpt>
      <trkpt lat="45.73835" lon="4.73819">
        <ele>284.69</ele>
        <time>2012-08-25T08:21:46Z</time>
      </trkpt>
      <trkpt lat="45.73825" lon="4.73818">
        <ele>285.65</ele>
        <time>2012-08-25T08:21:52Z</time>
      </trkpt>
      <trkpt lat="45.73823" lon="4.73818">
        <ele>286.13</ele>
        <time>2012-08-25T08:21:53Z</time>
      </trkpt>
      <trkpt lat="45.73801" lon="4.73809">
        <ele>288.53</ele>
        <time>2012-08-25T08:22:05Z</time>
      </trkpt>
      <trkpt lat="45.73778" lon="4.73797">
        <ele>289.01</ele>
        <time>2012-08-25T08:22:18Z</time>
      </trkpt>
      <trkpt lat="45.73771" lon="4.73797">
        <ele>289.97</ele>
        <time>2012-08-25T08:22:23Z</time>
      </trkpt>
      <trkpt lat="45.73762" lon="4.73797">
        <ele>290.94</ele>
        <time>2012-08-25T08:22:27Z</time>
      </trkpt>
      <trkpt lat="45.73759" lon="4.73796">
        <ele>290.94</ele>
        <time>2012-08-25T08:22:28Z</time>
      </trkpt>
      <trkpt lat="45.73747" lon="4.73794">
        <ele>290.94</ele>
        <time>2012-08-25T08:22:32Z</time>
      </trkpt>
      <trkpt lat="45.73745" lon="4.73795">
        <ele>291.42</ele>
        <time>2012-08-25T08:22:33Z</time>
      </trkpt>
      <trkpt lat="45.73744" lon="4.73798">
        <ele>290.94</ele>
        <time>2012-08-25T08:22:34Z</time>
      </trkpt>
      <trkpt lat="45.73743" lon="4.738">
        <ele>291.9</ele>
        <time>2012-08-25T08:22:35Z</time>
      </trkpt>
      <trkpt lat="45.73743" lon="4.73802">
        <ele>291.9</ele>
        <time>2012-08-25T08:22:36Z</time>
      </trkpt>
      <trkpt lat="45.73739" lon="4.73805">
        <ele>292.86</ele>
        <time>2012-08-25T08:22:39Z</time>
      </trkpt>
      <trkpt lat="45.73719" lon="4.73809">
        <ele>294.78</ele>
        <time>2012-08-25T08:22:52Z</time>
      </trkpt>
      <trkpt lat="45.73707" lon="4.7381">
        <ele>295.74</ele>
        <time>2012-08-25T08:23:01Z</time>
      </trkpt>
      <trkpt lat="45.73705" lon="4.73814">
        <ele>296.7</ele>
        <time>2012-08-25T08:23:04Z</time>
      </trkpt>
      <trkpt lat="45.73704" lon="4.73829">
        <ele>299.11</ele>
        <time>2012-08-25T08:23:11Z</time>
      </trkpt>
      <trkpt lat="45.73702" lon="4.73854">
        <ele>301.51</ele>
        <time>2012-08-25T08:23:24Z</time>
      </trkpt>
      <trkpt lat="45.73703" lon="4.73857">
        <ele>301.51</ele>
        <time>2012-08-25T08:23:26Z</time>
      </trkpt>
      <trkpt lat="45.73704" lon="4.73868">
        <ele>302.47</ele>
        <time>2012-08-25T08:23:31Z</time>
      </trkpt>
      <trkpt lat="45.73704" lon="4.7387">
        <ele>302.47</ele>
        <time>2012-08-25T08:23:32Z</time>
      </trkpt>
      <trkpt lat="45.73703" lon="4.73874">
        <ele>302.95</ele>
        <time>2012-08-25T08:23:34Z</time>
      </trkpt>
      <trkpt lat="45.73691" lon="4.73881">
        <ele>305.36</ele>
        <time>2012-08-25T08:23:44Z</time>
      </trkpt>
      <trkpt lat="45.7369" lon="4.73882">
        <ele>305.36</ele>
        <time>2012-08-25T08:23:45Z</time>
      </trkpt>
      <trkpt lat="45.73689" lon="4.73884">
        <ele>305.36</ele>
        <time>2012-08-25T08:23:46Z</time>
      </trkpt>
      <trkpt lat="45.73688" lon="4.73889">
        <ele>305.84</ele>
        <time>2012-08-25T08:23:49Z</time>
      </trkpt>
      <trkpt lat="45.73687" lon="4.73891">
        <ele>305.36</ele>
        <time>2012-08-25T08:23:50Z</time>
      </trkpt>
      <trkpt lat="45.73684" lon="4.73908">
        <ele>306.8</ele>
        <time>2012-08-25T08:24:01Z</time>
      </trkpt>
      <trkpt lat="45.73683" lon="4.7391">
        <ele>306.8</ele>
        <time>2012-08-25T08:24:02Z</time>
      </trkpt>
      <trkpt lat="45.73676" lon="4.73914">
        <ele>307.28</ele>
        <time>2012-08-25T08:24:07Z</time>
      </trkpt>
      <trkpt lat="45.73674" lon="4.73914">
        <ele>307.76</ele>
        <time>2012-08-25T08:24:08Z</time>
      </trkpt>
      <trkpt lat="45.73655" lon="4.73904">
        <ele>310.16</ele>
        <time>2012-08-25T08:24:23Z</time>
      </trkpt>
      <trkpt lat="45.73653" lon="4.73902">
        <ele>310.64</ele>
        <time>2012-08-25T08:24:25Z</time>
      </trkpt>
      <trkpt lat="45.73651" lon="4.73901">
        <ele>310.16</ele>
        <time>2012-08-25T08:24:26Z</time>
      </trkpt>
      <trkpt lat="45.7364" lon="4.73895">
        <ele>311.12</ele>
        <time>2012-08-25T08:24:33Z</time>
      </trkpt>
      <trkpt lat="45.73639" lon="4.73894">
        <ele>310.64</ele>
        <time>2012-08-25T08:24:34Z</time>
      </trkpt>
      <trkpt lat="45.73627" lon="4.73891">
        <ele>310.16</ele>
        <time>2012-08-25T08:24:47Z</time>
      </trkpt>
      <trkpt lat="45.73622" lon="4.73888">
        <ele>310.16</ele>
        <time>2012-08-25T08:25:22Z</time>
      </trkpt>
      <trkpt lat="45.73622" lon="4.73892">
        <ele>310.64</ele>
        <time>2012-08-25T08:25:59Z</time>
      </trkpt>
      <trkpt lat="45.73626" lon="4.73888">
        <ele>310.64</ele>
        <time>2012-08-25T08:26:13Z</time>
      </trkpt>
      <trkpt lat="45.73628" lon="4.73886">
        <ele>310.64</ele>
        <time>2012-08-25T08:26:28Z</time>
      </trkpt>
      <trkpt lat="45.7363" lon="4.73883">
        <ele>310.16</ele>
        <time>2012-08-25T08:26:30Z</time>
      </trkpt>
      <trkpt lat="45.73632" lon="4.73856">
        <ele>307.28</ele>
        <time>2012-08-25T08:26:36Z</time>
      </trkpt>
      <trkpt lat="45.73632" lon="4.73854">
        <ele>307.28</ele>
        <time>2012-08-25T08:26:37Z</time>
      </trkpt>
      <trkpt lat="45.7363" lon="4.73844">
        <ele>304.39</ele>
        <time>2012-08-25T08:26:41Z</time>
      </trkpt>
      <trkpt lat="45.73626" lon="4.7384">
        <ele>303.91</ele>
        <time>2012-08-25T08:26:43Z</time>
      </trkpt>
      <trkpt lat="45.73603" lon="4.73844">
        <ele>303.91</ele>
        <time>2012-08-25T08:26:52Z</time>
      </trkpt>
      <trkpt lat="45.73594" lon="4.73848">
        <ele>304.39</ele>
        <time>2012-08-25T08:26:58Z</time>
      </trkpt>
      <trkpt lat="45.73576" lon="4.73842">
        <ele>301.99</ele>
        <time>2012-08-25T08:27:07Z</time>
      </trkpt>
      <trkpt lat="45.73572" lon="4.73834">
        <ele>299.59</ele>
        <time>2012-08-25T08:27:11Z</time>
      </trkpt>
      <trkpt lat="45.73566" lon="4.73828">
        <ele>298.63</ele>
        <time>2012-08-25T08:27:14Z</time>
      </trkpt>
      <trkpt lat="45.73563" lon="4.73826">
        <ele>298.15</ele>
        <time>2012-08-25T08:27:15Z</time>
      </trkpt>
      <trkpt lat="45.73561" lon="4.73825">
        <ele>297.67</ele>
        <time>2012-08-25T08:27:16Z</time>
      </trkpt>
      <trkpt lat="45.73556" lon="4.73817">
        <ele>297.18</ele>
        <time>2012-08-25T08:27:20Z</time>
      </trkpt>
      <trkpt lat="45.73553" lon="4.73809">
        <ele>297.67</ele>
        <time>2012-08-25T08:27:24Z</time>
      </trkpt>
      <trkpt lat="45.73547" lon="4.73803">
        <ele>299.59</ele>
        <time>2012-08-25T08:27:29Z</time>
      </trkpt>
      <trkpt lat="45.73547" lon="4.73796">
        <ele>299.59</ele>
        <time>2012-08-25T08:27:42Z</time>
      </trkpt>
      <trkpt lat="45.73547" lon="4.73792">
        <ele>299.59</ele>
        <time>2012-08-25T08:27:48Z</time>
      </trkpt>
      <trkpt lat="45.73539" lon="4.73763">
        <ele>301.99</ele>
        <time>2012-08-25T08:28:02Z</time>
      </trkpt>
      <trkpt lat="45.73539" lon="4.7376">
        <ele>301.03</ele>
        <time>2012-08-25T08:28:07Z</time>
      </trkpt>
      <trkpt lat="45.7357" lon="4.73732">
        <ele>299.59</ele>
        <time>2012-08-25T08:28:19Z</time>
      </trkpt>
      <trkpt lat="45.73615" lon="4.73701">
        <ele>297.67</ele>
        <time>2012-08-25T08:28:33Z</time>
      </trkpt>
      <trkpt lat="45.73653" lon="4.73682">
        <ele>294.78</ele>
        <time>2012-08-25T08:28:44Z</time>
      </trkpt>
      <trkpt lat="45.73676" lon="4.73673">
        <ele>291.9</ele>
        <time>2012-08-25T08:28:55Z</time>
      </trkpt>
      <trkpt lat="45.73704" lon="4.73658">
        <ele>289.49</ele>
        <time>2012-08-25T08:29:06Z</time>
      </trkpt>
      <trkpt lat="45.73736" lon="4.73635">
        <ele>286.13</ele>
        <time>2012-08-25T08:29:13Z</time>
      </trkpt>
      <trkpt lat="45.73741" lon="4.73631">
        <ele>285.17</ele>
        <time>2012-08-25T08:29:15Z</time>
      </trkpt>
      <trkpt lat="45.73759" lon="4.73617">
        <ele>283.73</ele>
        <time>2012-08-25T08:29:26Z</time>
      </trkpt>
      <trkpt lat="45.73759" lon="4.73609">
        <ele>283.73</ele>
        <time>2012-08-25T08:29:30Z</time>
      </trkpt>
      <trkpt lat="45.73752" lon="4.73591">
        <ele>284.21</ele>
        <time>2012-08-25T08:29:39Z</time>
      </trkpt>
      <trkpt lat="45.73736" lon="4.73565">
        <ele>284.69</ele>
        <time>2012-08-25T08:29:53Z</time>
      </trkpt>
      <trkpt lat="45.73733" lon="4.73559">
        <ele>284.21</ele>
        <time>2012-08-25T08:29:57Z</time>
      </trkpt>
      <trkpt lat="45.7372" lon="4.73547">
        <ele>284.69</ele>
        <time>2012-08-25T08:30:04Z</time>
      </trkpt>
      <trkpt lat="45.73695" lon="4.73525">
        <ele>283.25</ele>
        <time>2012-08-25T08:30:17Z</time>
      </trkpt>
      <trkpt lat="45.73685" lon="4.73524">
        <ele>284.21</ele>
        <time>2012-08-25T08:30:29Z</time>
      </trkpt>
      <trkpt lat="45.73683" lon="4.73524">
        <ele>284.69</ele>
        <time>2012-08-25T08:30:35Z</time>
      </trkpt>
      <trkpt lat="45.73675" lon="4.73523">
        <ele>284.69</ele>
        <time>2012-08-25T08:30:40Z</time>
      </trkpt>
      <trkpt lat="45.73652" lon="4.73522">
        <ele>286.61</ele>
        <time>2012-08-25T08:30:53Z</time>
      </trkpt>
      <trkpt lat="45.7362" lon="4.73527">
        <ele>288.05</ele>
        <time>2012-08-25T08:31:07Z</time>
      </trkpt>
      <trkpt lat="45.73585" lon="4.73521">
        <ele>286.13</ele>
        <time>2012-08-25T08:31:19Z</time>
      </trkpt>
      <trkpt lat="45.73571" lon="4.73521">
        <ele>285.65</ele>
        <time>2012-08-25T08:31:29Z</time>
      </trkpt>
      <trkpt lat="45.73566" lon="4.73517">
        <ele>285.65</ele>
        <time>2012-08-25T08:31:47Z</time>
      </trkpt>
      <trkpt lat="45.73546" lon="4.73512">
        <ele>282.28</ele>
        <time>2012-08-25T08:31:56Z</time>
      </trkpt>
      <trkpt lat="45.73524" lon="4.7351">
        <ele>277.96</ele>
        <time>2012-08-25T08:32:03Z</time>
      </trkpt>
      <trkpt lat="45.7352" lon="4.7351">
        <ele>277.96</ele>
        <time>2012-08-25T08:32:05Z</time>
      </trkpt>
      <trkpt lat="45.73512" lon="4.73511">
        <ele>276.52</ele>
        <time>2012-08-25T08:32:18Z</time>
      </trkpt>
      <trkpt lat="45.73501" lon="4.73518">
        <ele>279.88</ele>
        <time>2012-08-25T08:32:33Z</time>
      </trkpt>
      <trkpt lat="45.73501" lon="4.73519">
        <ele>280.36</ele>
        <time>2012-08-25T08:32:34Z</time>
      </trkpt>
      <trkpt lat="45.73491" lon="4.73524">
        <ele>281.8</ele>
        <time>2012-08-25T08:32:50Z</time>
      </trkpt>
      <trkpt lat="45.73481" lon="4.73536">
        <ele>284.69</ele>
        <time>2012-08-25T08:33:07Z</time>
      </trkpt>
      <trkpt lat="45.7348" lon="4.73538">
        <ele>285.17</ele>
        <time>2012-08-25T08:33:09Z</time>
      </trkpt>
      <trkpt lat="45.73468" lon="4.73552">
        <ele>287.57</ele>
        <time>2012-08-25T08:33:25Z</time>
      </trkpt>
      <trkpt lat="45.73461" lon="4.73565">
        <ele>289.97</ele>
        <time>2012-08-25T08:33:39Z</time>
      </trkpt>
      <trkpt lat="45.73459" lon="4.73569">
        <ele>290.94</ele>
        <time>2012-08-25T08:33:44Z</time>
      </trkpt>
      <trkpt lat="45.73451" lon="4.73575">
        <ele>290.94</ele>
        <time>2012-08-25T08:34:02Z</time>
      </trkpt>
      <trkpt lat="45.73437" lon="4.73576">
        <ele>291.42</ele>
        <time>2012-08-25T08:34:09Z</time>
      </trkpt>
      <trkpt lat="45.73432" lon="4.73576">
        <ele>292.38</ele>
        <time>2012-08-25T08:34:11Z</time>
      </trkpt>
      <trkpt lat="45.73415" lon="4.73576">
        <ele>292.38</ele>
        <time>2012-08-25T08:34:22Z</time>
      </trkpt>
      <trkpt lat="45.73412" lon="4.73575">
        <ele>292.38</ele>
        <time>2012-08-25T08:34:36Z</time>
      </trkpt>
      <trkpt lat="45.73407" lon="4.73574">
        <ele>292.86</ele>
        <time>2012-08-25T08:34:50Z</time>
      </trkpt>
      <trkpt lat="45.73403" lon="4.73573">
        <ele>293.34</ele>
        <time>2012-08-25T08:35:01Z</time>
      </trkpt>
      <trkpt lat="45.73394" lon="4.73574">
        <ele>296.22</ele>
        <time>2012-08-25T08:35:16Z</time>
      </trkpt>
      <trkpt lat="45.7339" lon="4.73578">
        <ele>297.67</ele>
        <time>2012-08-25T08:35:23Z</time>
      </trkpt>
      <trkpt lat="45.73388" lon="4.73585">
        <ele>298.63</ele>
        <time>2012-08-25T08:35:34Z</time>
      </trkpt>
      <trkpt lat="45.73387" lon="4.73582">
        <ele>299.11</ele>
        <time>2012-08-25T08:36:04Z</time>
      </trkpt>
      <trkpt lat="45.73386" lon="4.73585">
        <ele>298.63</ele>
        <time>2012-08-25T08:36:37Z</time>
      </trkpt>
      <trkpt lat="45.73382" lon="4.73584">
        <ele>299.59</ele>
        <time>2012-08-25T08:36:49Z</time>
      </trkpt>
      <trkpt lat="45.73375" lon="4.73588">
        <ele>299.59</ele>
        <time>2012-08-25T08:37:03Z</time>
      </trkpt>
      <trkpt lat="45.73372" lon="4.73592">
        <ele>300.07</ele>
        <time>2012-08-25T08:37:18Z</time>
      </trkpt>
      <trkpt lat="45.73372" lon="4.73592">
        <ele>300.55</ele>
        <time>2012-08-25T08:37:46Z</time>
      </trkpt>
      <trkpt lat="45.73372" lon="4.73594">
        <ele>300.07</ele>
        <time>2012-08-25T08:38:13Z</time>
      </trkpt>
      <trkpt lat="45.73368" lon="4.73596">
        <ele>301.03</ele>
        <time>2012-08-25T08:38:34Z</time>
      </trkpt>
      <trkpt lat="45.73348" lon="4.736">
        <ele>302.47</ele>
        <time>2012-08-25T08:38:47Z</time>
      </trkpt>
      <trkpt lat="45.73319" lon="4.73597">
        <ele>303.43</ele>
        <time>2012-08-25T08:39:04Z</time>
      </trkpt>
      <trkpt lat="45.73297" lon="4.73614">
        <ele>305.36</ele>
        <time>2012-08-25T08:39:17Z</time>
      </trkpt>
      <trkpt lat="45.73262" lon="4.73643">
        <ele>307.28</ele>
        <time>2012-08-25T08:39:35Z</time>
      </trkpt>
      <trkpt lat="45.73246" lon="4.73668">
        <ele>308.24</ele>
        <time>2012-08-25T08:39:48Z</time>
      </trkpt>
      <trkpt lat="45.73226" lon="4.73696">
        <ele>310.16</ele>
        <time>2012-08-25T08:40:01Z</time>
      </trkpt>
      <trkpt lat="45.73214" lon="4.73721">
        <ele>312.57</ele>
        <time>2012-08-25T08:40:11Z</time>
      </trkpt>
      <trkpt lat="45.73213" lon="4.73723">
        <ele>311.6</ele>
        <time>2012-08-25T08:40:12Z</time>
      </trkpt>
      <trkpt lat="45.73212" lon="4.73724">
        <ele>312.09</ele>
        <time>2012-08-25T08:40:13Z</time>
      </trkpt>
      <trkpt lat="45.73211" lon="4.73726">
        <ele>312.57</ele>
        <time>2012-08-25T08:40:14Z</time>
      </trkpt>
      <trkpt lat="45.7321" lon="4.73727">
        <ele>312.57</ele>
        <time>2012-08-25T08:40:15Z</time>
      </trkpt>
      <trkpt lat="45.732" lon="4.7373">
        <ele>313.53</ele>
        <time>2012-08-25T08:40:27Z</time>
      </trkpt>
      <trkpt lat="45.73194" lon="4.73726">
        <ele>312.57</ele>
        <time>2012-08-25T08:40:40Z</time>
      </trkpt>
      <trkpt lat="45.7319" lon="4.73718">
        <ele>313.05</ele>
        <time>2012-08-25T08:40:44Z</time>
      </trkpt>
      <trkpt lat="45.73188" lon="4.73717">
        <ele>313.05</ele>
        <time>2012-08-25T08:40:45Z</time>
      </trkpt>
      <trkpt lat="45.73169" lon="4.73714">
        <ele>313.53</ele>
        <time>2012-08-25T08:40:57Z</time>
      </trkpt>
      <trkpt lat="45.73167" lon="4.73716">
        <ele>314.01</ele>
        <time>2012-08-25T08:41:10Z</time>
      </trkpt>
      <trkpt lat="45.73166" lon="4.7372">
        <ele>313.53</ele>
        <time>2012-08-25T08:41:24Z</time>
      </trkpt>
      <trkpt lat="45.73168" lon="4.73723">
        <ele>314.01</ele>
        <time>2012-08-25T08:41:31Z</time>
      </trkpt>
      <trkpt lat="45.73172" lon="4.73731">
        <ele>314.49</ele>
        <time>2012-08-25T08:41:35Z</time>
      </trkpt>
      <trkpt lat="45.73189" lon="4.73769">
        <ele>316.41</ele>
        <time>2012-08-25T08:41:49Z</time>
      </trkpt>
      <trkpt lat="45.73201" lon="4.73811">
        <ele>315.45</ele>
        <time>2012-08-25T08:42:01Z</time>
      </trkpt>
      <trkpt lat="45.73209" lon="4.7385">
        <ele>315.45</ele>
        <time>2012-08-25T08:42:11Z</time>
      </trkpt>
      <trkpt lat="45.73208" lon="4.73891">
        <ele>315.45</ele>
        <time>2012-08-25T08:42:21Z</time>
      </trkpt>
      <trkpt lat="45.73206" lon="4.73938">
        <ele>315.93</ele>
        <time>2012-08-25T08:42:31Z</time>
      </trkpt>
      <trkpt lat="45.73201" lon="4.73964">
        <ele>314.49</ele>
        <time>2012-08-25T08:42:38Z</time>
      </trkpt>
      <trkpt lat="45.73199" lon="4.73965">
        <ele>314.97</ele>
        <time>2012-08-25T08:42:39Z</time>
      </trkpt>
      <trkpt lat="45.73177" lon="4.73967">
        <ele>315.45</ele>
        <time>2012-08-25T08:42:49Z</time>
      </trkpt>
      <trkpt lat="45.7317" lon="4.73969">
        <ele>314.97</ele>
        <time>2012-08-25T08:42:52Z</time>
      </trkpt>
      <trkpt lat="45.73168" lon="4.73969">
        <ele>315.45</ele>
        <time>2012-08-25T08:42:53Z</time>
      </trkpt>
      <trkpt lat="45.73162" lon="4.73969">
        <ele>315.93</ele>
        <time>2012-08-25T08:42:58Z</time>
      </trkpt>
      <trkpt lat="45.73151" lon="4.7397">
        <ele>315.45</ele>
        <time>2012-08-25T08:43:04Z</time>
      </trkpt>
      <trkpt lat="45.73147" lon="4.73972">
        <ele>315.93</ele>
        <time>2012-08-25T08:43:06Z</time>
      </trkpt>
      <trkpt lat="45.73132" lon="4.73975">
        <ele>315.93</ele>
        <time>2012-08-25T08:43:18Z</time>
      </trkpt>
      <trkpt lat="45.73126" lon="4.73973">
        <ele>314.97</ele>
        <time>2012-08-25T08:43:30Z</time>
      </trkpt>
      <trkpt lat="45.73113" lon="4.73964">
        <ele>315.45</ele>
        <time>2012-08-25T08:43:44Z</time>
      </trkpt>
      <trkpt lat="45.73079" lon="4.73948">
        <ele>315.93</ele>
        <time>2012-08-25T08:43:58Z</time>
      </trkpt>
      <trkpt lat="45.73075" lon="4.73944">
        <ele>316.41</ele>
        <time>2012-08-25T08:44:06Z</time>
      </trkpt>
      <trkpt lat="45.73069" lon="4.73944">
        <ele>317.37</ele>
        <time>2012-08-25T08:44:12Z</time>
      </trkpt>
      <trkpt lat="45.73059" lon="4.73951">
        <ele>315.93</ele>
        <time>2012-08-25T08:44:15Z</time>
      </trkpt>
      <trkpt lat="45.73056" lon="4.73956">
        <ele>315.93</ele>
        <time>2012-08-25T08:44:16Z</time>
      </trkpt>
      <trkpt lat="45.73051" lon="4.73969">
        <ele>316.41</ele>
        <time>2012-08-25T08:44:23Z</time>
      </trkpt>
      <trkpt lat="45.73047" lon="4.73979">
        <ele>317.85</ele>
        <time>2012-08-25T08:44:35Z</time>
      </trkpt>
      <trkpt lat="45.73045" lon="4.73979">
        <ele>317.37</ele>
        <time>2012-08-25T08:44:50Z</time>
      </trkpt>
      <trkpt lat="45.73043" lon="4.73977">
        <ele>317.37</ele>
        <time>2012-08-25T08:45:12Z</time>
      </trkpt>
      <trkpt lat="45.73043" lon="4.73978">
        <ele>320.74</ele>
        <time>2012-08-25T08:45:17Z</time>
      </trkpt>
      <trkpt lat="45.73043" lon="4.73978">
        <ele>317.37</ele>
        <time>2012-08-25T08:45:18Z</time>
      </trkpt>
      <trkpt lat="45.73044" lon="4.73977">
        <ele>317.37</ele>
        <time>2012-08-25T08:45:42Z</time>
      </trkpt>
      <trkpt lat="45.73043" lon="4.73978">
        <ele>318.33</ele>
        <time>2012-08-25T08:46:11Z</time>
      </trkpt>
      <trkpt lat="45.73042" lon="4.73979">
        <ele>317.85</ele>
        <time>2012-08-25T08:46:13Z</time>
      </trkpt>
      <trkpt lat="45.73017" lon="4.73988">
        <ele>317.85</ele>
        <time>2012-08-25T08:46:27Z</time>
      </trkpt>
      <trkpt lat="45.73009" lon="4.73989">
        <ele>318.33</ele>
        <time>2012-08-25T08:46:36Z</time>
      </trkpt>
      <trkpt lat="45.73005" lon="4.73985">
        <ele>319.3</ele>
        <time>2012-08-25T08:46:50Z</time>
      </trkpt>
      <trkpt lat="45.72999" lon="4.73984">
        <ele>318.33</ele>
        <time>2012-08-25T08:47:05Z</time>
      </trkpt>
      <trkpt lat="45.72996" lon="4.73985">
        <ele>318.81</ele>
        <time>2012-08-25T08:47:08Z</time>
      </trkpt>
      <trkpt lat="45.72995" lon="4.73986">
        <ele>318.81</ele>
        <time>2012-08-25T08:47:09Z</time>
      </trkpt>
      <trkpt lat="45.72993" lon="4.73988">
        <ele>318.81</ele>
        <time>2012-08-25T08:47:10Z</time>
      </trkpt>
      <trkpt lat="45.72991" lon="4.73989">
        <ele>318.81</ele>
        <time>2012-08-25T08:47:11Z</time>
      </trkpt>
      <trkpt lat="45.72989" lon="4.73991">
        <ele>318.81</ele>
        <time>2012-08-25T08:47:12Z</time>
      </trkpt>
      <trkpt lat="45.72971" lon="4.73996">
        <ele>319.3</ele>
        <time>2012-08-25T08:47:18Z</time>
      </trkpt>
      <trkpt lat="45.72968" lon="4.73998">
        <ele>318.81</ele>
        <time>2012-08-25T08:47:19Z</time>
      </trkpt>
      <trkpt lat="45.72967" lon="4.73999">
        <ele>318.33</ele>
        <time>2012-08-25T08:47:20Z</time>
      </trkpt>
      <trkpt lat="45.72964" lon="4.73999">
        <ele>318.81</ele>
        <time>2012-08-25T08:47:21Z</time>
      </trkpt>
      <trkpt lat="45.7296" lon="4.73999">
        <ele>318.81</ele>
        <time>2012-08-25T08:47:22Z</time>
      </trkpt>
      <trkpt lat="45.72957" lon="4.73999">
        <ele>318.33</ele>
        <time>2012-08-25T08:47:23Z</time>
      </trkpt>
      <trkpt lat="45.72953" lon="4.74">
        <ele>318.33</ele>
        <time>2012-08-25T08:47:24Z</time>
      </trkpt>
      <trkpt lat="45.72923" lon="4.74007">
        <ele>317.85</ele>
        <time>2012-08-25T08:47:33Z</time>
      </trkpt>
      <trkpt lat="45.72919" lon="4.74005">
        <ele>317.85</ele>
        <time>2012-08-25T08:47:34Z</time>
      </trkpt>
      <trkpt lat="45.72916" lon="4.74004">
        <ele>317.85</ele>
        <time>2012-08-25T08:47:35Z</time>
      </trkpt>
      <trkpt lat="45.72913" lon="4.74003">
        <ele>317.85</ele>
        <time>2012-08-25T08:47:36Z</time>
      </trkpt>
      <trkpt lat="45.7291" lon="4.74001">
        <ele>317.85</ele>
        <time>2012-08-25T08:47:37Z</time>
      </trkpt>
      <trkpt lat="45.72898" lon="4.73981">
        <ele>316.89</ele>
        <time>2012-08-25T08:47:45Z</time>
      </trkpt>
      <trkpt lat="45.72893" lon="4.73976">
        <ele>316.41</ele>
        <time>2012-08-25T08:47:54Z</time>
      </trkpt>
      <trkpt lat="45.72891" lon="4.73975">
        <ele>315.93</ele>
        <time>2012-08-25T08:47:55Z</time>
      </trkpt>
      <trkpt lat="45.72888" lon="4.73972">
        <ele>315.45</ele>
        <time>2012-08-25T08:47:56Z</time>
      </trkpt>
      <trkpt lat="45.72887" lon="4.73968">
        <ele>315.93</ele>
        <time>2012-08-25T08:47:57Z</time>
      </trkpt>
      <trkpt lat="45.72886" lon="4.73964">
        <ele>315.93</ele>
        <time>2012-08-25T08:47:58Z</time>
      </trkpt>
      <trkpt lat="45.72886" lon="4.7396">
        <ele>315.45</ele>
        <time>2012-08-25T08:47:59Z</time>
      </trkpt>
      <trkpt lat="45.72876" lon="4.73895">
        <ele>315.93</ele>
        <time>2012-08-25T08:48:11Z</time>
      </trkpt>
      <trkpt lat="45.72868" lon="4.73848">
        <ele>316.41</ele>
        <time>2012-08-25T08:48:21Z</time>
      </trkpt>
      <trkpt lat="45.72869" lon="4.73845">
        <ele>316.89</ele>
        <time>2012-08-25T08:48:22Z</time>
      </trkpt>
      <trkpt lat="45.7287" lon="4.73841">
        <ele>316.89</ele>
        <time>2012-08-25T08:48:23Z</time>
      </trkpt>
      <trkpt lat="45.72872" lon="4.73838">
        <ele>316.89</ele>
        <time>2012-08-25T08:48:24Z</time>
      </trkpt>
      <trkpt lat="45.72879" lon="4.73832">
        <ele>316.89</ele>
        <time>2012-08-25T08:48:27Z</time>
      </trkpt>
      <trkpt lat="45.729" lon="4.73809">
        <ele>317.85</ele>
        <time>2012-08-25T08:48:37Z</time>
      </trkpt>
      <trkpt lat="45.72917" lon="4.73802">
        <ele>317.85</ele>
        <time>2012-08-25T08:48:47Z</time>
      </trkpt>
      <trkpt lat="45.72922" lon="4.73803">
        <ele>318.33</ele>
        <time>2012-08-25T08:49:01Z</time>
      </trkpt>
      <trkpt lat="45.72924" lon="4.73802">
        <ele>317.85</ele>
        <time>2012-08-25T08:49:36Z</time>
      </trkpt>
      <trkpt lat="45.72921" lon="4.73802">
        <ele>317.85</ele>
        <time>2012-08-25T08:50:09Z</time>
      </trkpt>
      <trkpt lat="45.72919" lon="4.73799">
        <ele>318.33</ele>
        <time>2012-08-25T08:50:35Z</time>
      </trkpt>
      <trkpt lat="45.72916" lon="4.73798">
        <ele>317.85</ele>
        <time>2012-08-25T08:50:40Z</time>
      </trkpt>
      <trkpt lat="45.72918" lon="4.73775">
        <ele>317.85</ele>
        <time>2012-08-25T08:50:52Z</time>
      </trkpt>
      <trkpt lat="45.72928" lon="4.73752">
        <ele>316.41</ele>
        <time>2012-08-25T08:51:00Z</time>
      </trkpt>
      <trkpt lat="45.7293" lon="4.73745">
        <ele>315.45</ele>
        <time>2012-08-25T08:51:02Z</time>
      </trkpt>
      <trkpt lat="45.72937" lon="4.73738">
        <ele>314.01</ele>
        <time>2012-08-25T08:51:05Z</time>
      </trkpt>
      <trkpt lat="45.72964" lon="4.73724">
        <ele>311.12</ele>
        <time>2012-08-25T08:51:12Z</time>
      </trkpt>
      <trkpt lat="45.73013" lon="4.73689">
        <ele>312.09</ele>
        <time>2012-08-25T08:51:24Z</time>
      </trkpt>
      <trkpt lat="45.73029" lon="4.73678">
        <ele>313.53</ele>
        <time>2012-08-25T08:51:29Z</time>
      </trkpt>
      <trkpt lat="45.73033" lon="4.7367">
        <ele>313.53</ele>
        <time>2012-08-25T08:51:32Z</time>
      </trkpt>
      <trkpt lat="45.73035" lon="4.73657">
        <ele>311.6</ele>
        <time>2012-08-25T08:51:37Z</time>
      </trkpt>
      <trkpt lat="45.73027" lon="4.73636">
        <ele>307.76</ele>
        <time>2012-08-25T08:51:44Z</time>
      </trkpt>
      <trkpt lat="45.73015" lon="4.73616">
        <ele>304.88</ele>
        <time>2012-08-25T08:51:49Z</time>
      </trkpt>
      <trkpt lat="45.73007" lon="4.73572">
        <ele>299.59</ele>
        <time>2012-08-25T08:51:56Z</time>
      </trkpt>
      <trkpt lat="45.73005" lon="4.73553">
        <ele>296.22</ele>
        <time>2012-08-25T08:52:00Z</time>
      </trkpt>
      <trkpt lat="45.73005" lon="4.73548">
        <ele>295.26</ele>
        <time>2012-08-25T08:52:01Z</time>
      </trkpt>
      <trkpt lat="45.73006" lon="4.73536">
        <ele>293.34</ele>
        <time>2012-08-25T08:52:04Z</time>
      </trkpt>
      <trkpt lat="45.73029" lon="4.73514">
        <ele>290.46</ele>
        <time>2012-08-25T08:52:14Z</time>
      </trkpt>
      <trkpt lat="45.73035" lon="4.73504">
        <ele>289.49</ele>
        <time>2012-08-25T08:52:23Z</time>
      </trkpt>
      <trkpt lat="45.73035" lon="4.73494">
        <ele>288.53</ele>
        <time>2012-08-25T08:52:37Z</time>
      </trkpt>
      <trkpt lat="45.73034" lon="4.73493">
        <ele>288.53</ele>
        <time>2012-08-25T08:52:40Z</time>
      </trkpt>
      <trkpt lat="45.73029" lon="4.73484">
        <ele>287.09</ele>
        <time>2012-08-25T08:52:44Z</time>
      </trkpt>
      <trkpt lat="45.73023" lon="4.7347">
        <ele>283.73</ele>
        <time>2012-08-25T08:52:48Z</time>
      </trkpt>
      <trkpt lat="45.73016" lon="4.73463">
        <ele>282.28</ele>
        <time>2012-08-25T08:52:58Z</time>
      </trkpt>
      <trkpt lat="45.73014" lon="4.73459">
        <ele>280.84</ele>
        <time>2012-08-25T08:53:04Z</time>
      </trkpt>
      <trkpt lat="45.7301" lon="4.73454">
        <ele>279.88</ele>
        <time>2012-08-25T08:53:08Z</time>
      </trkpt>
      <trkpt lat="45.73006" lon="4.73453">
        <ele>278.92</ele>
        <time>2012-08-25T08:53:11Z</time>
      </trkpt>
      <trkpt lat="45.72999" lon="4.73445">
        <ele>276.52</ele>
        <time>2012-08-25T08:53:17Z</time>
      </trkpt>
      <trkpt lat="45.72996" lon="4.73442">
        <ele>276.04</ele>
        <time>2012-08-25T08:53:19Z</time>
      </trkpt>
      <trkpt lat="45.72986" lon="4.73433">
        <ele>272.67</ele>
        <time>2012-08-25T08:53:24Z</time>
      </trkpt>
      <trkpt lat="45.72978" lon="4.73426">
        <ele>270.75</ele>
        <time>2012-08-25T08:53:27Z</time>
      </trkpt>
      <trkpt lat="45.72978" lon="4.73412">
        <ele>268.83</ele>
        <time>2012-08-25T08:53:33Z</time>
      </trkpt>
      <trkpt lat="45.72977" lon="4.73407">
        <ele>266.9</ele>
        <time>2012-08-25T08:53:47Z</time>
      </trkpt>
      <trkpt lat="45.72977" lon="4.73407">
        <ele>270.27</ele>
        <time>2012-08-25T08:53:48Z</time>
      </trkpt>
      <trkpt lat="45.72976" lon="4.73405">
        <ele>269.31</ele>
        <time>2012-08-25T08:53:52Z</time>
      </trkpt>
      <trkpt lat="45.72982" lon="4.73388">
        <ele>268.83</ele>
        <time>2012-08-25T08:54:14Z</time>
      </trkpt>
      <trkpt lat="45.72983" lon="4.73386">
        <ele>268.83</ele>
        <time>2012-08-25T08:54:15Z</time>
      </trkpt>
      <trkpt lat="45.72984" lon="4.73384">
        <ele>269.31</ele>
        <time>2012-08-25T08:54:16Z</time>
      </trkpt>
      <trkpt lat="45.72985" lon="4.73381">
        <ele>268.83</ele>
        <time>2012-08-25T08:54:17Z</time>
      </trkpt>
      <trkpt lat="45.72986" lon="4.73378">
        <ele>268.83</ele>
        <time>2012-08-25T08:54:18Z</time>
      </trkpt>
      <trkpt lat="45.72987" lon="4.73375">
        <ele>268.83</ele>
        <time>2012-08-25T08:54:19Z</time>
      </trkpt>
      <trkpt lat="45.72989" lon="4.73372">
        <ele>268.83</ele>
        <time>2012-08-25T08:54:20Z</time>
      </trkpt>
      <trkpt lat="45.7299" lon="4.73369">
        <ele>268.83</ele>
        <time>2012-08-25T08:54:21Z</time>
      </trkpt>
      <trkpt lat="45.72991" lon="4.73366">
        <ele>268.83</ele>
        <time>2012-08-25T08:54:22Z</time>
      </trkpt>
      <trkpt lat="45.72992" lon="4.73363">
        <ele>268.83</ele>
        <time>2012-08-25T08:54:23Z</time>
      </trkpt>
      <trkpt lat="45.72995" lon="4.73361">
        <ele>268.83</ele>
        <time>2012-08-25T08:54:24Z</time>
      </trkpt>
      <trkpt lat="45.72997" lon="4.73359">
        <ele>268.83</ele>
        <time>2012-08-25T08:54:25Z</time>
      </trkpt>
      <trkpt lat="45.73024" lon="4.7333">
        <ele>266.9</ele>
        <time>2012-08-25T08:54:36Z</time>
      </trkpt>
      <trkpt lat="45.73047" lon="4.73313">
        <ele>265.94</ele>
        <time>2012-08-25T08:54:47Z</time>
      </trkpt>
      <trkpt lat="45.73067" lon="4.73301">
        <ele>265.46</ele>
        <time>2012-08-25T08:54:59Z</time>
      </trkpt>
      <trkpt lat="45.7307" lon="4.73295">
        <ele>264.5</ele>
        <time>2012-08-25T08:55:03Z</time>
      </trkpt>
      <trkpt lat="45.73073" lon="4.73293">
        <ele>264.5</ele>
        <time>2012-08-25T08:55:04Z</time>
      </trkpt>
      <trkpt lat="45.73092" lon="4.73282">
        <ele>264.5</ele>
        <time>2012-08-25T08:55:14Z</time>
      </trkpt>
      <trkpt lat="45.73111" lon="4.73269">
        <ele>264.02</ele>
        <time>2012-08-25T08:55:33Z</time>
      </trkpt>
      <trkpt lat="45.73123" lon="4.7326">
        <ele>263.54</ele>
        <time>2012-08-25T08:55:46Z</time>
      </trkpt>
      <trkpt lat="45.73127" lon="4.7325">
        <ele>262.58</ele>
        <time>2012-08-25T08:55:57Z</time>
      </trkpt>
      <trkpt lat="45.73129" lon="4.73249">
        <ele>262.1</ele>
        <time>2012-08-25T08:55:58Z</time>
      </trkpt>
      <trkpt lat="45.73135" lon="4.73239">
        <ele>262.1</ele>
        <time>2012-08-25T08:56:04Z</time>
      </trkpt>
      <trkpt lat="45.73136" lon="4.73238">
        <ele>261.62</ele>
        <time>2012-08-25T08:56:05Z</time>
      </trkpt>
      <trkpt lat="45.73138" lon="4.73237">
        <ele>261.62</ele>
        <time>2012-08-25T08:56:06Z</time>
      </trkpt>
      <trkpt lat="45.73155" lon="4.73224">
        <ele>261.14</ele>
        <time>2012-08-25T08:56:16Z</time>
      </trkpt>
      <trkpt lat="45.73157" lon="4.73222">
        <ele>260.65</ele>
        <time>2012-08-25T08:56:17Z</time>
      </trkpt>
      <trkpt lat="45.7316" lon="4.73219">
        <ele>260.65</ele>
        <time>2012-08-25T08:56:18Z</time>
      </trkpt>
      <trkpt lat="45.73199" lon="4.73184">
        <ele>262.1</ele>
        <time>2012-08-25T08:56:30Z</time>
      </trkpt>
      <trkpt lat="45.73229" lon="4.73151">
        <ele>261.14</ele>
        <time>2012-08-25T08:56:38Z</time>
      </trkpt>
      <trkpt lat="45.73232" lon="4.73147">
        <ele>261.14</ele>
        <time>2012-08-25T08:56:39Z</time>
      </trkpt>
      <trkpt lat="45.73243" lon="4.73107">
        <ele>260.17</ele>
        <time>2012-08-25T08:56:48Z</time>
      </trkpt>
      <trkpt lat="45.73251" lon="4.73058">
        <ele>258.25</ele>
        <time>2012-08-25T08:56:58Z</time>
      </trkpt>
      <trkpt lat="45.73255" lon="4.73005">
        <ele>258.25</ele>
        <time>2012-08-25T08:57:08Z</time>
      </trkpt>
      <trkpt lat="45.73269" lon="4.72956">
        <ele>257.29</ele>
        <time>2012-08-25T08:57:18Z</time>
      </trkpt>
      <trkpt lat="45.73279" lon="4.7292">
        <ele>257.29</ele>
        <time>2012-08-25T08:57:25Z</time>
      </trkpt>
      <trkpt lat="45.73303" lon="4.72869">
        <ele>259.69</ele>
        <time>2012-08-25T08:57:36Z</time>
      </trkpt>
      <trkpt lat="45.73304" lon="4.72853">
        <ele>259.21</ele>
        <time>2012-08-25T08:57:39Z</time>
      </trkpt>
      <trkpt lat="45.73302" lon="4.72846">
        <ele>258.73</ele>
        <time>2012-08-25T08:57:40Z</time>
      </trkpt>
      <trkpt lat="45.73301" lon="4.7284">
        <ele>258.73</ele>
        <time>2012-08-25T08:57:41Z</time>
      </trkpt>
      <trkpt lat="45.733" lon="4.72835">
        <ele>258.73</ele>
        <time>2012-08-25T08:57:42Z</time>
      </trkpt>
      <trkpt lat="45.733" lon="4.7283">
        <ele>257.77</ele>
        <time>2012-08-25T08:57:43Z</time>
      </trkpt>
      <trkpt lat="45.73299" lon="4.72823">
        <ele>256.81</ele>
        <time>2012-08-25T08:57:45Z</time>
      </trkpt>
      <trkpt lat="45.733" lon="4.72782">
        <ele>255.37</ele>
        <time>2012-08-25T08:57:53Z</time>
      </trkpt>
      <trkpt lat="45.73308" lon="4.72745">
        <ele>254.41</ele>
        <time>2012-08-25T08:58:02Z</time>
      </trkpt>
      <trkpt lat="45.73307" lon="4.72725">
        <ele>253.44</ele>
        <time>2012-08-25T08:58:04Z</time>
      </trkpt>
      <trkpt lat="45.73307" lon="4.72701">
        <ele>252.48</ele>
        <time>2012-08-25T08:58:06Z</time>
      </trkpt>
      <trkpt lat="45.73308" lon="4.72691">
        <ele>251.52</ele>
        <time>2012-08-25T08:58:07Z</time>
      </trkpt>
      <trkpt lat="45.73311" lon="4.72681">
        <ele>251.04</ele>
        <time>2012-08-25T08:58:08Z</time>
      </trkpt>
      <trkpt lat="45.73316" lon="4.72673">
        <ele>250.56</ele>
        <time>2012-08-25T08:58:09Z</time>
      </trkpt>
      <trkpt lat="45.7332" lon="4.72666">
        <ele>250.56</ele>
        <time>2012-08-25T08:58:10Z</time>
      </trkpt>
      <trkpt lat="45.73325" lon="4.72659">
        <ele>250.56</ele>
        <time>2012-08-25T08:58:11Z</time>
      </trkpt>
      <trkpt lat="45.73335" lon="4.72649">
        <ele>250.08</ele>
        <time>2012-08-25T08:58:13Z</time>
      </trkpt>
      <trkpt lat="45.7334" lon="4.72645">
        <ele>249.6</ele>
        <time>2012-08-25T08:58:14Z</time>
      </trkpt>
      <trkpt lat="45.73358" lon="4.72626">
        <ele>246.72</ele>
        <time>2012-08-25T08:58:22Z</time>
      </trkpt>
      <trkpt lat="45.73362" lon="4.72614">
        <ele>248.64</ele>
        <time>2012-08-25T08:58:47Z</time>
      </trkpt>
      <trkpt lat="45.73364" lon="4.72612">
        <ele>248.64</ele>
        <time>2012-08-25T08:59:18Z</time>
      </trkpt>
      <trkpt lat="45.73363" lon="4.7261">
        <ele>248.64</ele>
        <time>2012-08-25T08:59:19Z</time>
      </trkpt>
      <trkpt lat="45.73362" lon="4.72608">
        <ele>248.16</ele>
        <time>2012-08-25T08:59:20Z</time>
      </trkpt>
      <trkpt lat="45.73353" lon="4.72591">
        <ele>247.2</ele>
        <time>2012-08-25T08:59:29Z</time>
      </trkpt>
      <trkpt lat="45.73351" lon="4.72589">
        <ele>247.2</ele>
        <time>2012-08-25T08:59:30Z</time>
      </trkpt>
      <trkpt lat="45.73347" lon="4.72568">
        <ele>247.2</ele>
        <time>2012-08-25T08:59:42Z</time>
      </trkpt>
      <trkpt lat="45.73348" lon="4.72556">
        <ele>247.68</ele>
        <time>2012-08-25T08:59:52Z</time>
      </trkpt>
      <trkpt lat="45.73346" lon="4.72554">
        <ele>248.16</ele>
        <time>2012-08-25T08:59:54Z</time>
      </trkpt>
      <trkpt lat="45.73345" lon="4.72552">
        <ele>249.12</ele>
        <time>2012-08-25T08:59:55Z</time>
      </trkpt>
      <trkpt lat="45.73341" lon="4.72543">
        <ele>249.12</ele>
        <time>2012-08-25T09:00:00Z</time>
      </trkpt>
      <trkpt lat="45.73332" lon="4.72523">
        <ele>250.56</ele>
        <time>2012-08-25T09:00:12Z</time>
      </trkpt>
      <trkpt lat="45.73324" lon="4.72505">
        <ele>253.93</ele>
        <time>2012-08-25T09:00:23Z</time>
      </trkpt>
      <trkpt lat="45.73313" lon="4.72489">
        <ele>255.85</ele>
        <time>2012-08-25T09:00:38Z</time>
      </trkpt>
      <trkpt lat="45.73302" lon="4.72476">
        <ele>256.81</ele>
        <time>2012-08-25T09:00:53Z</time>
      </trkpt>
      <trkpt lat="45.73289" lon="4.72465">
        <ele>258.73</ele>
        <time>2012-08-25T09:01:06Z</time>
      </trkpt>
      <trkpt lat="45.73277" lon="4.72453">
        <ele>260.65</ele>
        <time>2012-08-25T09:01:19Z</time>
      </trkpt>
      <trkpt lat="45.7327" lon="4.72448">
        <ele>261.14</ele>
        <time>2012-08-25T09:01:25Z</time>
      </trkpt>
      <trkpt lat="45.73268" lon="4.72447">
        <ele>261.14</ele>
        <time>2012-08-25T09:01:26Z</time>
      </trkpt>
      <trkpt lat="45.73247" lon="4.7244">
        <ele>263.06</ele>
        <time>2012-08-25T09:01:40Z</time>
      </trkpt>
      <trkpt lat="45.73224" lon="4.72429">
        <ele>264.02</ele>
        <time>2012-08-25T09:01:55Z</time>
      </trkpt>
      <trkpt lat="45.73198" lon="4.72416">
        <ele>264.98</ele>
        <time>2012-08-25T09:02:11Z</time>
      </trkpt>
      <trkpt lat="45.73181" lon="4.72402">
        <ele>265.46</ele>
        <time>2012-08-25T09:02:25Z</time>
      </trkpt>
      <trkpt lat="45.73165" lon="4.72389">
        <ele>266.42</ele>
        <time>2012-08-25T09:02:36Z</time>
      </trkpt>
      <trkpt lat="45.73171" lon="4.72365">
        <ele>267.38</ele>
        <time>2012-08-25T09:02:50Z</time>
      </trkpt>
      <trkpt lat="45.73172" lon="4.7236">
        <ele>268.35</ele>
        <time>2012-08-25T09:02:53Z</time>
      </trkpt>
      <trkpt lat="45.73171" lon="4.72348">
        <ele>268.83</ele>
        <time>2012-08-25T09:02:59Z</time>
      </trkpt>
      <trkpt lat="45.73174" lon="4.72316">
        <ele>271.23</ele>
        <time>2012-08-25T09:03:14Z</time>
      </trkpt>
      <trkpt lat="45.73176" lon="4.72297">
        <ele>273.63</ele>
        <time>2012-08-25T09:03:29Z</time>
      </trkpt>
      <trkpt lat="45.73176" lon="4.72284">
        <ele>275.07</ele>
        <time>2012-08-25T09:03:43Z</time>
      </trkpt>
      <trkpt lat="45.73178" lon="4.72269">
        <ele>276.04</ele>
        <time>2012-08-25T09:03:58Z</time>
      </trkpt>
      <trkpt lat="45.73181" lon="4.72269">
        <ele>276.52</ele>
        <time>2012-08-25T09:04:22Z</time>
      </trkpt>
      <trkpt lat="45.73182" lon="4.72257">
        <ele>278.44</ele>
        <time>2012-08-25T09:04:45Z</time>
      </trkpt>
      <trkpt lat="45.73185" lon="4.72239">
        <ele>279.88</ele>
        <time>2012-08-25T09:04:59Z</time>
      </trkpt>
      <trkpt lat="45.73192" lon="4.72219">
        <ele>282.77</ele>
        <time>2012-08-25T09:05:15Z</time>
      </trkpt>
      <trkpt lat="45.73189" lon="4.72193">
        <ele>284.69</ele>
        <time>2012-08-25T09:05:33Z</time>
      </trkpt>
      <trkpt lat="45.73186" lon="4.72171">
        <ele>286.13</ele>
        <time>2012-08-25T09:05:48Z</time>
      </trkpt>
      <trkpt lat="45.73184" lon="4.72151">
        <ele>286.61</ele>
        <time>2012-08-25T09:06:04Z</time>
      </trkpt>
      <trkpt lat="45.73182" lon="4.72143">
        <ele>287.09</ele>
        <time>2012-08-25T09:06:15Z</time>
      </trkpt>
      <trkpt lat="45.73176" lon="4.72104">
        <ele>289.01</ele>
        <time>2012-08-25T09:06:31Z</time>
      </trkpt>
      <trkpt lat="45.73167" lon="4.72055">
        <ele>290.94</ele>
        <time>2012-08-25T09:06:48Z</time>
      </trkpt>
      <trkpt lat="45.73156" lon="4.71997">
        <ele>291.9</ele>
        <time>2012-08-25T09:07:06Z</time>
      </trkpt>
      <trkpt lat="45.73157" lon="4.71994">
        <ele>292.38</ele>
        <time>2012-08-25T09:07:07Z</time>
      </trkpt>
      <trkpt lat="45.73158" lon="4.71991">
        <ele>292.86</ele>
        <time>2012-08-25T09:07:08Z</time>
      </trkpt>
      <trkpt lat="45.7316" lon="4.7199">
        <ele>292.38</ele>
        <time>2012-08-25T09:07:09Z</time>
      </trkpt>
      <trkpt lat="45.73163" lon="4.7199">
        <ele>291.9</ele>
        <time>2012-08-25T09:07:10Z</time>
      </trkpt>
      <trkpt lat="45.73165" lon="4.7199">
        <ele>291.42</ele>
        <time>2012-08-25T09:07:11Z</time>
      </trkpt>
      <trkpt lat="45.7322" lon="4.71998">
        <ele>290.94</ele>
        <time>2012-08-25T09:07:27Z</time>
      </trkpt>
      <trkpt lat="45.73309" lon="4.72014">
        <ele>289.97</ele>
        <time>2012-08-25T09:07:47Z</time>
      </trkpt>
      <trkpt lat="45.73378" lon="4.72021">
        <ele>286.13</ele>
        <time>2012-08-25T09:08:01Z</time>
      </trkpt>
      <trkpt lat="45.73419" lon="4.72029">
        <ele>284.21</ele>
        <time>2012-08-25T09:08:09Z</time>
      </trkpt>
      <trkpt lat="45.73423" lon="4.72032">
        <ele>283.73</ele>
        <time>2012-08-25T09:08:10Z</time>
      </trkpt>
      <trkpt lat="45.73426" lon="4.72037">
        <ele>283.73</ele>
        <time>2012-08-25T09:08:11Z</time>
      </trkpt>
      <trkpt lat="45.73427" lon="4.72043">
        <ele>282.77</ele>
        <time>2012-08-25T09:08:12Z</time>
      </trkpt>
      <trkpt lat="45.73428" lon="4.72048">
        <ele>283.25</ele>
        <time>2012-08-25T09:08:13Z</time>
      </trkpt>
      <trkpt lat="45.73427" lon="4.72053">
        <ele>283.25</ele>
        <time>2012-08-25T09:08:14Z</time>
      </trkpt>
      <trkpt lat="45.73427" lon="4.72056">
        <ele>283.25</ele>
        <time>2012-08-25T09:08:15Z</time>
      </trkpt>
      <trkpt lat="45.73424" lon="4.72078">
        <ele>283.73</ele>
        <time>2012-08-25T09:08:19Z</time>
      </trkpt>
      <trkpt lat="45.73425" lon="4.72085">
        <ele>283.25</ele>
        <time>2012-08-25T09:08:20Z</time>
      </trkpt>
      <trkpt lat="45.73427" lon="4.72092">
        <ele>283.73</ele>
        <time>2012-08-25T09:08:21Z</time>
      </trkpt>
      <trkpt lat="45.73431" lon="4.72098">
        <ele>283.25</ele>
        <time>2012-08-25T09:08:22Z</time>
      </trkpt>
      <trkpt lat="45.73437" lon="4.72103">
        <ele>282.77</ele>
        <time>2012-08-25T09:08:23Z</time>
      </trkpt>
      <trkpt lat="45.73443" lon="4.72109">
        <ele>282.28</ele>
        <time>2012-08-25T09:08:24Z</time>
      </trkpt>
      <trkpt lat="45.73448" lon="4.72115">
        <ele>280.36</ele>
        <time>2012-08-25T09:08:25Z</time>
      </trkpt>
      <trkpt lat="45.73453" lon="4.7212">
        <ele>280.36</ele>
        <time>2012-08-25T09:08:26Z</time>
      </trkpt>
      <trkpt lat="45.73468" lon="4.72149">
        <ele>277.48</ele>
        <time>2012-08-25T09:08:33Z</time>
      </trkpt>
      <trkpt lat="45.73475" lon="4.72168">
        <ele>276.04</ele>
        <time>2012-08-25T09:08:36Z</time>
      </trkpt>
      <trkpt lat="45.73489" lon="4.72211">
        <ele>272.67</ele>
        <time>2012-08-25T09:08:42Z</time>
      </trkpt>
      <trkpt lat="45.73496" lon="4.72222">
        <ele>271.23</ele>
        <time>2012-08-25T09:08:48Z</time>
      </trkpt>
      <trkpt lat="45.73501" lon="4.72227">
        <ele>270.75</ele>
        <time>2012-08-25T09:09:01Z</time>
      </trkpt>
      <trkpt lat="45.73503" lon="4.72221">
        <ele>269.31</ele>
        <time>2012-08-25T09:09:15Z</time>
      </trkpt>
      <trkpt lat="45.73504" lon="4.72223">
        <ele>267.38</ele>
        <time>2012-08-25T09:09:18Z</time>
      </trkpt>
      <trkpt lat="45.7351" lon="4.72225">
        <ele>264.02</ele>
        <time>2012-08-25T09:09:23Z</time>
      </trkpt>
      <trkpt lat="45.73513" lon="4.72225">
        <ele>263.06</ele>
        <time>2012-08-25T09:09:25Z</time>
      </trkpt>
      <trkpt lat="45.73522" lon="4.72224">
        <ele>262.1</ele>
        <time>2012-08-25T09:09:41Z</time>
      </trkpt>
      <trkpt lat="45.73528" lon="4.72221">
        <ele>261.62</ele>
        <time>2012-08-25T09:10:00Z</time>
      </trkpt>
      <trkpt lat="45.73534" lon="4.72219">
        <ele>261.14</ele>
        <time>2012-08-25T09:10:07Z</time>
      </trkpt>
      <trkpt lat="45.73545" lon="4.72215">
        <ele>259.21</ele>
        <time>2012-08-25T09:10:13Z</time>
      </trkpt>
      <trkpt lat="45.73546" lon="4.72213">
        <ele>259.69</ele>
        <time>2012-08-25T09:10:14Z</time>
      </trkpt>
      <trkpt lat="45.73546" lon="4.7221">
        <ele>259.21</ele>
        <time>2012-08-25T09:10:15Z</time>
      </trkpt>
      <trkpt lat="45.73547" lon="4.72207">
        <ele>259.21</ele>
        <time>2012-08-25T09:10:16Z</time>
      </trkpt>
      <trkpt lat="45.73547" lon="4.72204">
        <ele>258.73</ele>
        <time>2012-08-25T09:10:17Z</time>
      </trkpt>
      <trkpt lat="45.73547" lon="4.72201">
        <ele>258.25</ele>
        <time>2012-08-25T09:10:18Z</time>
      </trkpt>
      <trkpt lat="45.73546" lon="4.72198">
        <ele>258.25</ele>
        <time>2012-08-25T09:10:19Z</time>
      </trkpt>
      <trkpt lat="45.73546" lon="4.72196">
        <ele>257.77</ele>
        <time>2012-08-25T09:10:20Z</time>
      </trkpt>
      <trkpt lat="45.73546" lon="4.72193">
        <ele>258.25</ele>
        <time>2012-08-25T09:10:21Z</time>
      </trkpt>
      <trkpt lat="45.73545" lon="4.72189">
        <ele>257.77</ele>
        <time>2012-08-25T09:10:22Z</time>
      </trkpt>
      <trkpt lat="45.73546" lon="4.72186">
        <ele>257.29</ele>
        <time>2012-08-25T09:10:23Z</time>
      </trkpt>
      <trkpt lat="45.73545" lon="4.72182">
        <ele>256.81</ele>
        <time>2012-08-25T09:10:24Z</time>
      </trkpt>
      <trkpt lat="45.73544" lon="4.72177">
        <ele>256.81</ele>
        <time>2012-08-25T09:10:25Z</time>
      </trkpt>
      <trkpt lat="45.73539" lon="4.72131">
        <ele>254.41</ele>
        <time>2012-08-25T09:10:34Z</time>
      </trkpt>
      <trkpt lat="45.73536" lon="4.72116">
        <ele>253.93</ele>
        <time>2012-08-25T09:10:36Z</time>
      </trkpt>
      <trkpt lat="45.73534" lon="4.72109">
        <ele>252.96</ele>
        <time>2012-08-25T09:10:37Z</time>
      </trkpt>
      <trkpt lat="45.73532" lon="4.72084">
        <ele>250.56</ele>
        <time>2012-08-25T09:10:42Z</time>
      </trkpt>
      <trkpt lat="45.73534" lon="4.7208">
        <ele>250.08</ele>
        <time>2012-08-25T09:10:43Z</time>
      </trkpt>
      <trkpt lat="45.73541" lon="4.72061">
        <ele>249.12</ele>
        <time>2012-08-25T09:10:46Z</time>
      </trkpt>
      <trkpt lat="45.73544" lon="4.72055">
        <ele>249.12</ele>
        <time>2012-08-25T09:10:47Z</time>
      </trkpt>
      <trkpt lat="45.73548" lon="4.7205">
        <ele>249.12</ele>
        <time>2012-08-25T09:10:48Z</time>
      </trkpt>
      <trkpt lat="45.73551" lon="4.72047">
        <ele>248.64</ele>
        <time>2012-08-25T09:10:49Z</time>
      </trkpt>
      <trkpt lat="45.73556" lon="4.72044">
        <ele>248.64</ele>
        <time>2012-08-25T09:10:50Z</time>
      </trkpt>
      <trkpt lat="45.7356" lon="4.72041">
        <ele>248.16</ele>
        <time>2012-08-25T09:10:51Z</time>
      </trkpt>
      <trkpt lat="45.73565" lon="4.72037">
        <ele>248.16</ele>
        <time>2012-08-25T09:10:52Z</time>
      </trkpt>
      <trkpt lat="45.73568" lon="4.72032">
        <ele>248.64</ele>
        <time>2012-08-25T09:10:53Z</time>
      </trkpt>
      <trkpt lat="45.7357" lon="4.72028">
        <ele>248.64</ele>
        <time>2012-08-25T09:10:54Z</time>
      </trkpt>
      <trkpt lat="45.73571" lon="4.72022">
        <ele>248.64</ele>
        <time>2012-08-25T09:10:55Z</time>
      </trkpt>
      <trkpt lat="45.73572" lon="4.72016">
        <ele>249.12</ele>
        <time>2012-08-25T09:10:56Z</time>
      </trkpt>
      <trkpt lat="45.7357" lon="4.72002">
        <ele>249.6</ele>
        <time>2012-08-25T09:10:58Z</time>
      </trkpt>
      <trkpt lat="45.73569" lon="4.71996">
        <ele>249.6</ele>
        <time>2012-08-25T09:10:59Z</time>
      </trkpt>
      <trkpt lat="45.73569" lon="4.7199">
        <ele>250.08</ele>
        <time>2012-08-25T09:11:00Z</time>
      </trkpt>
      <trkpt lat="45.73569" lon="4.71984">
        <ele>249.6</ele>
        <time>2012-08-25T09:11:01Z</time>
      </trkpt>
      <trkpt lat="45.73569" lon="4.71979">
        <ele>249.6</ele>
        <time>2012-08-25T09:11:02Z</time>
      </trkpt>
      <trkpt lat="45.73572" lon="4.71957">
        <ele>250.08</ele>
        <time>2012-08-25T09:11:07Z</time>
      </trkpt>
      <trkpt lat="45.73594" lon="4.71905">
        <ele>250.56</ele>
        <time>2012-08-25T09:11:20Z</time>
      </trkpt>
      <trkpt lat="45.73595" lon="4.71901">
        <ele>251.04</ele>
        <time>2012-08-25T09:11:21Z</time>
      </trkpt>
      <trkpt lat="45.73597" lon="4.71897">
        <ele>251.52</ele>
        <time>2012-08-25T09:11:22Z</time>
      </trkpt>
      <trkpt lat="45.73621" lon="4.71863">
        <ele>251.52</ele>
        <time>2012-08-25T09:11:34Z</time>
      </trkpt>
      <trkpt lat="45.73647" lon="4.71833">
        <ele>252.96</ele>
        <time>2012-08-25T09:11:47Z</time>
      </trkpt>
      <trkpt lat="45.73676" lon="4.71802">
        <ele>255.85</ele>
        <time>2012-08-25T09:12:01Z</time>
      </trkpt>
      <trkpt lat="45.73687" lon="4.71799">
        <ele>256.81</ele>
        <time>2012-08-25T09:12:09Z</time>
      </trkpt>
      <trkpt lat="45.73688" lon="4.71799">
        <ele>257.77</ele>
        <time>2012-08-25T09:12:10Z</time>
      </trkpt>
      <trkpt lat="45.7369" lon="4.71799">
        <ele>257.29</ele>
        <time>2012-08-25T09:12:11Z</time>
      </trkpt>
      <trkpt lat="45.73692" lon="4.718">
        <ele>257.29</ele>
        <time>2012-08-25T09:12:12Z</time>
      </trkpt>
      <trkpt lat="45.73694" lon="4.71801">
        <ele>257.29</ele>
        <time>2012-08-25T09:12:13Z</time>
      </trkpt>
      <trkpt lat="45.73719" lon="4.71806">
        <ele>259.21</ele>
        <time>2012-08-25T09:12:27Z</time>
      </trkpt>
      <trkpt lat="45.73752" lon="4.71801">
        <ele>262.1</ele>
        <time>2012-08-25T09:12:44Z</time>
      </trkpt>
      <trkpt lat="45.73791" lon="4.71796">
        <ele>264.98</ele>
        <time>2012-08-25T09:13:04Z</time>
      </trkpt>
      <trkpt lat="45.73823" lon="4.71788">
        <ele>266.9</ele>
        <time>2012-08-25T09:13:20Z</time>
      </trkpt>
      <trkpt lat="45.73839" lon="4.71784">
        <ele>267.38</ele>
        <time>2012-08-25T09:13:33Z</time>
      </trkpt>
      <trkpt lat="45.73841" lon="4.71784">
        <ele>267.38</ele>
        <time>2012-08-25T09:13:34Z</time>
      </trkpt>
      <trkpt lat="45.73843" lon="4.71784">
        <ele>267.86</ele>
        <time>2012-08-25T09:13:35Z</time>
      </trkpt>
      <trkpt lat="45.73844" lon="4.71783">
        <ele>267.86</ele>
        <time>2012-08-25T09:13:36Z</time>
      </trkpt>
      <trkpt lat="45.73845" lon="4.71782">
        <ele>268.35</ele>
        <time>2012-08-25T09:13:37Z</time>
      </trkpt>
      <trkpt lat="45.73845" lon="4.71779">
        <ele>267.86</ele>
        <time>2012-08-25T09:13:38Z</time>
      </trkpt>
      <trkpt lat="45.73845" lon="4.71776">
        <ele>267.86</ele>
        <time>2012-08-25T09:13:39Z</time>
      </trkpt>
      <trkpt lat="45.73845" lon="4.71771">
        <ele>267.86</ele>
        <time>2012-08-25T09:13:40Z</time>
      </trkpt>
      <trkpt lat="45.73819" lon="4.71698">
        <ele>266.9</ele>
        <time>2012-08-25T09:13:53Z</time>
      </trkpt>
      <trkpt lat="45.73789" lon="4.71607">
        <ele>263.06</ele>
        <time>2012-08-25T09:14:05Z</time>
      </trkpt>
      <trkpt lat="45.73767" lon="4.71529">
        <ele>261.62</ele>
        <time>2012-08-25T09:14:15Z</time>
      </trkpt>
      <trkpt lat="45.73767" lon="4.71521">
        <ele>262.1</ele>
        <time>2012-08-25T09:14:16Z</time>
      </trkpt>
      <trkpt lat="45.7377" lon="4.71506">
        <ele>261.62</ele>
        <time>2012-08-25T09:14:18Z</time>
      </trkpt>
      <trkpt lat="45.73769" lon="4.715">
        <ele>262.1</ele>
        <time>2012-08-25T09:14:19Z</time>
      </trkpt>
      <trkpt lat="45.73768" lon="4.71494">
        <ele>262.1</ele>
        <time>2012-08-25T09:14:20Z</time>
      </trkpt>
      <trkpt lat="45.73766" lon="4.71489">
        <ele>262.1</ele>
        <time>2012-08-25T09:14:21Z</time>
      </trkpt>
      <trkpt lat="45.73764" lon="4.71485">
        <ele>262.1</ele>
        <time>2012-08-25T09:14:22Z</time>
      </trkpt>
      <trkpt lat="45.73761" lon="4.7148">
        <ele>261.62</ele>
        <time>2012-08-25T09:14:23Z</time>
      </trkpt>
      <trkpt lat="45.7376" lon="4.71475">
        <ele>261.62</ele>
        <time>2012-08-25T09:14:24Z</time>
      </trkpt>
      <trkpt lat="45.73759" lon="4.7147">
        <ele>262.1</ele>
        <time>2012-08-25T09:14:25Z</time>
      </trkpt>
      <trkpt lat="45.73757" lon="4.71466">
        <ele>262.1</ele>
        <time>2012-08-25T09:14:26Z</time>
      </trkpt>
      <trkpt lat="45.73756" lon="4.71463">
        <ele>261.62</ele>
        <time>2012-08-25T09:14:27Z</time>
      </trkpt>
      <trkpt lat="45.73754" lon="4.7146">
        <ele>262.1</ele>
        <time>2012-08-25T09:14:28Z</time>
      </trkpt>
      <trkpt lat="45.73751" lon="4.71458">
        <ele>263.06</ele>
        <time>2012-08-25T09:14:29Z</time>
      </trkpt>
      <trkpt lat="45.73733" lon="4.71416">
        <ele>266.42</ele>
        <time>2012-08-25T09:14:41Z</time>
      </trkpt>
      <trkpt lat="45.73716" lon="4.7137">
        <ele>268.83</ele>
        <time>2012-08-25T09:14:56Z</time>
      </trkpt>
      <trkpt lat="45.73704" lon="4.71315">
        <ele>270.75</ele>
        <time>2012-08-25T09:15:13Z</time>
      </trkpt>
      <trkpt lat="45.737" lon="4.7126">
        <ele>269.31</ele>
        <time>2012-08-25T09:15:28Z</time>
      </trkpt>
      <trkpt lat="45.73699" lon="4.71233">
        <ele>268.83</ele>
        <time>2012-08-25T09:15:32Z</time>
      </trkpt>
      <trkpt lat="45.73702" lon="4.71195">
        <ele>266.42</ele>
        <time>2012-08-25T09:15:41Z</time>
      </trkpt>
      <trkpt lat="45.73704" lon="4.71195">
        <ele>265.94</ele>
        <time>2012-08-25T09:15:55Z</time>
      </trkpt>
      <trkpt lat="45.73706" lon="4.71193">
        <ele>264.98</ele>
        <time>2012-08-25T09:16:15Z</time>
      </trkpt>
      <trkpt lat="45.73709" lon="4.71156">
        <ele>264.02</ele>
        <time>2012-08-25T09:16:25Z</time>
      </trkpt>
      <trkpt lat="45.73714" lon="4.71134">
        <ele>263.54</ele>
        <time>2012-08-25T09:16:29Z</time>
      </trkpt>
      <trkpt lat="45.73719" lon="4.71103">
        <ele>263.54</ele>
        <time>2012-08-25T09:16:34Z</time>
      </trkpt>
      <trkpt lat="45.73719" lon="4.71097">
        <ele>263.54</ele>
        <time>2012-08-25T09:16:35Z</time>
      </trkpt>
      <trkpt lat="45.73718" lon="4.71068">
        <ele>261.62</ele>
        <time>2012-08-25T09:16:43Z</time>
      </trkpt>
      <trkpt lat="45.73721" lon="4.71062">
        <ele>261.62</ele>
        <time>2012-08-25T09:16:52Z</time>
      </trkpt>
      <trkpt lat="45.7373" lon="4.7105">
        <ele>263.54</ele>
        <time>2012-08-25T09:17:04Z</time>
      </trkpt>
      <trkpt lat="45.73731" lon="4.71049">
        <ele>264.02</ele>
        <time>2012-08-25T09:17:05Z</time>
      </trkpt>
      <trkpt lat="45.73737" lon="4.71046">
        <ele>264.02</ele>
        <time>2012-08-25T09:17:21Z</time>
      </trkpt>
      <trkpt lat="45.73738" lon="4.71044">
        <ele>264.5</ele>
        <time>2012-08-25T09:17:56Z</time>
      </trkpt>
      <trkpt lat="45.73735" lon="4.71042">
        <ele>264.02</ele>
        <time>2012-08-25T09:18:32Z</time>
      </trkpt>
      <trkpt lat="45.7373" lon="4.71041">
        <ele>264.5</ele>
        <time>2012-08-25T09:18:58Z</time>
      </trkpt>
      <trkpt lat="45.73727" lon="4.71039">
        <ele>264.5</ele>
        <time>2012-08-25T09:19:29Z</time>
      </trkpt>
      <trkpt lat="45.73731" lon="4.71039">
        <ele>264.5</ele>
        <time>2012-08-25T09:19:55Z</time>
      </trkpt>
      <trkpt lat="45.73732" lon="4.71038">
        <ele>264.98</ele>
        <time>2012-08-25T09:20:16Z</time>
      </trkpt>
      <trkpt lat="45.73734" lon="4.71039">
        <ele>264.98</ele>
        <time>2012-08-25T09:20:41Z</time>
      </trkpt>
      <trkpt lat="45.73742" lon="4.71041">
        <ele>265.46</ele>
        <time>2012-08-25T09:20:58Z</time>
      </trkpt>
      <trkpt lat="45.7374" lon="4.71046">
        <ele>264.98</ele>
        <time>2012-08-25T09:21:29Z</time>
      </trkpt>
      <trkpt lat="45.73743" lon="4.71045">
        <ele>265.46</ele>
        <time>2012-08-25T09:21:38Z</time>
      </trkpt>
      <trkpt lat="45.73744" lon="4.71044">
        <ele>265.94</ele>
        <time>2012-08-25T09:21:39Z</time>
      </trkpt>
      <trkpt lat="45.73759" lon="4.71036">
        <ele>267.86</ele>
        <time>2012-08-25T09:21:49Z</time>
      </trkpt>
      <trkpt lat="45.73771" lon="4.71027">
        <ele>270.27</ele>
        <time>2012-08-25T09:22:01Z</time>
      </trkpt>
      <trkpt lat="45.73781" lon="4.71015">
        <ele>272.19</ele>
        <time>2012-08-25T09:22:13Z</time>
      </trkpt>
      <trkpt lat="45.73795" lon="4.71006">
        <ele>272.67</ele>
        <time>2012-08-25T09:22:27Z</time>
      </trkpt>
      <trkpt lat="45.738" lon="4.71001">
        <ele>273.63</ele>
        <time>2012-08-25T09:22:43Z</time>
      </trkpt>
      <trkpt lat="45.73802" lon="4.71001">
        <ele>273.63</ele>
        <time>2012-08-25T09:22:44Z</time>
      </trkpt>
      <trkpt lat="45.73814" lon="4.70996">
        <ele>275.07</ele>
        <time>2012-08-25T09:22:55Z</time>
      </trkpt>
      <trkpt lat="45.73826" lon="4.70987">
        <ele>276.52</ele>
        <time>2012-08-25T09:23:07Z</time>
      </trkpt>
      <trkpt lat="45.73835" lon="4.70974">
        <ele>277.96</ele>
        <time>2012-08-25T09:23:19Z</time>
      </trkpt>
      <trkpt lat="45.7384" lon="4.70964">
        <ele>279.4</ele>
        <time>2012-08-25T09:23:26Z</time>
      </trkpt>
      <trkpt lat="45.73845" lon="4.70957">
        <ele>280.84</ele>
        <time>2012-08-25T09:23:31Z</time>
      </trkpt>
      <trkpt lat="45.73855" lon="4.70934">
        <ele>283.25</ele>
        <time>2012-08-25T09:23:46Z</time>
      </trkpt>
      <trkpt lat="45.73861" lon="4.70907">
        <ele>285.17</ele>
        <time>2012-08-25T09:24:01Z</time>
      </trkpt>
      <trkpt lat="45.7386" lon="4.70894">
        <ele>286.13</ele>
        <time>2012-08-25T09:24:09Z</time>
      </trkpt>
      <trkpt lat="45.7386" lon="4.70892">
        <ele>286.61</ele>
        <time>2012-08-25T09:24:10Z</time>
      </trkpt>
      <trkpt lat="45.73858" lon="4.70879">
        <ele>287.57</ele>
        <time>2012-08-25T09:24:23Z</time>
      </trkpt>
      <trkpt lat="45.73857" lon="4.70874">
        <ele>287.57</ele>
        <time>2012-08-25T09:24:34Z</time>
      </trkpt>
      <trkpt lat="45.73857" lon="4.70872">
        <ele>287.57</ele>
        <time>2012-08-25T09:24:35Z</time>
      </trkpt>
      <trkpt lat="45.73857" lon="4.70869">
        <ele>287.57</ele>
        <time>2012-08-25T09:24:36Z</time>
      </trkpt>
      <trkpt lat="45.73857" lon="4.70867">
        <ele>288.05</ele>
        <time>2012-08-25T09:24:37Z</time>
      </trkpt>
      <trkpt lat="45.73857" lon="4.70861">
        <ele>289.01</ele>
        <time>2012-08-25T09:24:41Z</time>
      </trkpt>
      <trkpt lat="45.73858" lon="4.70859">
        <ele>289.01</ele>
        <time>2012-08-25T09:24:42Z</time>
      </trkpt>
      <trkpt lat="45.73858" lon="4.70855">
        <ele>289.49</ele>
        <time>2012-08-25T09:24:44Z</time>
      </trkpt>
      <trkpt lat="45.73858" lon="4.70853">
        <ele>289.97</ele>
        <time>2012-08-25T09:24:45Z</time>
      </trkpt>
      <trkpt lat="45.73858" lon="4.7085">
        <ele>289.97</ele>
        <time>2012-08-25T09:24:46Z</time>
      </trkpt>
      <trkpt lat="45.73859" lon="4.70827">
        <ele>291.9</ele>
        <time>2012-08-25T09:24:59Z</time>
      </trkpt>
      <trkpt lat="45.73859" lon="4.70816">
        <ele>292.86</ele>
        <time>2012-08-25T09:25:04Z</time>
      </trkpt>
      <trkpt lat="45.73863" lon="4.70792">
        <ele>293.82</ele>
        <time>2012-08-25T09:25:21Z</time>
      </trkpt>
      <trkpt lat="45.73865" lon="4.7078">
        <ele>294.3</ele>
        <time>2012-08-25T09:25:29Z</time>
      </trkpt>
      <trkpt lat="45.73866" lon="4.70775">
        <ele>294.3</ele>
        <time>2012-08-25T09:25:32Z</time>
      </trkpt>
      <trkpt lat="45.73867" lon="4.7077">
        <ele>294.78</ele>
        <time>2012-08-25T09:25:35Z</time>
      </trkpt>
      <trkpt lat="45.73868" lon="4.70768">
        <ele>294.78</ele>
        <time>2012-08-25T09:25:36Z</time>
      </trkpt>
      <trkpt lat="45.73868" lon="4.70767">
        <ele>294.78</ele>
        <time>2012-08-25T09:25:37Z</time>
      </trkpt>
      <trkpt lat="45.73871" lon="4.70762">
        <ele>295.26</ele>
        <time>2012-08-25T09:25:41Z</time>
      </trkpt>
      <trkpt lat="45.73872" lon="4.70756">
        <ele>295.26</ele>
        <time>2012-08-25T09:25:45Z</time>
      </trkpt>
      <trkpt lat="45.73874" lon="4.7075">
        <ele>295.74</ele>
        <time>2012-08-25T09:25:49Z</time>
      </trkpt>
      <trkpt lat="45.73877" lon="4.70742">
        <ele>295.74</ele>
        <time>2012-08-25T09:25:55Z</time>
      </trkpt>
      <trkpt lat="45.73877" lon="4.70741">
        <ele>296.22</ele>
        <time>2012-08-25T09:25:56Z</time>
      </trkpt>
      <trkpt lat="45.73876" lon="4.70735">
        <ele>295.74</ele>
        <time>2012-08-25T09:26:11Z</time>
      </trkpt>
      <trkpt lat="45.73876" lon="4.70736">
        <ele>295.74</ele>
        <time>2012-08-25T09:26:37Z</time>
      </trkpt>
      <trkpt lat="45.73876" lon="4.70738">
        <ele>296.22</ele>
        <time>2012-08-25T09:27:02Z</time>
      </trkpt>
      <trkpt lat="45.73873" lon="4.70736">
        <ele>296.22</ele>
        <time>2012-08-25T09:27:21Z</time>
      </trkpt>
      <trkpt lat="45.7387" lon="4.70736">
        <ele>296.22</ele>
        <time>2012-08-25T09:27:59Z</time>
      </trkpt>
      <trkpt lat="45.7387" lon="4.70735">
        <ele>296.22</ele>
        <time>2012-08-25T09:28:38Z</time>
      </trkpt>
      <trkpt lat="45.73872" lon="4.70735">
        <ele>296.7</ele>
        <time>2012-08-25T09:28:40Z</time>
      </trkpt>
      <trkpt lat="45.73873" lon="4.70733">
        <ele>296.22</ele>
        <time>2012-08-25T09:28:41Z</time>
      </trkpt>
      <trkpt lat="45.73875" lon="4.70729">
        <ele>296.22</ele>
        <time>2012-08-25T09:28:49Z</time>
      </trkpt>
      <trkpt lat="45.73874" lon="4.70727">
        <ele>296.7</ele>
        <time>2012-08-25T09:28:50Z</time>
      </trkpt>
      <trkpt lat="45.73873" lon="4.70726">
        <ele>296.7</ele>
        <time>2012-08-25T09:28:51Z</time>
      </trkpt>
      <trkpt lat="45.73872" lon="4.70725">
        <ele>296.22</ele>
        <time>2012-08-25T09:28:52Z</time>
      </trkpt>
      <trkpt lat="45.7387" lon="4.70724">
        <ele>296.22</ele>
        <time>2012-08-25T09:28:53Z</time>
      </trkpt>
      <trkpt lat="45.73863" lon="4.70721">
        <ele>295.74</ele>
        <time>2012-08-25T09:29:04Z</time>
      </trkpt>
      <trkpt lat="45.73854" lon="4.70714">
        <ele>295.74</ele>
        <time>2012-08-25T09:29:17Z</time>
      </trkpt>
      <trkpt lat="45.73851" lon="4.70709">
        <ele>295.74</ele>
        <time>2012-08-25T09:29:34Z</time>
      </trkpt>
      <trkpt lat="45.73828" lon="4.70689">
        <ele>295.26</ele>
        <time>2012-08-25T09:29:48Z</time>
      </trkpt>
      <trkpt lat="45.73785" lon="4.70659">
        <ele>294.78</ele>
        <time>2012-08-25T09:30:01Z</time>
      </trkpt>
      <trkpt lat="45.7378" lon="4.70656">
        <ele>293.82</ele>
        <time>2012-08-25T09:30:02Z</time>
      </trkpt>
      <trkpt lat="45.73741" lon="4.70643">
        <ele>293.34</ele>
        <time>2012-08-25T09:30:11Z</time>
      </trkpt>
      <trkpt lat="45.73737" lon="4.70643">
        <ele>293.34</ele>
        <time>2012-08-25T09:30:12Z</time>
      </trkpt>
      <trkpt lat="45.7369" lon="4.70638">
        <ele>292.38</ele>
        <time>2012-08-25T09:30:25Z</time>
      </trkpt>
      <trkpt lat="45.73647" lon="4.70628">
        <ele>291.9</ele>
        <time>2012-08-25T09:30:36Z</time>
      </trkpt>
      <trkpt lat="45.73628" lon="4.7062">
        <ele>292.38</ele>
        <time>2012-08-25T09:30:40Z</time>
      </trkpt>
      <trkpt lat="45.73623" lon="4.70619">
        <ele>292.38</ele>
        <time>2012-08-25T09:30:41Z</time>
      </trkpt>
      <trkpt lat="45.73588" lon="4.70604">
        <ele>291.42</ele>
        <time>2012-08-25T09:30:50Z</time>
      </trkpt>
      <trkpt lat="45.73579" lon="4.70599">
        <ele>291.9</ele>
        <time>2012-08-25T09:30:52Z</time>
      </trkpt>
      <trkpt lat="45.73575" lon="4.70597">
        <ele>291.9</ele>
        <time>2012-08-25T09:30:53Z</time>
      </trkpt>
      <trkpt lat="45.73566" lon="4.70592">
        <ele>291.9</ele>
        <time>2012-08-25T09:30:55Z</time>
      </trkpt>
      <trkpt lat="45.73558" lon="4.70585">
        <ele>291.9</ele>
        <time>2012-08-25T09:30:57Z</time>
      </trkpt>
      <trkpt lat="45.73554" lon="4.70581">
        <ele>291.9</ele>
        <time>2012-08-25T09:30:58Z</time>
      </trkpt>
      <trkpt lat="45.73549" lon="4.70579">
        <ele>291.9</ele>
        <time>2012-08-25T09:30:59Z</time>
      </trkpt>
      <trkpt lat="45.73545" lon="4.70576">
        <ele>291.9</ele>
        <time>2012-08-25T09:31:00Z</time>
      </trkpt>
      <trkpt lat="45.73542" lon="4.70573">
        <ele>291.9</ele>
        <time>2012-08-25T09:31:01Z</time>
      </trkpt>
      <trkpt lat="45.73542" lon="4.70569">
        <ele>291.42</ele>
        <time>2012-08-25T09:31:02Z</time>
      </trkpt>
      <trkpt lat="45.73543" lon="4.70567">
        <ele>291.9</ele>
        <time>2012-08-25T09:31:03Z</time>
      </trkpt>
      <trkpt lat="45.73545" lon="4.70565">
        <ele>291.42</ele>
        <time>2012-08-25T09:31:04Z</time>
      </trkpt>
      <trkpt lat="45.73547" lon="4.70563">
        <ele>291.9</ele>
        <time>2012-08-25T09:31:05Z</time>
      </trkpt>
      <trkpt lat="45.73549" lon="4.70562">
        <ele>292.38</ele>
        <time>2012-08-25T09:31:06Z</time>
      </trkpt>
      <trkpt lat="45.73561" lon="4.70561">
        <ele>292.86</ele>
        <time>2012-08-25T09:31:11Z</time>
      </trkpt>
      <trkpt lat="45.73563" lon="4.70561">
        <ele>294.3</ele>
        <time>2012-08-25T09:31:12Z</time>
      </trkpt>
      <trkpt lat="45.73564" lon="4.70562">
        <ele>294.3</ele>
        <time>2012-08-25T09:31:13Z</time>
      </trkpt>
      <trkpt lat="45.73566" lon="4.70567">
        <ele>294.78</ele>
        <time>2012-08-25T09:31:26Z</time>
      </trkpt>
      <trkpt lat="45.73566" lon="4.70567">
        <ele>294.78</ele>
        <time>2012-08-25T09:31:56Z</time>
      </trkpt>
      <trkpt lat="45.73564" lon="4.70566">
        <ele>294.78</ele>
        <time>2012-08-25T09:32:12Z</time>
      </trkpt>
      <trkpt lat="45.73565" lon="4.70567">
        <ele>294.3</ele>
        <time>2012-08-25T09:32:32Z</time>
      </trkpt>
      <trkpt lat="45.73565" lon="4.70569">
        <ele>294.78</ele>
        <time>2012-08-25T09:32:36Z</time>
      </trkpt>
      <trkpt lat="45.73564" lon="4.70571">
        <ele>294.3</ele>
        <time>2012-08-25T09:32:37Z</time>
      </trkpt>
      <trkpt lat="45.73563" lon="4.70573">
        <ele>294.3</ele>
        <time>2012-08-25T09:32:38Z</time>
      </trkpt>
      <trkpt lat="45.73553" lon="4.70591">
        <ele>290.94</ele>
        <time>2012-08-25T09:32:43Z</time>
      </trkpt>
      <trkpt lat="45.73552" lon="4.70594">
        <ele>290.94</ele>
        <time>2012-08-25T09:32:44Z</time>
      </trkpt>
      <trkpt lat="45.73552" lon="4.70598">
        <ele>290.46</ele>
        <time>2012-08-25T09:32:45Z</time>
      </trkpt>
      <trkpt lat="45.73552" lon="4.70601">
        <ele>289.49</ele>
        <time>2012-08-25T09:32:46Z</time>
      </trkpt>
      <trkpt lat="45.73553" lon="4.70603">
        <ele>289.49</ele>
        <time>2012-08-25T09:32:47Z</time>
      </trkpt>
      <trkpt lat="45.73554" lon="4.70604">
        <ele>289.49</ele>
        <time>2012-08-25T09:32:48Z</time>
      </trkpt>
      <trkpt lat="45.73555" lon="4.70606">
        <ele>289.01</ele>
        <time>2012-08-25T09:32:49Z</time>
      </trkpt>
      <trkpt lat="45.73557" lon="4.70608">
        <ele>288.53</ele>
        <time>2012-08-25T09:32:50Z</time>
      </trkpt>
      <trkpt lat="45.73558" lon="4.7061">
        <ele>289.01</ele>
        <time>2012-08-25T09:32:51Z</time>
      </trkpt>
      <trkpt lat="45.7356" lon="4.70612">
        <ele>288.53</ele>
        <time>2012-08-25T09:32:52Z</time>
      </trkpt>
      <trkpt lat="45.73564" lon="4.70623">
        <ele>287.57</ele>
        <time>2012-08-25T09:33:01Z</time>
      </trkpt>
      <trkpt lat="45.73563" lon="4.70621">
        <ele>288.05</ele>
        <time>2012-08-25T09:33:18Z</time>
      </trkpt>
      <trkpt lat="45.7356" lon="4.7062">
        <ele>287.57</ele>
        <time>2012-08-25T09:33:26Z</time>
      </trkpt>
      <trkpt lat="45.73559" lon="4.70619">
        <ele>287.09</ele>
        <time>2012-08-25T09:33:36Z</time>
      </trkpt>
      <trkpt lat="45.73562" lon="4.70618">
        <ele>288.05</ele>
        <time>2012-08-25T09:33:46Z</time>
      </trkpt>
      <trkpt lat="45.73563" lon="4.7062">
        <ele>288.05</ele>
        <time>2012-08-25T09:34:02Z</time>
      </trkpt>
      <trkpt lat="45.7356" lon="4.70621">
        <ele>287.57</ele>
        <time>2012-08-25T09:34:09Z</time>
      </trkpt>
      <trkpt lat="45.73559" lon="4.7062">
        <ele>287.57</ele>
        <time>2012-08-25T09:34:10Z</time>
      </trkpt>
      <trkpt lat="45.73547" lon="4.7062">
        <ele>285.65</ele>
        <time>2012-08-25T09:34:16Z</time>
      </trkpt>
      <trkpt lat="45.73546" lon="4.70621">
        <ele>285.65</ele>
        <time>2012-08-25T09:34:17Z</time>
      </trkpt>
      <trkpt lat="45.73545" lon="4.70623">
        <ele>284.69</ele>
        <time>2012-08-25T09:34:18Z</time>
      </trkpt>
      <trkpt lat="45.73545" lon="4.70625">
        <ele>284.21</ele>
        <time>2012-08-25T09:34:19Z</time>
      </trkpt>
      <trkpt lat="45.73545" lon="4.70627">
        <ele>283.73</ele>
        <time>2012-08-25T09:34:20Z</time>
      </trkpt>
      <trkpt lat="45.73546" lon="4.70629">
        <ele>283.25</ele>
        <time>2012-08-25T09:34:21Z</time>
      </trkpt>
      <trkpt lat="45.73547" lon="4.70631">
        <ele>283.25</ele>
        <time>2012-08-25T09:34:22Z</time>
      </trkpt>
      <trkpt lat="45.73548" lon="4.70633">
        <ele>282.77</ele>
        <time>2012-08-25T09:34:23Z</time>
      </trkpt>
      <trkpt lat="45.73549" lon="4.70635">
        <ele>282.77</ele>
        <time>2012-08-25T09:34:24Z</time>
      </trkpt>
      <trkpt lat="45.73552" lon="4.70636">
        <ele>282.28</ele>
        <time>2012-08-25T09:34:25Z</time>
      </trkpt>
      <trkpt lat="45.73554" lon="4.70637">
        <ele>282.77</ele>
        <time>2012-08-25T09:34:26Z</time>
      </trkpt>
      <trkpt lat="45.73557" lon="4.70637">
        <ele>282.28</ele>
        <time>2012-08-25T09:34:27Z</time>
      </trkpt>
      <trkpt lat="45.73563" lon="4.70638">
        <ele>284.21</ele>
        <time>2012-08-25T09:34:35Z</time>
      </trkpt>
      <trkpt lat="45.73565" lon="4.70638">
        <ele>283.25</ele>
        <time>2012-08-25T09:35:04Z</time>
      </trkpt>
      <trkpt lat="45.73565" lon="4.70639">
        <ele>283.73</ele>
        <time>2012-08-25T09:35:43Z</time>
      </trkpt>
      <trkpt lat="45.73565" lon="4.70636">
        <ele>282.77</ele>
        <time>2012-08-25T09:35:57Z</time>
      </trkpt>
      <trkpt lat="45.73564" lon="4.70638">
        <ele>283.25</ele>
        <time>2012-08-25T09:36:15Z</time>
      </trkpt>
      <trkpt lat="45.73564" lon="4.70638">
        <ele>283.25</ele>
        <time>2012-08-25T09:36:30Z</time>
      </trkpt>
      <trkpt lat="45.73564" lon="4.70638">
        <ele>282.77</ele>
        <time>2012-08-25T09:36:50Z</time>
      </trkpt>
      <trkpt lat="45.73565" lon="4.70639">
        <ele>283.25</ele>
        <time>2012-08-25T09:36:57Z</time>
      </trkpt>
      <trkpt lat="45.73566" lon="4.70639">
        <ele>283.73</ele>
        <time>2012-08-25T09:36:58Z</time>
      </trkpt>
      <trkpt lat="45.73567" lon="4.7064">
        <ele>283.73</ele>
        <time>2012-08-25T09:36:59Z</time>
      </trkpt>
      <trkpt lat="45.73574" lon="4.70641">
        <ele>284.69</ele>
        <time>2012-08-25T09:37:09Z</time>
      </trkpt>
      <trkpt lat="45.73578" lon="4.7064">
        <ele>285.17</ele>
        <time>2012-08-25T09:37:32Z</time>
      </trkpt>
      <trkpt lat="45.73591" lon="4.70635">
        <ele>286.61</ele>
        <time>2012-08-25T09:37:43Z</time>
      </trkpt>
      <trkpt lat="45.73593" lon="4.70633">
        <ele>287.09</ele>
        <time>2012-08-25T09:37:44Z</time>
      </trkpt>
      <trkpt lat="45.73608" lon="4.7062">
        <ele>290.46</ele>
        <time>2012-08-25T09:37:53Z</time>
      </trkpt>
      <trkpt lat="45.73608" lon="4.7062">
        <ele>290.94</ele>
        <time>2012-08-25T09:37:54Z</time>
      </trkpt>
      <trkpt lat="45.73613" lon="4.70618">
        <ele>290.94</ele>
        <time>2012-08-25T09:38:05Z</time>
      </trkpt>
      <trkpt lat="45.73618" lon="4.70616">
        <ele>291.42</ele>
        <time>2012-08-25T09:38:20Z</time>
      </trkpt>
      <trkpt lat="45.73621" lon="4.70612">
        <ele>291.9</ele>
        <time>2012-08-25T09:38:42Z</time>
      </trkpt>
      <trkpt lat="45.73624" lon="4.70607">
        <ele>292.86</ele>
        <time>2012-08-25T09:38:56Z</time>
      </trkpt>
      <trkpt lat="45.73625" lon="4.70606">
        <ele>293.34</ele>
        <time>2012-08-25T09:38:57Z</time>
      </trkpt>
      <trkpt lat="45.73626" lon="4.70605">
        <ele>293.34</ele>
        <time>2012-08-25T09:38:58Z</time>
      </trkpt>
      <trkpt lat="45.73626" lon="4.70603">
        <ele>293.34</ele>
        <time>2012-08-25T09:38:59Z</time>
      </trkpt>
      <trkpt lat="45.73627" lon="4.70602">
        <ele>293.82</ele>
        <time>2012-08-25T09:39:00Z</time>
      </trkpt>
      <trkpt lat="45.73626" lon="4.70599">
        <ele>293.82</ele>
        <time>2012-08-25T09:39:01Z</time>
      </trkpt>
      <trkpt lat="45.73625" lon="4.70597">
        <ele>293.82</ele>
        <time>2012-08-25T09:39:02Z</time>
      </trkpt>
      <trkpt lat="45.73624" lon="4.70596">
        <ele>294.3</ele>
        <time>2012-08-25T09:39:03Z</time>
      </trkpt>
      <trkpt lat="45.73622" lon="4.70596">
        <ele>294.78</ele>
        <time>2012-08-25T09:39:04Z</time>
      </trkpt>
      <trkpt lat="45.7362" lon="4.70596">
        <ele>294.78</ele>
        <time>2012-08-25T09:39:05Z</time>
      </trkpt>
      <trkpt lat="45.73618" lon="4.70597">
        <ele>294.78</ele>
        <time>2012-08-25T09:39:06Z</time>
      </trkpt>
      <trkpt lat="45.73579" lon="4.70585">
        <ele>294.3</ele>
        <time>2012-08-25T09:39:20Z</time>
      </trkpt>
      <trkpt lat="45.73566" lon="4.70569">
        <ele>294.3</ele>
        <time>2012-08-25T09:39:27Z</time>
      </trkpt>
      <trkpt lat="45.73564" lon="4.70569">
        <ele>294.3</ele>
        <time>2012-08-25T09:39:40Z</time>
      </trkpt>
      <trkpt lat="45.73564" lon="4.70566">
        <ele>295.26</ele>
        <time>2012-08-25T09:39:57Z</time>
      </trkpt>
      <trkpt lat="45.73564" lon="4.70568">
        <ele>294.3</ele>
        <time>2012-08-25T09:40:07Z</time>
      </trkpt>
      <trkpt lat="45.73563" lon="4.70569">
        <ele>294.3</ele>
        <time>2012-08-25T09:40:09Z</time>
      </trkpt>
      <trkpt lat="45.73563" lon="4.7057">
        <ele>294.78</ele>
        <time>2012-08-25T09:40:10Z</time>
      </trkpt>
      <trkpt lat="45.73562" lon="4.70572">
        <ele>294.3</ele>
        <time>2012-08-25T09:40:11Z</time>
      </trkpt>
      <trkpt lat="45.7356" lon="4.70574">
        <ele>294.3</ele>
        <time>2012-08-25T09:40:12Z</time>
      </trkpt>
      <trkpt lat="45.73559" lon="4.70576">
        <ele>293.82</ele>
        <time>2012-08-25T09:40:13Z</time>
      </trkpt>
      <trkpt lat="45.73557" lon="4.70582">
        <ele>292.38</ele>
        <time>2012-08-25T09:40:15Z</time>
      </trkpt>
      <trkpt lat="45.73553" lon="4.7059">
        <ele>290.94</ele>
        <time>2012-08-25T09:40:17Z</time>
      </trkpt>
      <trkpt lat="45.73536" lon="4.70605">
        <ele>288.05</ele>
        <time>2012-08-25T09:40:26Z</time>
      </trkpt>
      <trkpt lat="45.73533" lon="4.70608">
        <ele>287.57</ele>
        <time>2012-08-25T09:40:40Z</time>
      </trkpt>
      <trkpt lat="45.73529" lon="4.70611">
        <ele>286.13</ele>
        <time>2012-08-25T09:40:44Z</time>
      </trkpt>
      <trkpt lat="45.73528" lon="4.70612">
        <ele>284.69</ele>
        <time>2012-08-25T09:40:45Z</time>
      </trkpt>
      <trkpt lat="45.73526" lon="4.70615">
        <ele>284.21</ele>
        <time>2012-08-25T09:40:46Z</time>
      </trkpt>
      <trkpt lat="45.73525" lon="4.70616">
        <ele>283.73</ele>
        <time>2012-08-25T09:40:47Z</time>
      </trkpt>
      <trkpt lat="45.73522" lon="4.70618">
        <ele>282.28</ele>
        <time>2012-08-25T09:40:49Z</time>
      </trkpt>
      <trkpt lat="45.73518" lon="4.70628">
        <ele>280.84</ele>
        <time>2012-08-25T09:40:54Z</time>
      </trkpt>
      <trkpt lat="45.73517" lon="4.70634">
        <ele>279.88</ele>
        <time>2012-08-25T09:40:56Z</time>
      </trkpt>
      <trkpt lat="45.73518" lon="4.70645">
        <ele>278.44</ele>
        <time>2012-08-25T09:41:01Z</time>
      </trkpt>
      <trkpt lat="45.73516" lon="4.70653">
        <ele>277.48</ele>
        <time>2012-08-25T09:41:14Z</time>
      </trkpt>
      <trkpt lat="45.73514" lon="4.70653">
        <ele>277</ele>
        <time>2012-08-25T09:41:45Z</time>
      </trkpt>
      <trkpt lat="45.73512" lon="4.70654">
        <ele>277</ele>
        <time>2012-08-25T09:42:16Z</time>
      </trkpt>
      <trkpt lat="45.73512" lon="4.70655">
        <ele>277.48</ele>
        <time>2012-08-25T09:42:45Z</time>
      </trkpt>
      <trkpt lat="45.73513" lon="4.70656">
        <ele>276.52</ele>
        <time>2012-08-25T09:43:04Z</time>
      </trkpt>
      <trkpt lat="45.73484" lon="4.70647">
        <ele>273.63</ele>
        <time>2012-08-25T09:43:14Z</time>
      </trkpt>
      <trkpt lat="45.73481" lon="4.70645">
        <ele>273.63</ele>
        <time>2012-08-25T09:43:15Z</time>
      </trkpt>
      <trkpt lat="45.73473" lon="4.70639">
        <ele>272.19</ele>
        <time>2012-08-25T09:43:18Z</time>
      </trkpt>
      <trkpt lat="45.73471" lon="4.70641">
        <ele>272.67</ele>
        <time>2012-08-25T09:43:19Z</time>
      </trkpt>
      <trkpt lat="45.73469" lon="4.70643">
        <ele>271.71</ele>
        <time>2012-08-25T09:43:20Z</time>
      </trkpt>
      <trkpt lat="45.73468" lon="4.70646">
        <ele>271.23</ele>
        <time>2012-08-25T09:43:21Z</time>
      </trkpt>
      <trkpt lat="45.73467" lon="4.70649">
        <ele>270.75</ele>
        <time>2012-08-25T09:43:22Z</time>
      </trkpt>
      <trkpt lat="45.73467" lon="4.70652">
        <ele>270.27</ele>
        <time>2012-08-25T09:43:23Z</time>
      </trkpt>
      <trkpt lat="45.73468" lon="4.70655">
        <ele>270.27</ele>
        <time>2012-08-25T09:43:24Z</time>
      </trkpt>
      <trkpt lat="45.7347" lon="4.70658">
        <ele>270.27</ele>
        <time>2012-08-25T09:43:25Z</time>
      </trkpt>
      <trkpt lat="45.73488" lon="4.70675">
        <ele>267.38</ele>
        <time>2012-08-25T09:43:36Z</time>
      </trkpt>
      <trkpt lat="45.73497" lon="4.70678">
        <ele>265.46</ele>
        <time>2012-08-25T09:43:42Z</time>
      </trkpt>
      <trkpt lat="45.73511" lon="4.70696">
        <ele>261.62</ele>
        <time>2012-08-25T09:43:53Z</time>
      </trkpt>
      <trkpt lat="45.73513" lon="4.70699">
        <ele>261.62</ele>
        <time>2012-08-25T09:43:54Z</time>
      </trkpt>
      <trkpt lat="45.73531" lon="4.70728">
        <ele>258.73</ele>
        <time>2012-08-25T09:44:03Z</time>
      </trkpt>
      <trkpt lat="45.73535" lon="4.70736">
        <ele>258.73</ele>
        <time>2012-08-25T09:44:07Z</time>
      </trkpt>
      <trkpt lat="45.73536" lon="4.70737">
        <ele>258.25</ele>
        <time>2012-08-25T09:44:08Z</time>
      </trkpt>
      <trkpt lat="45.73537" lon="4.70738">
        <ele>258.73</ele>
        <time>2012-08-25T09:44:09Z</time>
      </trkpt>
      <trkpt lat="45.73539" lon="4.70739">
        <ele>258.25</ele>
        <time>2012-08-25T09:44:10Z</time>
      </trkpt>
      <trkpt lat="45.7354" lon="4.70741">
        <ele>257.77</ele>
        <time>2012-08-25T09:44:11Z</time>
      </trkpt>
      <trkpt lat="45.73543" lon="4.7074">
        <ele>258.25</ele>
        <time>2012-08-25T09:44:27Z</time>
      </trkpt>
      <trkpt lat="45.73548" lon="4.70745">
        <ele>258.25</ele>
        <time>2012-08-25T09:44:42Z</time>
      </trkpt>
      <trkpt lat="45.73549" lon="4.70747">
        <ele>257.77</ele>
        <time>2012-08-25T09:44:43Z</time>
      </trkpt>
      <trkpt lat="45.73551" lon="4.70748">
        <ele>257.77</ele>
        <time>2012-08-25T09:44:44Z</time>
      </trkpt>
      <trkpt lat="45.73552" lon="4.7075">
        <ele>258.25</ele>
        <time>2012-08-25T09:44:45Z</time>
      </trkpt>
      <trkpt lat="45.73554" lon="4.70751">
        <ele>258.25</ele>
        <time>2012-08-25T09:44:46Z</time>
      </trkpt>
      <trkpt lat="45.73591" lon="4.70783">
        <ele>257.29</ele>
        <time>2012-08-25T09:45:00Z</time>
      </trkpt>
      <trkpt lat="45.73619" lon="4.7082">
        <ele>256.81</ele>
        <time>2012-08-25T09:45:12Z</time>
      </trkpt>
      <trkpt lat="45.73639" lon="4.70856">
        <ele>257.29</ele>
        <time>2012-08-25T09:45:22Z</time>
      </trkpt>
      <trkpt lat="45.73659" lon="4.70902">
        <ele>257.77</ele>
        <time>2012-08-25T09:45:33Z</time>
      </trkpt>
      <trkpt lat="45.73672" lon="4.70958">
        <ele>258.73</ele>
        <time>2012-08-25T09:45:44Z</time>
      </trkpt>
      <trkpt lat="45.73681" lon="4.71004">
        <ele>259.69</ele>
        <time>2012-08-25T09:45:54Z</time>
      </trkpt>
      <trkpt lat="45.73709" lon="4.71065">
        <ele>261.14</ele>
        <time>2012-08-25T09:46:08Z</time>
      </trkpt>
      <trkpt lat="45.73713" lon="4.71122">
        <ele>263.54</ele>
        <time>2012-08-25T09:46:21Z</time>
      </trkpt>
      <trkpt lat="45.73701" lon="4.71192">
        <ele>264.98</ele>
        <time>2012-08-25T09:46:39Z</time>
      </trkpt>
      <trkpt lat="45.73697" lon="4.7124">
        <ele>266.9</ele>
        <time>2012-08-25T09:46:55Z</time>
      </trkpt>
      <trkpt lat="45.73698" lon="4.71291">
        <ele>268.83</ele>
        <time>2012-08-25T09:47:12Z</time>
      </trkpt>
      <trkpt lat="45.73707" lon="4.71343">
        <ele>269.79</ele>
        <time>2012-08-25T09:47:27Z</time>
      </trkpt>
      <trkpt lat="45.73721" lon="4.71395">
        <ele>268.35</ele>
        <time>2012-08-25T09:47:37Z</time>
      </trkpt>
      <trkpt lat="45.73724" lon="4.714">
        <ele>267.86</ele>
        <time>2012-08-25T09:47:38Z</time>
      </trkpt>
      <trkpt lat="45.73733" lon="4.71419">
        <ele>265.94</ele>
        <time>2012-08-25T09:47:41Z</time>
      </trkpt>
      <trkpt lat="45.73739" lon="4.71433">
        <ele>265.46</ele>
        <time>2012-08-25T09:47:43Z</time>
      </trkpt>
      <trkpt lat="45.73749" lon="4.71454">
        <ele>264.02</ele>
        <time>2012-08-25T09:47:46Z</time>
      </trkpt>
      <trkpt lat="45.73752" lon="4.7146">
        <ele>263.06</ele>
        <time>2012-08-25T09:47:47Z</time>
      </trkpt>
      <trkpt lat="45.73758" lon="4.7147">
        <ele>262.1</ele>
        <time>2012-08-25T09:47:49Z</time>
      </trkpt>
      <trkpt lat="45.73759" lon="4.71475">
        <ele>261.62</ele>
        <time>2012-08-25T09:47:50Z</time>
      </trkpt>
      <trkpt lat="45.73758" lon="4.71479">
        <ele>261.14</ele>
        <time>2012-08-25T09:47:51Z</time>
      </trkpt>
      <trkpt lat="45.73754" lon="4.71484">
        <ele>261.14</ele>
        <time>2012-08-25T09:47:52Z</time>
      </trkpt>
      <trkpt lat="45.7375" lon="4.71488">
        <ele>261.14</ele>
        <time>2012-08-25T09:47:53Z</time>
      </trkpt>
      <trkpt lat="45.73746" lon="4.71492">
        <ele>260.65</ele>
        <time>2012-08-25T09:47:54Z</time>
      </trkpt>
      <trkpt lat="45.73742" lon="4.71498">
        <ele>260.17</ele>
        <time>2012-08-25T09:47:55Z</time>
      </trkpt>
      <trkpt lat="45.7374" lon="4.71505">
        <ele>260.65</ele>
        <time>2012-08-25T09:47:56Z</time>
      </trkpt>
      <trkpt lat="45.73739" lon="4.71512">
        <ele>259.69</ele>
        <time>2012-08-25T09:47:57Z</time>
      </trkpt>
      <trkpt lat="45.73741" lon="4.7152">
        <ele>259.69</ele>
        <time>2012-08-25T09:47:58Z</time>
      </trkpt>
      <trkpt lat="45.73745" lon="4.71526">
        <ele>259.69</ele>
        <time>2012-08-25T09:47:59Z</time>
      </trkpt>
      <trkpt lat="45.7375" lon="4.71531">
        <ele>260.17</ele>
        <time>2012-08-25T09:48:00Z</time>
      </trkpt>
      <trkpt lat="45.73755" lon="4.71536">
        <ele>260.17</ele>
        <time>2012-08-25T09:48:01Z</time>
      </trkpt>
      <trkpt lat="45.7376" lon="4.71542">
        <ele>260.17</ele>
        <time>2012-08-25T09:48:02Z</time>
      </trkpt>
      <trkpt lat="45.73762" lon="4.71547">
        <ele>260.17</ele>
        <time>2012-08-25T09:48:03Z</time>
      </trkpt>
      <trkpt lat="45.73764" lon="4.71552">
        <ele>260.65</ele>
        <time>2012-08-25T09:48:04Z</time>
      </trkpt>
      <trkpt lat="45.73789" lon="4.71627">
        <ele>262.58</ele>
        <time>2012-08-25T09:48:20Z</time>
      </trkpt>
      <trkpt lat="45.7379" lon="4.71632">
        <ele>262.58</ele>
        <time>2012-08-25T09:48:22Z</time>
      </trkpt>
      <trkpt lat="45.73786" lon="4.71637">
        <ele>262.58</ele>
        <time>2012-08-25T09:48:25Z</time>
      </trkpt>
      <trkpt lat="45.73783" lon="4.71635">
        <ele>262.58</ele>
        <time>2012-08-25T09:48:28Z</time>
      </trkpt>
      <trkpt lat="45.73768" lon="4.7159">
        <ele>261.62</ele>
        <time>2012-08-25T09:48:40Z</time>
      </trkpt>
      <trkpt lat="45.73756" lon="4.71558">
        <ele>260.17</ele>
        <time>2012-08-25T09:48:50Z</time>
      </trkpt>
      <trkpt lat="45.73756" lon="4.71555">
        <ele>260.17</ele>
        <time>2012-08-25T09:48:52Z</time>
      </trkpt>
      <trkpt lat="45.73756" lon="4.71554">
        <ele>260.17</ele>
        <time>2012-08-25T09:48:53Z</time>
      </trkpt>
      <trkpt lat="45.73756" lon="4.71552">
        <ele>260.17</ele>
        <time>2012-08-25T09:48:54Z</time>
      </trkpt>
      <trkpt lat="45.73755" lon="4.71551">
        <ele>260.17</ele>
        <time>2012-08-25T09:48:55Z</time>
      </trkpt>
      <trkpt lat="45.73753" lon="4.7155">
        <ele>260.17</ele>
        <time>2012-08-25T09:48:56Z</time>
      </trkpt>
      <trkpt lat="45.73752" lon="4.71551">
        <ele>260.17</ele>
        <time>2012-08-25T09:48:57Z</time>
      </trkpt>
      <trkpt lat="45.73751" lon="4.71554">
        <ele>260.17</ele>
        <time>2012-08-25T09:48:58Z</time>
      </trkpt>
      <trkpt lat="45.73752" lon="4.71556">
        <ele>260.17</ele>
        <time>2012-08-25T09:48:59Z</time>
      </trkpt>
      <trkpt lat="45.73753" lon="4.71558">
        <ele>259.69</ele>
        <time>2012-08-25T09:49:00Z</time>
      </trkpt>
      <trkpt lat="45.73755" lon="4.7156">
        <ele>260.17</ele>
        <time>2012-08-25T09:49:01Z</time>
      </trkpt>
      <trkpt lat="45.73757" lon="4.71563">
        <ele>260.17</ele>
        <time>2012-08-25T09:49:02Z</time>
      </trkpt>
      <trkpt lat="45.73758" lon="4.71565">
        <ele>260.17</ele>
        <time>2012-08-25T09:49:03Z</time>
      </trkpt>
      <trkpt lat="45.7377" lon="4.71598">
        <ele>261.62</ele>
        <time>2012-08-25T09:49:13Z</time>
      </trkpt>
      <trkpt lat="45.73763" lon="4.71598">
        <ele>261.14</ele>
        <time>2012-08-25T09:49:17Z</time>
      </trkpt>
      <trkpt lat="45.73756" lon="4.71592">
        <ele>259.21</ele>
        <time>2012-08-25T09:49:19Z</time>
      </trkpt>
      <trkpt lat="45.73753" lon="4.71589">
        <ele>259.21</ele>
        <time>2012-08-25T09:49:20Z</time>
      </trkpt>
      <trkpt lat="45.73737" lon="4.71582">
        <ele>258.73</ele>
        <time>2012-08-25T09:49:22Z</time>
      </trkpt>
      <trkpt lat="45.73715" lon="4.71584">
        <ele>257.29</ele>
        <time>2012-08-25T09:49:26Z</time>
      </trkpt>
      <trkpt lat="45.73708" lon="4.71586">
        <ele>257.29</ele>
        <time>2012-08-25T09:49:28Z</time>
      </trkpt>
      <trkpt lat="45.73679" lon="4.71598">
        <ele>253.93</ele>
        <time>2012-08-25T09:49:33Z</time>
      </trkpt>
      <trkpt lat="45.73673" lon="4.716">
        <ele>253.93</ele>
        <time>2012-08-25T09:49:34Z</time>
      </trkpt>
      <trkpt lat="45.73654" lon="4.71606">
        <ele>252.48</ele>
        <time>2012-08-25T09:49:37Z</time>
      </trkpt>
      <trkpt lat="45.73634" lon="4.71614">
        <ele>251.04</ele>
        <time>2012-08-25T09:49:45Z</time>
      </trkpt>
      <trkpt lat="45.73635" lon="4.71617">
        <ele>250.56</ele>
        <time>2012-08-25T09:50:12Z</time>
      </trkpt>
      <trkpt lat="45.73635" lon="4.71621">
        <ele>251.04</ele>
        <time>2012-08-25T09:50:25Z</time>
      </trkpt>
      <trkpt lat="45.73629" lon="4.71659">
        <ele>250.08</ele>
        <time>2012-08-25T09:50:37Z</time>
      </trkpt>
      <trkpt lat="45.73621" lon="4.71701">
        <ele>249.6</ele>
        <time>2012-08-25T09:50:48Z</time>
      </trkpt>
      <trkpt lat="45.73622" lon="4.71747">
        <ele>249.12</ele>
        <time>2012-08-25T09:51:00Z</time>
      </trkpt>
      <trkpt lat="45.73633" lon="4.71768">
        <ele>250.56</ele>
        <time>2012-08-25T09:51:08Z</time>
      </trkpt>
      <trkpt lat="45.73624" lon="4.71797">
        <ele>251.04</ele>
        <time>2012-08-25T09:51:20Z</time>
      </trkpt>
      <trkpt lat="45.73633" lon="4.71824">
        <ele>251.52</ele>
        <time>2012-08-25T09:51:30Z</time>
      </trkpt>
      <trkpt lat="45.73634" lon="4.71825">
        <ele>252</ele>
        <time>2012-08-25T09:51:31Z</time>
      </trkpt>
      <trkpt lat="45.73628" lon="4.71833">
        <ele>252</ele>
        <time>2012-08-25T09:51:36Z</time>
      </trkpt>
      <trkpt lat="45.73604" lon="4.7186">
        <ele>250.56</ele>
        <time>2012-08-25T09:51:48Z</time>
      </trkpt>
      <trkpt lat="45.73584" lon="4.7189">
        <ele>249.6</ele>
        <time>2012-08-25T09:51:59Z</time>
      </trkpt>
      <trkpt lat="45.73575" lon="4.71926">
        <ele>249.12</ele>
        <time>2012-08-25T09:52:09Z</time>
      </trkpt>
      <trkpt lat="45.73568" lon="4.71982">
        <ele>247.68</ele>
        <time>2012-08-25T09:52:19Z</time>
      </trkpt>
      <trkpt lat="45.73556" lon="4.72025">
        <ele>247.2</ele>
        <time>2012-08-25T09:52:29Z</time>
      </trkpt>
      <trkpt lat="45.73536" lon="4.72052">
        <ele>248.16</ele>
        <time>2012-08-25T09:52:40Z</time>
      </trkpt>
      <trkpt lat="45.73537" lon="4.7207">
        <ele>250.08</ele>
        <time>2012-08-25T09:52:49Z</time>
      </trkpt>
      <trkpt lat="45.73544" lon="4.72095">
        <ele>252</ele>
        <time>2012-08-25T09:53:01Z</time>
      </trkpt>
      <trkpt lat="45.73549" lon="4.72109">
        <ele>252.96</ele>
        <time>2012-08-25T09:53:08Z</time>
      </trkpt>
      <trkpt lat="45.73552" lon="4.72137">
        <ele>254.89</ele>
        <time>2012-08-25T09:53:20Z</time>
      </trkpt>
      <trkpt lat="45.73557" lon="4.72161">
        <ele>255.37</ele>
        <time>2012-08-25T09:53:31Z</time>
      </trkpt>
      <trkpt lat="45.73559" lon="4.72192">
        <ele>257.29</ele>
        <time>2012-08-25T09:53:46Z</time>
      </trkpt>
      <trkpt lat="45.73559" lon="4.72194">
        <ele>257.29</ele>
        <time>2012-08-25T09:53:47Z</time>
      </trkpt>
      <trkpt lat="45.73558" lon="4.72197">
        <ele>257.29</ele>
        <time>2012-08-25T09:53:48Z</time>
      </trkpt>
      <trkpt lat="45.73549" lon="4.72215">
        <ele>259.21</ele>
        <time>2012-08-25T09:54:02Z</time>
      </trkpt>
      <trkpt lat="45.73538" lon="4.72225">
        <ele>260.65</ele>
        <time>2012-08-25T09:54:15Z</time>
      </trkpt>
      <trkpt lat="45.73538" lon="4.72227">
        <ele>260.65</ele>
        <time>2012-08-25T09:54:16Z</time>
      </trkpt>
      <trkpt lat="45.73541" lon="4.72245">
        <ele>262.58</ele>
        <time>2012-08-25T09:54:29Z</time>
      </trkpt>
      <trkpt lat="45.73553" lon="4.72269">
        <ele>264.02</ele>
        <time>2012-08-25T09:54:45Z</time>
      </trkpt>
      <trkpt lat="45.7356" lon="4.7229">
        <ele>265.46</ele>
        <time>2012-08-25T09:54:56Z</time>
      </trkpt>
      <trkpt lat="45.73559" lon="4.72292">
        <ele>265.46</ele>
        <time>2012-08-25T09:54:57Z</time>
      </trkpt>
      <trkpt lat="45.73559" lon="4.72295">
        <ele>264.98</ele>
        <time>2012-08-25T09:54:58Z</time>
      </trkpt>
      <trkpt lat="45.7356" lon="4.72298">
        <ele>265.46</ele>
        <time>2012-08-25T09:54:59Z</time>
      </trkpt>
      <trkpt lat="45.73561" lon="4.723">
        <ele>265.46</ele>
        <time>2012-08-25T09:55:00Z</time>
      </trkpt>
      <trkpt lat="45.73566" lon="4.72313">
        <ele>266.42</ele>
        <time>2012-08-25T09:55:06Z</time>
      </trkpt>
      <trkpt lat="45.73565" lon="4.72315">
        <ele>266.42</ele>
        <time>2012-08-25T09:55:07Z</time>
      </trkpt>
      <trkpt lat="45.73565" lon="4.72317">
        <ele>266.9</ele>
        <time>2012-08-25T09:55:08Z</time>
      </trkpt>
      <trkpt lat="45.73565" lon="4.72319">
        <ele>266.9</ele>
        <time>2012-08-25T09:55:19Z</time>
      </trkpt>
      <trkpt lat="45.73564" lon="4.72318">
        <ele>266.9</ele>
        <time>2012-08-25T09:55:59Z</time>
      </trkpt>
      <trkpt lat="45.73563" lon="4.72314">
        <ele>266.42</ele>
        <time>2012-08-25T09:56:27Z</time>
      </trkpt>
      <trkpt lat="45.73564" lon="4.72317">
        <ele>267.38</ele>
        <time>2012-08-25T09:56:56Z</time>
      </trkpt>
      <trkpt lat="45.73565" lon="4.72319">
        <ele>266.9</ele>
        <time>2012-08-25T09:57:28Z</time>
      </trkpt>
      <trkpt lat="45.73564" lon="4.72317">
        <ele>266.42</ele>
        <time>2012-08-25T09:57:59Z</time>
      </trkpt>
      <trkpt lat="45.73563" lon="4.72316">
        <ele>266.9</ele>
        <time>2012-08-25T09:58:24Z</time>
      </trkpt>
      <trkpt lat="45.73564" lon="4.72316">
        <ele>266.42</ele>
        <time>2012-08-25T09:58:54Z</time>
      </trkpt>
      <trkpt lat="45.73565" lon="4.72316">
        <ele>266.42</ele>
        <time>2012-08-25T09:59:30Z</time>
      </trkpt>
      <trkpt lat="45.73565" lon="4.72316">
        <ele>266.42</ele>
        <time>2012-08-25T10:00:00Z</time>
      </trkpt>
      <trkpt lat="45.73565" lon="4.72319">
        <ele>266.42</ele>
        <time>2012-08-25T10:00:19Z</time>
      </trkpt>
      <trkpt lat="45.73565" lon="4.72318">
        <ele>266.9</ele>
        <time>2012-08-25T10:00:47Z</time>
      </trkpt>
      <trkpt lat="45.73565" lon="4.72315">
        <ele>266.9</ele>
        <time>2012-08-25T10:01:00Z</time>
      </trkpt>
      <trkpt lat="45.73566" lon="4.72313">
        <ele>266.9</ele>
        <time>2012-08-25T10:01:01Z</time>
      </trkpt>
      <trkpt lat="45.73567" lon="4.72312">
        <ele>266.9</ele>
        <time>2012-08-25T10:01:02Z</time>
      </trkpt>
      <trkpt lat="45.73572" lon="4.7231">
        <ele>265.94</ele>
        <time>2012-08-25T10:01:07Z</time>
      </trkpt>
      <trkpt lat="45.73574" lon="4.72308">
        <ele>265.46</ele>
        <time>2012-08-25T10:01:09Z</time>
      </trkpt>
      <trkpt lat="45.73576" lon="4.72307">
        <ele>264.98</ele>
        <time>2012-08-25T10:01:10Z</time>
      </trkpt>
      <trkpt lat="45.73577" lon="4.72306">
        <ele>264.5</ele>
        <time>2012-08-25T10:01:11Z</time>
      </trkpt>
      <trkpt lat="45.73579" lon="4.72306">
        <ele>264.5</ele>
        <time>2012-08-25T10:01:12Z</time>
      </trkpt>
      <trkpt lat="45.73581" lon="4.72305">
        <ele>264.02</ele>
        <time>2012-08-25T10:01:13Z</time>
      </trkpt>
      <trkpt lat="45.73582" lon="4.72305">
        <ele>264.02</ele>
        <time>2012-08-25T10:01:14Z</time>
      </trkpt>
      <trkpt lat="45.73597" lon="4.72306">
        <ele>261.14</ele>
        <time>2012-08-25T10:01:24Z</time>
      </trkpt>
      <trkpt lat="45.73611" lon="4.72303">
        <ele>258.73</ele>
        <time>2012-08-25T10:01:35Z</time>
      </trkpt>
      <trkpt lat="45.7363" lon="4.72297">
        <ele>255.37</ele>
        <time>2012-08-25T10:01:44Z</time>
      </trkpt>
      <trkpt lat="45.73641" lon="4.72298">
        <ele>252.48</ele>
        <time>2012-08-25T10:01:48Z</time>
      </trkpt>
      <trkpt lat="45.73654" lon="4.723">
        <ele>251.04</ele>
        <time>2012-08-25T10:01:52Z</time>
      </trkpt>
      <trkpt lat="45.73659" lon="4.72298">
        <ele>250.08</ele>
        <time>2012-08-25T10:01:54Z</time>
      </trkpt>
      <trkpt lat="45.7366" lon="4.72297">
        <ele>249.6</ele>
        <time>2012-08-25T10:01:55Z</time>
      </trkpt>
      <trkpt lat="45.73678" lon="4.7229">
        <ele>247.2</ele>
        <time>2012-08-25T10:01:59Z</time>
      </trkpt>
      <trkpt lat="45.73693" lon="4.72282">
        <ele>244.31</ele>
        <time>2012-08-25T10:02:04Z</time>
      </trkpt>
      <trkpt lat="45.73697" lon="4.72282">
        <ele>243.35</ele>
        <time>2012-08-25T10:02:06Z</time>
      </trkpt>
      <trkpt lat="45.73705" lon="4.72281">
        <ele>243.35</ele>
        <time>2012-08-25T10:02:25Z</time>
      </trkpt>
      <trkpt lat="45.73706" lon="4.72286">
        <ele>243.83</ele>
        <time>2012-08-25T10:02:48Z</time>
      </trkpt>
      <trkpt lat="45.73707" lon="4.72297">
        <ele>243.83</ele>
        <time>2012-08-25T10:03:02Z</time>
      </trkpt>
      <trkpt lat="45.73706" lon="4.72298">
        <ele>244.31</ele>
        <time>2012-08-25T10:03:03Z</time>
      </trkpt>
      <trkpt lat="45.73708" lon="4.72309">
        <ele>244.79</ele>
        <time>2012-08-25T10:03:10Z</time>
      </trkpt>
      <trkpt lat="45.73708" lon="4.72333">
        <ele>244.31</ele>
        <time>2012-08-25T10:03:17Z</time>
      </trkpt>
      <trkpt lat="45.73714" lon="4.7237">
        <ele>243.83</ele>
        <time>2012-08-25T10:03:28Z</time>
      </trkpt>
      <trkpt lat="45.73716" lon="4.72377">
        <ele>243.35</ele>
        <time>2012-08-25T10:03:30Z</time>
      </trkpt>
      <trkpt lat="45.73737" lon="4.72416">
        <ele>243.35</ele>
        <time>2012-08-25T10:03:43Z</time>
      </trkpt>
      <trkpt lat="45.73746" lon="4.72438">
        <ele>243.83</ele>
        <time>2012-08-25T10:03:54Z</time>
      </trkpt>
      <trkpt lat="45.73762" lon="4.72475">
        <ele>242.87</ele>
        <time>2012-08-25T10:04:04Z</time>
      </trkpt>
      <trkpt lat="45.73768" lon="4.72517">
        <ele>242.87</ele>
        <time>2012-08-25T10:04:16Z</time>
      </trkpt>
      <trkpt lat="45.73768" lon="4.72547">
        <ele>242.39</ele>
        <time>2012-08-25T10:04:29Z</time>
      </trkpt>
      <trkpt lat="45.73762" lon="4.72586">
        <ele>243.35</ele>
        <time>2012-08-25T10:04:39Z</time>
      </trkpt>
      <trkpt lat="45.73759" lon="4.72611">
        <ele>242.87</ele>
        <time>2012-08-25T10:04:48Z</time>
      </trkpt>
      <trkpt lat="45.73765" lon="4.72621">
        <ele>242.87</ele>
        <time>2012-08-25T10:04:56Z</time>
      </trkpt>
      <trkpt lat="45.73759" lon="4.72639">
        <ele>243.35</ele>
        <time>2012-08-25T10:05:06Z</time>
      </trkpt>
      <trkpt lat="45.73765" lon="4.72673">
        <ele>243.35</ele>
        <time>2012-08-25T10:05:18Z</time>
      </trkpt>
      <trkpt lat="45.73767" lon="4.72691">
        <ele>243.35</ele>
        <time>2012-08-25T10:05:28Z</time>
      </trkpt>
      <trkpt lat="45.73768" lon="4.72693">
        <ele>242.87</ele>
        <time>2012-08-25T10:05:32Z</time>
      </trkpt>
      <trkpt lat="45.7377" lon="4.727">
        <ele>243.35</ele>
        <time>2012-08-25T10:05:36Z</time>
      </trkpt>
      <trkpt lat="45.7377" lon="4.72719">
        <ele>243.35</ele>
        <time>2012-08-25T10:05:49Z</time>
      </trkpt>
      <trkpt lat="45.73773" lon="4.72727">
        <ele>242.87</ele>
        <time>2012-08-25T10:06:08Z</time>
      </trkpt>
      <trkpt lat="45.73775" lon="4.72728">
        <ele>242.87</ele>
        <time>2012-08-25T10:06:16Z</time>
      </trkpt>
      <trkpt lat="45.73776" lon="4.72733">
        <ele>241.91</ele>
        <time>2012-08-25T10:06:20Z</time>
      </trkpt>
      <trkpt lat="45.73773" lon="4.7274">
        <ele>242.87</ele>
        <time>2012-08-25T10:06:25Z</time>
      </trkpt>
      <trkpt lat="45.73777" lon="4.72754">
        <ele>242.87</ele>
        <time>2012-08-25T10:06:33Z</time>
      </trkpt>
      <trkpt lat="45.73789" lon="4.7275">
        <ele>242.39</ele>
        <time>2012-08-25T10:06:45Z</time>
      </trkpt>
      <trkpt lat="45.73791" lon="4.72748">
        <ele>242.39</ele>
        <time>2012-08-25T10:06:47Z</time>
      </trkpt>
      <trkpt lat="45.73796" lon="4.72749">
        <ele>243.35</ele>
        <time>2012-08-25T10:07:00Z</time>
      </trkpt>
      <trkpt lat="45.73798" lon="4.72752">
        <ele>243.35</ele>
        <time>2012-08-25T10:07:28Z</time>
      </trkpt>
      <trkpt lat="45.73797" lon="4.72758">
        <ele>242.87</ele>
        <time>2012-08-25T10:07:47Z</time>
      </trkpt>
      <trkpt lat="45.73803" lon="4.72758">
        <ele>243.83</ele>
        <time>2012-08-25T10:08:11Z</time>
      </trkpt>
      <trkpt lat="45.73815" lon="4.72746">
        <ele>244.79</ele>
        <time>2012-08-25T10:08:26Z</time>
      </trkpt>
      <trkpt lat="45.73832" lon="4.72735">
        <ele>246.23</ele>
        <time>2012-08-25T10:08:40Z</time>
      </trkpt>
      <trkpt lat="45.7385" lon="4.72733">
        <ele>249.12</ele>
        <time>2012-08-25T10:08:55Z</time>
      </trkpt>
      <trkpt lat="45.73865" lon="4.72734">
        <ele>251.52</ele>
        <time>2012-08-25T10:09:08Z</time>
      </trkpt>
      <trkpt lat="45.73867" lon="4.72733">
        <ele>252</ele>
        <time>2012-08-25T10:09:09Z</time>
      </trkpt>
      <trkpt lat="45.73885" lon="4.7272">
        <ele>254.41</ele>
        <time>2012-08-25T10:09:23Z</time>
      </trkpt>
      <trkpt lat="45.73905" lon="4.72706">
        <ele>256.81</ele>
        <time>2012-08-25T10:09:36Z</time>
      </trkpt>
      <trkpt lat="45.73923" lon="4.72696">
        <ele>259.21</ele>
        <time>2012-08-25T10:09:51Z</time>
      </trkpt>
      <trkpt lat="45.73939" lon="4.72686">
        <ele>261.14</ele>
        <time>2012-08-25T10:10:03Z</time>
      </trkpt>
      <trkpt lat="45.73959" lon="4.72677">
        <ele>264.5</ele>
        <time>2012-08-25T10:10:18Z</time>
      </trkpt>
      <trkpt lat="45.73975" lon="4.72669">
        <ele>267.86</ele>
        <time>2012-08-25T10:10:32Z</time>
      </trkpt>
      <trkpt lat="45.7399" lon="4.72659">
        <ele>269.79</ele>
        <time>2012-08-25T10:10:45Z</time>
      </trkpt>
      <trkpt lat="45.74009" lon="4.72647">
        <ele>273.15</ele>
        <time>2012-08-25T10:11:01Z</time>
      </trkpt>
      <trkpt lat="45.74022" lon="4.72621">
        <ele>276.04</ele>
        <time>2012-08-25T10:11:14Z</time>
      </trkpt>
      <trkpt lat="45.74025" lon="4.7259">
        <ele>278.44</ele>
        <time>2012-08-25T10:11:29Z</time>
      </trkpt>
      <trkpt lat="45.74026" lon="4.72555">
        <ele>279.88</ele>
        <time>2012-08-25T10:11:47Z</time>
      </trkpt>
      <trkpt lat="45.74027" lon="4.72522">
        <ele>280.84</ele>
        <time>2012-08-25T10:12:04Z</time>
      </trkpt>
      <trkpt lat="45.74038" lon="4.72498">
        <ele>282.28</ele>
        <time>2012-08-25T10:12:20Z</time>
      </trkpt>
      <trkpt lat="45.74047" lon="4.72486">
        <ele>282.77</ele>
        <time>2012-08-25T10:12:30Z</time>
      </trkpt>
      <trkpt lat="45.7407" lon="4.72475">
        <ele>284.21</ele>
        <time>2012-08-25T10:12:50Z</time>
      </trkpt>
      <trkpt lat="45.74071" lon="4.72475">
        <ele>284.21</ele>
        <time>2012-08-25T10:12:51Z</time>
      </trkpt>
      <trkpt lat="45.74072" lon="4.72484">
        <ele>284.69</ele>
        <time>2012-08-25T10:12:55Z</time>
      </trkpt>
      <trkpt lat="45.74091" lon="4.72534">
        <ele>284.21</ele>
        <time>2012-08-25T10:13:11Z</time>
      </trkpt>
      <trkpt lat="45.7411" lon="4.72564">
        <ele>282.77</ele>
        <time>2012-08-25T10:13:19Z</time>
      </trkpt>
      <trkpt lat="45.74122" lon="4.72576">
        <ele>282.77</ele>
        <time>2012-08-25T10:13:22Z</time>
      </trkpt>
      <trkpt lat="45.74126" lon="4.72578">
        <ele>282.77</ele>
        <time>2012-08-25T10:13:23Z</time>
      </trkpt>
      <trkpt lat="45.7413" lon="4.7258">
        <ele>283.25</ele>
        <time>2012-08-25T10:13:24Z</time>
      </trkpt>
      <trkpt lat="45.74154" lon="4.72593">
        <ele>284.69</ele>
        <time>2012-08-25T10:13:35Z</time>
      </trkpt>
      <trkpt lat="45.74155" lon="4.72596">
        <ele>285.17</ele>
        <time>2012-08-25T10:13:36Z</time>
      </trkpt>
      <trkpt lat="45.74156" lon="4.72599">
        <ele>285.17</ele>
        <time>2012-08-25T10:13:37Z</time>
      </trkpt>
      <trkpt lat="45.7415" lon="4.72673">
        <ele>283.73</ele>
        <time>2012-08-25T10:13:54Z</time>
      </trkpt>
      <trkpt lat="45.7415" lon="4.72741">
        <ele>282.77</ele>
        <time>2012-08-25T10:14:07Z</time>
      </trkpt>
      <trkpt lat="45.74148" lon="4.72756">
        <ele>282.77</ele>
        <time>2012-08-25T10:14:10Z</time>
      </trkpt>
      <trkpt lat="45.74145" lon="4.7276">
        <ele>282.28</ele>
        <time>2012-08-25T10:14:11Z</time>
      </trkpt>
      <trkpt lat="45.74142" lon="4.72763">
        <ele>282.28</ele>
        <time>2012-08-25T10:14:12Z</time>
      </trkpt>
      <trkpt lat="45.7411" lon="4.7279">
        <ele>281.8</ele>
        <time>2012-08-25T10:14:25Z</time>
      </trkpt>
      <trkpt lat="45.74108" lon="4.72792">
        <ele>280.84</ele>
        <time>2012-08-25T10:14:27Z</time>
      </trkpt>
      <trkpt lat="45.74108" lon="4.72792">
        <ele>281.32</ele>
        <time>2012-08-25T10:14:28Z</time>
      </trkpt>
      <trkpt lat="45.74106" lon="4.72793">
        <ele>281.32</ele>
        <time>2012-08-25T10:14:29Z</time>
      </trkpt>
      <trkpt lat="45.74105" lon="4.72795">
        <ele>281.32</ele>
        <time>2012-08-25T10:14:30Z</time>
      </trkpt>
      <trkpt lat="45.74104" lon="4.72796">
        <ele>281.32</ele>
        <time>2012-08-25T10:14:31Z</time>
      </trkpt>
      <trkpt lat="45.74102" lon="4.72797">
        <ele>280.84</ele>
        <time>2012-08-25T10:14:32Z</time>
      </trkpt>
      <trkpt lat="45.741" lon="4.72798">
        <ele>281.32</ele>
        <time>2012-08-25T10:14:33Z</time>
      </trkpt>
      <trkpt lat="45.74075" lon="4.72815">
        <ele>280.84</ele>
        <time>2012-08-25T10:14:48Z</time>
      </trkpt>
      <trkpt lat="45.74042" lon="4.72833">
        <ele>280.36</ele>
        <time>2012-08-25T10:15:00Z</time>
      </trkpt>
      <trkpt lat="45.73986" lon="4.72848">
        <ele>278.44</ele>
        <time>2012-08-25T10:15:13Z</time>
      </trkpt>
      <trkpt lat="45.73962" lon="4.72855">
        <ele>276.52</ele>
        <time>2012-08-25T10:15:17Z</time>
      </trkpt>
      <trkpt lat="45.73955" lon="4.72859">
        <ele>275.56</ele>
        <time>2012-08-25T10:15:18Z</time>
      </trkpt>
      <trkpt lat="45.73949" lon="4.72865">
        <ele>275.07</ele>
        <time>2012-08-25T10:15:19Z</time>
      </trkpt>
      <trkpt lat="45.73944" lon="4.72872">
        <ele>274.59</ele>
        <time>2012-08-25T10:15:20Z</time>
      </trkpt>
      <trkpt lat="45.7394" lon="4.72879">
        <ele>275.07</ele>
        <time>2012-08-25T10:15:21Z</time>
      </trkpt>
      <trkpt lat="45.73938" lon="4.72885">
        <ele>274.11</ele>
        <time>2012-08-25T10:15:22Z</time>
      </trkpt>
      <trkpt lat="45.73937" lon="4.72889">
        <ele>274.59</ele>
        <time>2012-08-25T10:15:23Z</time>
      </trkpt>
      <trkpt lat="45.73935" lon="4.72891">
        <ele>274.11</ele>
        <time>2012-08-25T10:15:24Z</time>
      </trkpt>
      <trkpt lat="45.73935" lon="4.72893">
        <ele>274.11</ele>
        <time>2012-08-25T10:15:25Z</time>
      </trkpt>
      <trkpt lat="45.73922" lon="4.72917">
        <ele>272.67</ele>
        <time>2012-08-25T10:15:35Z</time>
      </trkpt>
      <trkpt lat="45.73917" lon="4.72926">
        <ele>271.23</ele>
        <time>2012-08-25T10:15:38Z</time>
      </trkpt>
      <trkpt lat="45.73909" lon="4.72945">
        <ele>268.83</ele>
        <time>2012-08-25T10:15:44Z</time>
      </trkpt>
      <trkpt lat="45.73908" lon="4.7299">
        <ele>266.42</ele>
        <time>2012-08-25T10:15:52Z</time>
      </trkpt>
      <trkpt lat="45.73908" lon="4.72997">
        <ele>265.94</ele>
        <time>2012-08-25T10:15:53Z</time>
      </trkpt>
      <trkpt lat="45.73905" lon="4.73029">
        <ele>265.46</ele>
        <time>2012-08-25T10:15:57Z</time>
      </trkpt>
      <trkpt lat="45.73903" lon="4.73036">
        <ele>265.46</ele>
        <time>2012-08-25T10:15:58Z</time>
      </trkpt>
      <trkpt lat="45.73901" lon="4.73043">
        <ele>264.98</ele>
        <time>2012-08-25T10:15:59Z</time>
      </trkpt>
      <trkpt lat="45.73898" lon="4.73049">
        <ele>265.46</ele>
        <time>2012-08-25T10:16:00Z</time>
      </trkpt>
      <trkpt lat="45.73895" lon="4.73054">
        <ele>265.46</ele>
        <time>2012-08-25T10:16:01Z</time>
      </trkpt>
      <trkpt lat="45.73891" lon="4.73059">
        <ele>264.5</ele>
        <time>2012-08-25T10:16:02Z</time>
      </trkpt>
      <trkpt lat="45.73888" lon="4.73064">
        <ele>264.5</ele>
        <time>2012-08-25T10:16:03Z</time>
      </trkpt>
      <trkpt lat="45.73884" lon="4.73067">
        <ele>263.54</ele>
        <time>2012-08-25T10:16:04Z</time>
      </trkpt>
      <trkpt lat="45.7388" lon="4.73071">
        <ele>262.58</ele>
        <time>2012-08-25T10:16:05Z</time>
      </trkpt>
      <trkpt lat="45.73877" lon="4.73076">
        <ele>262.58</ele>
        <time>2012-08-25T10:16:06Z</time>
      </trkpt>
      <trkpt lat="45.73875" lon="4.73082">
        <ele>261.14</ele>
        <time>2012-08-25T10:16:07Z</time>
      </trkpt>
      <trkpt lat="45.73873" lon="4.73089">
        <ele>260.17</ele>
        <time>2012-08-25T10:16:08Z</time>
      </trkpt>
      <trkpt lat="45.7387" lon="4.73096">
        <ele>259.21</ele>
        <time>2012-08-25T10:16:09Z</time>
      </trkpt>
      <trkpt lat="45.73866" lon="4.73109">
        <ele>258.25</ele>
        <time>2012-08-25T10:16:11Z</time>
      </trkpt>
      <trkpt lat="45.73859" lon="4.73126">
        <ele>254.89</ele>
        <time>2012-08-25T10:16:15Z</time>
      </trkpt>
      <trkpt lat="45.73854" lon="4.73149">
        <ele>251.52</ele>
        <time>2012-08-25T10:16:20Z</time>
      </trkpt>
      <trkpt lat="45.73852" lon="4.73151">
        <ele>251.04</ele>
        <time>2012-08-25T10:16:21Z</time>
      </trkpt>
      <trkpt lat="45.7385" lon="4.73152">
        <ele>251.04</ele>
        <time>2012-08-25T10:16:22Z</time>
      </trkpt>
      <trkpt lat="45.73847" lon="4.73152">
        <ele>250.56</ele>
        <time>2012-08-25T10:16:23Z</time>
      </trkpt>
      <trkpt lat="45.73845" lon="4.73151">
        <ele>250.08</ele>
        <time>2012-08-25T10:16:24Z</time>
      </trkpt>
      <trkpt lat="45.73842" lon="4.7315">
        <ele>249.6</ele>
        <time>2012-08-25T10:16:25Z</time>
      </trkpt>
      <trkpt lat="45.7384" lon="4.7315">
        <ele>248.64</ele>
        <time>2012-08-25T10:16:26Z</time>
      </trkpt>
      <trkpt lat="45.73838" lon="4.7315">
        <ele>248.64</ele>
        <time>2012-08-25T10:16:27Z</time>
      </trkpt>
      <trkpt lat="45.73836" lon="4.73152">
        <ele>248.16</ele>
        <time>2012-08-25T10:16:28Z</time>
      </trkpt>
      <trkpt lat="45.73835" lon="4.73154">
        <ele>248.16</ele>
        <time>2012-08-25T10:16:29Z</time>
      </trkpt>
      <trkpt lat="45.73835" lon="4.73157">
        <ele>248.16</ele>
        <time>2012-08-25T10:16:30Z</time>
      </trkpt>
      <trkpt lat="45.73835" lon="4.7316">
        <ele>247.2</ele>
        <time>2012-08-25T10:16:31Z</time>
      </trkpt>
      <trkpt lat="45.73835" lon="4.73175">
        <ele>245.75</ele>
        <time>2012-08-25T10:16:44Z</time>
      </trkpt>
      <trkpt lat="45.73833" lon="4.73178">
        <ele>245.27</ele>
        <time>2012-08-25T10:16:56Z</time>
      </trkpt>
      <trkpt lat="45.73827" lon="4.73181">
        <ele>243.83</ele>
        <time>2012-08-25T10:16:59Z</time>
      </trkpt>
      <trkpt lat="45.73822" lon="4.73188">
        <ele>242.87</ele>
        <time>2012-08-25T10:17:02Z</time>
      </trkpt>
      <trkpt lat="45.73815" lon="4.73193">
        <ele>240.95</ele>
        <time>2012-08-25T10:17:05Z</time>
      </trkpt>
      <trkpt lat="45.7381" lon="4.73195">
        <ele>239.99</ele>
        <time>2012-08-25T10:17:08Z</time>
      </trkpt>
      <trkpt lat="45.7381" lon="4.73203">
        <ele>239.51</ele>
        <time>2012-08-25T10:17:12Z</time>
      </trkpt>
      <trkpt lat="45.7381" lon="4.7322">
        <ele>239.99</ele>
        <time>2012-08-25T10:17:26Z</time>
      </trkpt>
      <trkpt lat="45.73811" lon="4.73228">
        <ele>239.51</ele>
        <time>2012-08-25T10:17:38Z</time>
      </trkpt>
      <trkpt lat="45.73811" lon="4.73239">
        <ele>239.51</ele>
        <time>2012-08-25T10:17:42Z</time>
      </trkpt>
      <trkpt lat="45.73811" lon="4.73242">
        <ele>239.02</ele>
        <time>2012-08-25T10:17:43Z</time>
      </trkpt>
      <trkpt lat="45.73814" lon="4.73247">
        <ele>239.51</ele>
        <time>2012-08-25T10:17:45Z</time>
      </trkpt>
      <trkpt lat="45.73815" lon="4.73249">
        <ele>239.51</ele>
        <time>2012-08-25T10:17:46Z</time>
      </trkpt>
      <trkpt lat="45.7382" lon="4.73254">
        <ele>238.54</ele>
        <time>2012-08-25T10:17:49Z</time>
      </trkpt>
      <trkpt lat="45.73825" lon="4.73262">
        <ele>239.02</ele>
        <time>2012-08-25T10:17:55Z</time>
      </trkpt>
      <trkpt lat="45.73835" lon="4.73263">
        <ele>239.51</ele>
        <time>2012-08-25T10:18:02Z</time>
      </trkpt>
      <trkpt lat="45.73836" lon="4.73265">
        <ele>239.51</ele>
        <time>2012-08-25T10:18:03Z</time>
      </trkpt>
      <trkpt lat="45.73841" lon="4.73265">
        <ele>239.51</ele>
        <time>2012-08-25T10:18:06Z</time>
      </trkpt>
      <trkpt lat="45.73868" lon="4.73264">
        <ele>239.02</ele>
        <time>2012-08-25T10:18:16Z</time>
      </trkpt>
      <trkpt lat="45.73876" lon="4.73268">
        <ele>239.02</ele>
        <time>2012-08-25T10:18:21Z</time>
      </trkpt>
      <trkpt lat="45.73878" lon="4.73267">
        <ele>239.02</ele>
        <time>2012-08-25T10:18:22Z</time>
      </trkpt>
      <trkpt lat="45.73894" lon="4.73263">
        <ele>239.02</ele>
        <time>2012-08-25T10:18:33Z</time>
      </trkpt>
      <trkpt lat="45.73899" lon="4.73261">
        <ele>238.54</ele>
        <time>2012-08-25T10:18:35Z</time>
      </trkpt>
      <trkpt lat="45.73911" lon="4.73259">
        <ele>238.54</ele>
        <time>2012-08-25T10:18:39Z</time>
      </trkpt>
      <trkpt lat="45.73915" lon="4.73257">
        <ele>238.06</ele>
        <time>2012-08-25T10:18:40Z</time>
      </trkpt>
      <trkpt lat="45.73917" lon="4.73255">
        <ele>238.06</ele>
        <time>2012-08-25T10:18:41Z</time>
      </trkpt>
      <trkpt lat="45.73919" lon="4.73251">
        <ele>238.06</ele>
        <time>2012-08-25T10:18:42Z</time>
      </trkpt>
      <trkpt lat="45.7392" lon="4.73247">
        <ele>238.54</ele>
        <time>2012-08-25T10:18:43Z</time>
      </trkpt>
      <trkpt lat="45.73931" lon="4.73212">
        <ele>239.51</ele>
        <time>2012-08-25T10:18:52Z</time>
      </trkpt>
      <trkpt lat="45.73938" lon="4.73195">
        <ele>239.51</ele>
        <time>2012-08-25T10:19:02Z</time>
      </trkpt>
      <trkpt lat="45.73941" lon="4.73191">
        <ele>239.99</ele>
        <time>2012-08-25T10:19:15Z</time>
      </trkpt>
      <trkpt lat="45.73952" lon="4.73201">
        <ele>238.54</ele>
        <time>2012-08-25T10:19:24Z</time>
      </trkpt>
      <trkpt lat="45.73964" lon="4.732">
        <ele>237.58</ele>
        <time>2012-08-25T10:19:28Z</time>
      </trkpt>
      <trkpt lat="45.73995" lon="4.73181">
        <ele>239.99</ele>
        <time>2012-08-25T10:19:40Z</time>
      </trkpt>
      <trkpt lat="45.74017" lon="4.73171">
        <ele>240.47</ele>
        <time>2012-08-25T10:19:49Z</time>
      </trkpt>
      <trkpt lat="45.74044" lon="4.73161">
        <ele>242.39</ele>
        <time>2012-08-25T10:19:59Z</time>
      </trkpt>
      <trkpt lat="45.74058" lon="4.73153">
        <ele>242.39</ele>
        <time>2012-08-25T10:20:12Z</time>
      </trkpt>
      <trkpt lat="45.74062" lon="4.73151">
        <ele>242.87</ele>
        <time>2012-08-25T10:20:28Z</time>
      </trkpt>
      <trkpt lat="45.74086" lon="4.73154">
        <ele>244.31</ele>
        <time>2012-08-25T10:20:40Z</time>
      </trkpt>
      <trkpt lat="45.74093" lon="4.73159">
        <ele>244.31</ele>
        <time>2012-08-25T10:20:58Z</time>
      </trkpt>
      <trkpt lat="45.74095" lon="4.73158">
        <ele>244.79</ele>
        <time>2012-08-25T10:21:22Z</time>
      </trkpt>
      <trkpt lat="45.74097" lon="4.73161">
        <ele>244.79</ele>
        <time>2012-08-25T10:21:27Z</time>
      </trkpt>
      <trkpt lat="45.74113" lon="4.73194">
        <ele>241.91</ele>
        <time>2012-08-25T10:21:36Z</time>
      </trkpt>
      <trkpt lat="45.74114" lon="4.73202">
        <ele>240.47</ele>
        <time>2012-08-25T10:21:38Z</time>
      </trkpt>
      <trkpt lat="45.74121" lon="4.73223">
        <ele>238.54</ele>
        <time>2012-08-25T10:21:43Z</time>
      </trkpt>
      <trkpt lat="45.74122" lon="4.73225">
        <ele>237.58</ele>
        <time>2012-08-25T10:21:44Z</time>
      </trkpt>
      <trkpt lat="45.74124" lon="4.73232">
        <ele>237.1</ele>
        <time>2012-08-25T10:21:46Z</time>
      </trkpt>
      <trkpt lat="45.74126" lon="4.73238">
        <ele>235.66</ele>
        <time>2012-08-25T10:21:48Z</time>
      </trkpt>
      <trkpt lat="45.74133" lon="4.73248">
        <ele>234.7</ele>
        <time>2012-08-25T10:21:50Z</time>
      </trkpt>
      <trkpt lat="45.74146" lon="4.73255">
        <ele>235.18</ele>
        <time>2012-08-25T10:22:02Z</time>
      </trkpt>
      <trkpt lat="45.74154" lon="4.73247">
        <ele>236.62</ele>
        <time>2012-08-25T10:22:16Z</time>
      </trkpt>
      <trkpt lat="45.74155" lon="4.73248">
        <ele>236.62</ele>
        <time>2012-08-25T10:22:38Z</time>
      </trkpt>
      <trkpt lat="45.74157" lon="4.7325">
        <ele>237.1</ele>
        <time>2012-08-25T10:22:51Z</time>
      </trkpt>
      <trkpt lat="45.74163" lon="4.73263">
        <ele>238.54</ele>
        <time>2012-08-25T10:23:00Z</time>
      </trkpt>
      <trkpt lat="45.74169" lon="4.73272">
        <ele>239.51</ele>
        <time>2012-08-25T10:23:14Z</time>
      </trkpt>
      <trkpt lat="45.74166" lon="4.73277">
        <ele>239.51</ele>
        <time>2012-08-25T10:23:45Z</time>
      </trkpt>
      <trkpt lat="45.74166" lon="4.73279">
        <ele>239.51</ele>
        <time>2012-08-25T10:24:19Z</time>
      </trkpt>
      <trkpt lat="45.74169" lon="4.73285">
        <ele>240.95</ele>
        <time>2012-08-25T10:24:37Z</time>
      </trkpt>
      <trkpt lat="45.74174" lon="4.73295">
        <ele>240.47</ele>
        <time>2012-08-25T10:24:55Z</time>
      </trkpt>
      <trkpt lat="45.74185" lon="4.73327">
        <ele>239.99</ele>
        <time>2012-08-25T10:25:05Z</time>
      </trkpt>
      <trkpt lat="45.74198" lon="4.73378">
        <ele>240.95</ele>
        <time>2012-08-25T10:25:17Z</time>
      </trkpt>
      <trkpt lat="45.742" lon="4.73396">
        <ele>239.02</ele>
        <time>2012-08-25T10:25:22Z</time>
      </trkpt>
      <trkpt lat="45.742" lon="4.7341">
        <ele>237.58</ele>
        <time>2012-08-25T10:25:24Z</time>
      </trkpt>
      <trkpt lat="45.74208" lon="4.73433">
        <ele>238.54</ele>
        <time>2012-08-25T10:25:28Z</time>
      </trkpt>
      <trkpt lat="45.74204" lon="4.73463">
        <ele>239.51</ele>
        <time>2012-08-25T10:25:33Z</time>
      </trkpt>
      <trkpt lat="45.74203" lon="4.73468">
        <ele>239.99</ele>
        <time>2012-08-25T10:25:34Z</time>
      </trkpt>
      <trkpt lat="45.74193" lon="4.73495">
        <ele>239.02</ele>
        <time>2012-08-25T10:25:38Z</time>
      </trkpt>
      <trkpt lat="45.74184" lon="4.73529">
        <ele>239.02</ele>
        <time>2012-08-25T10:25:43Z</time>
      </trkpt>
      <trkpt lat="45.74174" lon="4.73571">
        <ele>239.99</ele>
        <time>2012-08-25T10:25:50Z</time>
      </trkpt>
      <trkpt lat="45.74176" lon="4.73634">
        <ele>241.43</ele>
        <time>2012-08-25T10:26:02Z</time>
      </trkpt>
      <trkpt lat="45.74178" lon="4.73678">
        <ele>241.43</ele>
        <time>2012-08-25T10:26:12Z</time>
      </trkpt>
      <trkpt lat="45.74177" lon="4.73682">
        <ele>241.43</ele>
        <time>2012-08-25T10:26:13Z</time>
      </trkpt>
      <trkpt lat="45.74174" lon="4.73685">
        <ele>241.43</ele>
        <time>2012-08-25T10:26:14Z</time>
      </trkpt>
      <trkpt lat="45.74155" lon="4.73714">
        <ele>239.51</ele>
        <time>2012-08-25T10:26:19Z</time>
      </trkpt>
      <trkpt lat="45.74153" lon="4.7372">
        <ele>239.02</ele>
        <time>2012-08-25T10:26:20Z</time>
      </trkpt>
      <trkpt lat="45.74153" lon="4.73726">
        <ele>238.54</ele>
        <time>2012-08-25T10:26:21Z</time>
      </trkpt>
      <trkpt lat="45.74155" lon="4.73732">
        <ele>239.02</ele>
        <time>2012-08-25T10:26:22Z</time>
      </trkpt>
      <trkpt lat="45.74156" lon="4.73739">
        <ele>238.06</ele>
        <time>2012-08-25T10:26:23Z</time>
      </trkpt>
      <trkpt lat="45.74178" lon="4.73812">
        <ele>237.1</ele>
        <time>2012-08-25T10:26:37Z</time>
      </trkpt>
      <trkpt lat="45.74197" lon="4.73852">
        <ele>237.58</ele>
        <time>2012-08-25T10:26:46Z</time>
      </trkpt>
      <trkpt lat="45.74206" lon="4.73868">
        <ele>237.58</ele>
        <time>2012-08-25T10:26:50Z</time>
      </trkpt>
      <trkpt lat="45.74208" lon="4.73874">
        <ele>237.58</ele>
        <time>2012-08-25T10:26:51Z</time>
      </trkpt>
      <trkpt lat="45.74211" lon="4.73881">
        <ele>237.1</ele>
        <time>2012-08-25T10:26:52Z</time>
      </trkpt>
      <trkpt lat="45.74215" lon="4.73895">
        <ele>237.58</ele>
        <time>2012-08-25T10:26:54Z</time>
      </trkpt>
      <trkpt lat="45.74223" lon="4.73922">
        <ele>237.1</ele>
        <time>2012-08-25T10:26:58Z</time>
      </trkpt>
      <trkpt lat="45.74225" lon="4.73928">
        <ele>236.62</ele>
        <time>2012-08-25T10:26:59Z</time>
      </trkpt>
      <trkpt lat="45.74228" lon="4.73933">
        <ele>236.62</ele>
        <time>2012-08-25T10:27:00Z</time>
      </trkpt>
      <trkpt lat="45.74231" lon="4.73936">
        <ele>236.14</ele>
        <time>2012-08-25T10:27:01Z</time>
      </trkpt>
      <trkpt lat="45.74234" lon="4.73939">
        <ele>235.66</ele>
        <time>2012-08-25T10:27:02Z</time>
      </trkpt>
      <trkpt lat="45.74236" lon="4.7394">
        <ele>236.14</ele>
        <time>2012-08-25T10:27:03Z</time>
      </trkpt>
      <trkpt lat="45.74238" lon="4.73945">
        <ele>235.66</ele>
        <time>2012-08-25T10:27:06Z</time>
      </trkpt>
      <trkpt lat="45.74239" lon="4.73948">
        <ele>236.14</ele>
        <time>2012-08-25T10:27:08Z</time>
      </trkpt>
      <trkpt lat="45.74241" lon="4.7395">
        <ele>236.62</ele>
        <time>2012-08-25T10:27:09Z</time>
      </trkpt>
      <trkpt lat="45.74244" lon="4.73953">
        <ele>236.14</ele>
        <time>2012-08-25T10:27:10Z</time>
      </trkpt>
      <trkpt lat="45.74263" lon="4.73995">
        <ele>235.18</ele>
        <time>2012-08-25T10:27:21Z</time>
      </trkpt>
      <trkpt lat="45.74283" lon="4.74042">
        <ele>234.22</ele>
        <time>2012-08-25T10:27:32Z</time>
      </trkpt>
      <trkpt lat="45.74298" lon="4.74099">
        <ele>235.18</ele>
        <time>2012-08-25T10:27:44Z</time>
      </trkpt>
      <trkpt lat="45.74301" lon="4.74132">
        <ele>236.14</ele>
        <time>2012-08-25T10:27:50Z</time>
      </trkpt>
      <trkpt lat="45.74301" lon="4.74138">
        <ele>235.18</ele>
        <time>2012-08-25T10:27:51Z</time>
      </trkpt>
      <trkpt lat="45.74301" lon="4.74144">
        <ele>235.18</ele>
        <time>2012-08-25T10:27:52Z</time>
      </trkpt>
      <trkpt lat="45.74302" lon="4.7419">
        <ele>235.66</ele>
        <time>2012-08-25T10:28:01Z</time>
      </trkpt>
      <trkpt lat="45.74302" lon="4.74195">
        <ele>236.14</ele>
        <time>2012-08-25T10:28:02Z</time>
      </trkpt>
      <trkpt lat="45.74301" lon="4.74199">
        <ele>236.14</ele>
        <time>2012-08-25T10:28:03Z</time>
      </trkpt>
      <trkpt lat="45.74299" lon="4.74204">
        <ele>235.66</ele>
        <time>2012-08-25T10:28:04Z</time>
      </trkpt>
      <trkpt lat="45.74297" lon="4.74207">
        <ele>234.7</ele>
        <time>2012-08-25T10:28:05Z</time>
      </trkpt>
      <trkpt lat="45.74291" lon="4.74216">
        <ele>231.81</ele>
        <time>2012-08-25T10:28:13Z</time>
      </trkpt>
      <trkpt lat="45.74292" lon="4.7422">
        <ele>232.3</ele>
        <time>2012-08-25T10:28:17Z</time>
      </trkpt>
      <trkpt lat="45.74296" lon="4.74235">
        <ele>232.3</ele>
        <time>2012-08-25T10:28:23Z</time>
      </trkpt>
      <trkpt lat="45.74294" lon="4.74249">
        <ele>232.3</ele>
        <time>2012-08-25T10:28:34Z</time>
      </trkpt>
      <trkpt lat="45.74292" lon="4.74278">
        <ele>232.3</ele>
        <time>2012-08-25T10:28:47Z</time>
      </trkpt>
      <trkpt lat="45.74291" lon="4.74281">
        <ele>230.85</ele>
        <time>2012-08-25T10:28:48Z</time>
      </trkpt>
      <trkpt lat="45.74289" lon="4.74302">
        <ele>229.89</ele>
        <time>2012-08-25T10:28:55Z</time>
      </trkpt>
      <trkpt lat="45.743" lon="4.74325">
        <ele>229.41</ele>
        <time>2012-08-25T10:29:06Z</time>
      </trkpt>
      <trkpt lat="45.74305" lon="4.74332">
        <ele>229.41</ele>
        <time>2012-08-25T10:29:17Z</time>
      </trkpt>
      <trkpt lat="45.74314" lon="4.74341">
        <ele>229.41</ele>
        <time>2012-08-25T10:29:25Z</time>
      </trkpt>
      <trkpt lat="45.74332" lon="4.74355">
        <ele>230.85</ele>
        <time>2012-08-25T10:29:38Z</time>
      </trkpt>
      <trkpt lat="45.74338" lon="4.74357">
        <ele>231.33</ele>
        <time>2012-08-25T10:29:45Z</time>
      </trkpt>
      <trkpt lat="45.74351" lon="4.74359">
        <ele>235.18</ele>
        <time>2012-08-25T10:29:56Z</time>
      </trkpt>
      <trkpt lat="45.74353" lon="4.7436">
        <ele>236.14</ele>
        <time>2012-08-25T10:29:58Z</time>
      </trkpt>
      <trkpt lat="45.74361" lon="4.74356">
        <ele>237.1</ele>
        <time>2012-08-25T10:30:13Z</time>
      </trkpt>
      <trkpt lat="45.74371" lon="4.74358">
        <ele>238.06</ele>
        <time>2012-08-25T10:30:36Z</time>
      </trkpt>
      <trkpt lat="45.74382" lon="4.74355">
        <ele>237.58</ele>
        <time>2012-08-25T10:31:08Z</time>
      </trkpt>
      <trkpt lat="45.74382" lon="4.74357">
        <ele>238.54</ele>
        <time>2012-08-25T10:31:26Z</time>
      </trkpt>
      <trkpt lat="45.74377" lon="4.74363">
        <ele>239.02</ele>
        <time>2012-08-25T10:31:57Z</time>
      </trkpt>
      <trkpt lat="45.74381" lon="4.74354">
        <ele>239.02</ele>
        <time>2012-08-25T10:32:30Z</time>
      </trkpt>
      <trkpt lat="45.74385" lon="4.74359">
        <ele>239.51</ele>
        <time>2012-08-25T10:32:56Z</time>
      </trkpt>
      <trkpt lat="45.74384" lon="4.74364">
        <ele>239.51</ele>
        <time>2012-08-25T10:33:11Z</time>
      </trkpt>
      <trkpt lat="45.74386" lon="4.74367">
        <ele>239.51</ele>
        <time>2012-08-25T10:33:13Z</time>
      </trkpt>
      <trkpt lat="45.74392" lon="4.74369">
        <ele>239.99</ele>
        <time>2012-08-25T10:33:17Z</time>
      </trkpt>
      <trkpt lat="45.74404" lon="4.74376">
        <ele>241.43</ele>
        <time>2012-08-25T10:33:26Z</time>
      </trkpt>
      <trkpt lat="45.7442" lon="4.74382">
        <ele>243.35</ele>
        <time>2012-08-25T10:33:37Z</time>
      </trkpt>
      <trkpt lat="45.74435" lon="4.74394">
        <ele>245.27</ele>
        <time>2012-08-25T10:33:47Z</time>
      </trkpt>
      <trkpt lat="45.74445" lon="4.74426">
        <ele>248.16</ele>
        <time>2012-08-25T10:34:01Z</time>
      </trkpt>
      <trkpt lat="45.74452" lon="4.74447">
        <ele>250.56</ele>
        <time>2012-08-25T10:34:14Z</time>
      </trkpt>
      <trkpt lat="45.74453" lon="4.74454">
        <ele>252.48</ele>
        <time>2012-08-25T10:34:27Z</time>
      </trkpt>
      <trkpt lat="45.74457" lon="4.74464">
        <ele>253.93</ele>
        <time>2012-08-25T10:34:42Z</time>
      </trkpt>
      <trkpt lat="45.74459" lon="4.74474">
        <ele>254.89</ele>
        <time>2012-08-25T10:35:04Z</time>
      </trkpt>
      <trkpt lat="45.7446" lon="4.74492">
        <ele>256.33</ele>
        <time>2012-08-25T10:35:21Z</time>
      </trkpt>
      <trkpt lat="45.74463" lon="4.74508">
        <ele>256.33</ele>
        <time>2012-08-25T10:35:36Z</time>
      </trkpt>
      <trkpt lat="45.74466" lon="4.74526">
        <ele>258.25</ele>
        <time>2012-08-25T10:35:50Z</time>
      </trkpt>
      <trkpt lat="45.74472" lon="4.74562">
        <ele>260.17</ele>
        <time>2012-08-25T10:36:07Z</time>
      </trkpt>
      <trkpt lat="45.74474" lon="4.74568">
        <ele>260.65</ele>
        <time>2012-08-25T10:36:11Z</time>
      </trkpt>
      <trkpt lat="45.74488" lon="4.74605">
        <ele>262.1</ele>
        <time>2012-08-25T10:36:27Z</time>
      </trkpt>
      <trkpt lat="45.74489" lon="4.74607">
        <ele>261.62</ele>
        <time>2012-08-25T10:36:28Z</time>
      </trkpt>
      <trkpt lat="45.74506" lon="4.74626">
        <ele>263.06</ele>
        <time>2012-08-25T10:36:41Z</time>
      </trkpt>
      <trkpt lat="45.74507" lon="4.74629">
        <ele>262.58</ele>
        <time>2012-08-25T10:36:42Z</time>
      </trkpt>
      <trkpt lat="45.7451" lon="4.74633">
        <ele>262.1</ele>
        <time>2012-08-25T10:36:43Z</time>
      </trkpt>
      <trkpt lat="45.74514" lon="4.74637">
        <ele>262.1</ele>
        <time>2012-08-25T10:36:44Z</time>
      </trkpt>
      <trkpt lat="45.74517" lon="4.74642">
        <ele>261.14</ele>
        <time>2012-08-25T10:36:45Z</time>
      </trkpt>
      <trkpt lat="45.74519" lon="4.74649">
        <ele>260.65</ele>
        <time>2012-08-25T10:36:46Z</time>
      </trkpt>
      <trkpt lat="45.74521" lon="4.74655">
        <ele>260.65</ele>
        <time>2012-08-25T10:36:47Z</time>
      </trkpt>
      <trkpt lat="45.74523" lon="4.74662">
        <ele>259.69</ele>
        <time>2012-08-25T10:36:48Z</time>
      </trkpt>
      <trkpt lat="45.74524" lon="4.7467">
        <ele>259.69</ele>
        <time>2012-08-25T10:36:49Z</time>
      </trkpt>
      <trkpt lat="45.74526" lon="4.74683">
        <ele>258.73</ele>
        <time>2012-08-25T10:36:51Z</time>
      </trkpt>
      <trkpt lat="45.74527" lon="4.74689">
        <ele>258.25</ele>
        <time>2012-08-25T10:36:52Z</time>
      </trkpt>
      <trkpt lat="45.74531" lon="4.74729">
        <ele>259.69</ele>
        <time>2012-08-25T10:37:02Z</time>
      </trkpt>
      <trkpt lat="45.74533" lon="4.74733">
        <ele>260.17</ele>
        <time>2012-08-25T10:37:03Z</time>
      </trkpt>
      <trkpt lat="45.74535" lon="4.74738">
        <ele>260.17</ele>
        <time>2012-08-25T10:37:04Z</time>
      </trkpt>
      <trkpt lat="45.74548" lon="4.74767">
        <ele>262.58</ele>
        <time>2012-08-25T10:37:14Z</time>
      </trkpt>
      <trkpt lat="45.7455" lon="4.74775">
        <ele>262.1</ele>
        <time>2012-08-25T10:37:18Z</time>
      </trkpt>
      <trkpt lat="45.74551" lon="4.74777">
        <ele>262.58</ele>
        <time>2012-08-25T10:37:19Z</time>
      </trkpt>
      <trkpt lat="45.74551" lon="4.74779">
        <ele>262.58</ele>
        <time>2012-08-25T10:37:20Z</time>
      </trkpt>
      <trkpt lat="45.74568" lon="4.74807">
        <ele>265.46</ele>
        <time>2012-08-25T10:37:36Z</time>
      </trkpt>
      <trkpt lat="45.74574" lon="4.74841">
        <ele>266.9</ele>
        <time>2012-08-25T10:37:51Z</time>
      </trkpt>
      <trkpt lat="45.74569" lon="4.74893">
        <ele>266.42</ele>
        <time>2012-08-25T10:38:07Z</time>
      </trkpt>
      <trkpt lat="45.74549" lon="4.74961">
        <ele>268.35</ele>
        <time>2012-08-25T10:38:26Z</time>
      </trkpt>
      <trkpt lat="45.74535" lon="4.75013">
        <ele>270.27</ele>
        <time>2012-08-25T10:38:39Z</time>
      </trkpt>
      <trkpt lat="45.74527" lon="4.75048">
        <ele>268.83</ele>
        <time>2012-08-25T10:38:48Z</time>
      </trkpt>
      <trkpt lat="45.74526" lon="4.75049">
        <ele>268.35</ele>
        <time>2012-08-25T10:38:49Z</time>
      </trkpt>
      <trkpt lat="45.74524" lon="4.75048">
        <ele>268.83</ele>
        <time>2012-08-25T10:38:50Z</time>
      </trkpt>
      <trkpt lat="45.74523" lon="4.75047">
        <ele>268.35</ele>
        <time>2012-08-25T10:38:51Z</time>
      </trkpt>
      <trkpt lat="45.74522" lon="4.75045">
        <ele>268.35</ele>
        <time>2012-08-25T10:38:52Z</time>
      </trkpt>
      <trkpt lat="45.74521" lon="4.75044">
        <ele>268.35</ele>
        <time>2012-08-25T10:38:53Z</time>
      </trkpt>
      <trkpt lat="45.7452" lon="4.75042">
        <ele>267.86</ele>
        <time>2012-08-25T10:38:54Z</time>
      </trkpt>
      <trkpt lat="45.74519" lon="4.7504">
        <ele>267.86</ele>
        <time>2012-08-25T10:38:55Z</time>
      </trkpt>
      <trkpt lat="45.74518" lon="4.75037">
        <ele>267.38</ele>
        <time>2012-08-25T10:38:56Z</time>
      </trkpt>
      <trkpt lat="45.74507" lon="4.7502">
        <ele>264.5</ele>
        <time>2012-08-25T10:39:02Z</time>
      </trkpt>
      <trkpt lat="45.74496" lon="4.7501">
        <ele>261.62</ele>
        <time>2012-08-25T10:39:06Z</time>
      </trkpt>
      <trkpt lat="45.74483" lon="4.75001">
        <ele>257.77</ele>
        <time>2012-08-25T10:39:10Z</time>
      </trkpt>
      <trkpt lat="45.7448" lon="4.74999">
        <ele>257.77</ele>
        <time>2012-08-25T10:39:11Z</time>
      </trkpt>
      <trkpt lat="45.74475" lon="4.74997">
        <ele>256.81</ele>
        <time>2012-08-25T10:39:13Z</time>
      </trkpt>
      <trkpt lat="45.74461" lon="4.74994">
        <ele>253.93</ele>
        <time>2012-08-25T10:39:19Z</time>
      </trkpt>
      <trkpt lat="45.74442" lon="4.74983">
        <ele>250.56</ele>
        <time>2012-08-25T10:39:24Z</time>
      </trkpt>
      <trkpt lat="45.74438" lon="4.74982">
        <ele>250.56</ele>
        <time>2012-08-25T10:39:25Z</time>
      </trkpt>
      <trkpt lat="45.74426" lon="4.7498">
        <ele>248.64</ele>
        <time>2012-08-25T10:39:28Z</time>
      </trkpt>
      <trkpt lat="45.74414" lon="4.74978">
        <ele>246.72</ele>
        <time>2012-08-25T10:39:32Z</time>
      </trkpt>
      <trkpt lat="45.74399" lon="4.74975">
        <ele>245.27</ele>
        <time>2012-08-25T10:39:38Z</time>
      </trkpt>
      <trkpt lat="45.74382" lon="4.74964">
        <ele>241.43</ele>
        <time>2012-08-25T10:39:48Z</time>
      </trkpt>
      <trkpt lat="45.74381" lon="4.74962">
        <ele>241.43</ele>
        <time>2012-08-25T10:39:49Z</time>
      </trkpt>
      <trkpt lat="45.74375" lon="4.74948">
        <ele>237.58</ele>
        <time>2012-08-25T10:39:56Z</time>
      </trkpt>
      <trkpt lat="45.74369" lon="4.74925">
        <ele>234.22</ele>
        <time>2012-08-25T10:40:09Z</time>
      </trkpt>
      <trkpt lat="45.74367" lon="4.74919">
        <ele>233.74</ele>
        <time>2012-08-25T10:40:26Z</time>
      </trkpt>
      <trkpt lat="45.74368" lon="4.74917">
        <ele>233.74</ele>
        <time>2012-08-25T10:40:50Z</time>
      </trkpt>
      <trkpt lat="45.74364" lon="4.74916">
        <ele>234.7</ele>
        <time>2012-08-25T10:41:03Z</time>
      </trkpt>
      <trkpt lat="45.74357" lon="4.74913">
        <ele>234.22</ele>
        <time>2012-08-25T10:41:14Z</time>
      </trkpt>
      <trkpt lat="45.74354" lon="4.7491">
        <ele>234.22</ele>
        <time>2012-08-25T10:41:16Z</time>
      </trkpt>
      <trkpt lat="45.74347" lon="4.74907">
        <ele>233.74</ele>
        <time>2012-08-25T10:41:26Z</time>
      </trkpt>
      <trkpt lat="45.74347" lon="4.74906">
        <ele>233.74</ele>
        <time>2012-08-25T10:41:44Z</time>
      </trkpt>
      <trkpt lat="45.7435" lon="4.74905">
        <ele>233.26</ele>
        <time>2012-08-25T10:42:11Z</time>
      </trkpt>
      <trkpt lat="45.74353" lon="4.749">
        <ele>233.74</ele>
        <time>2012-08-25T10:42:34Z</time>
      </trkpt>
      <trkpt lat="45.74351" lon="4.74899">
        <ele>233.74</ele>
        <time>2012-08-25T10:42:57Z</time>
      </trkpt>
      <trkpt lat="45.74351" lon="4.74896">
        <ele>233.74</ele>
        <time>2012-08-25T10:43:20Z</time>
      </trkpt>
      <trkpt lat="45.7435" lon="4.74891">
        <ele>233.74</ele>
        <time>2012-08-25T10:43:44Z</time>
      </trkpt>
      <trkpt lat="45.74348" lon="4.74901">
        <ele>234.22</ele>
        <time>2012-08-25T10:44:19Z</time>
      </trkpt>
      <trkpt lat="45.74345" lon="4.74906">
        <ele>233.74</ele>
        <time>2012-08-25T10:44:46Z</time>
      </trkpt>
      <trkpt lat="45.74349" lon="4.74902">
        <ele>234.22</ele>
        <time>2012-08-25T10:45:13Z</time>
      </trkpt>
      <trkpt lat="45.74349" lon="4.74898">
        <ele>234.22</ele>
        <time>2012-08-25T10:45:43Z</time>
      </trkpt>
      <trkpt lat="45.74355" lon="4.74898">
        <ele>234.22</ele>
        <time>2012-08-25T10:46:01Z</time>
      </trkpt>
      <trkpt lat="45.74356" lon="4.74897">
        <ele>234.7</ele>
        <time>2012-08-25T10:46:03Z</time>
      </trkpt>
      <trkpt lat="45.74356" lon="4.74895">
        <ele>234.22</ele>
        <time>2012-08-25T10:46:04Z</time>
      </trkpt>
      <trkpt lat="45.74362" lon="4.74879">
        <ele>229.41</ele>
        <time>2012-08-25T10:46:07Z</time>
      </trkpt>
      <trkpt lat="45.74363" lon="4.74872">
        <ele>227.97</ele>
        <time>2012-08-25T10:46:16Z</time>
      </trkpt>
      <trkpt lat="45.7436" lon="4.74878">
        <ele>227.97</ele>
        <time>2012-08-25T10:46:29Z</time>
      </trkpt>
      <trkpt lat="45.74361" lon="4.74884">
        <ele>228.45</ele>
        <time>2012-08-25T10:46:55Z</time>
      </trkpt>
      <trkpt lat="45.74352" lon="4.74877">
        <ele>228.45</ele>
        <time>2012-08-25T10:47:29Z</time>
      </trkpt>
      <trkpt lat="45.74358" lon="4.7487">
        <ele>228.45</ele>
        <time>2012-08-25T10:47:50Z</time>
      </trkpt>
      <trkpt lat="45.74356" lon="4.74874">
        <ele>228.93</ele>
        <time>2012-08-25T10:48:16Z</time>
      </trkpt>
      <trkpt lat="45.74354" lon="4.7488">
        <ele>228.93</ele>
        <time>2012-08-25T10:48:30Z</time>
      </trkpt>
      <trkpt lat="45.74349" lon="4.74881">
        <ele>228.93</ele>
        <time>2012-08-25T10:48:34Z</time>
      </trkpt>
      <trkpt lat="45.74336" lon="4.74877">
        <ele>228.93</ele>
        <time>2012-08-25T10:48:41Z</time>
      </trkpt>
      <trkpt lat="45.74318" lon="4.74881">
        <ele>228.93</ele>
        <time>2012-08-25T10:48:52Z</time>
      </trkpt>
      <trkpt lat="45.74316" lon="4.74881">
        <ele>228.93</ele>
        <time>2012-08-25T10:48:53Z</time>
      </trkpt>
      <trkpt lat="45.74305" lon="4.74878">
        <ele>228.45</ele>
        <time>2012-08-25T10:49:01Z</time>
      </trkpt>
      <trkpt lat="45.74297" lon="4.74871">
        <ele>227.97</ele>
        <time>2012-08-25T10:49:07Z</time>
      </trkpt>
      <trkpt lat="45.74296" lon="4.74871">
        <ele>227.97</ele>
        <time>2012-08-25T10:49:08Z</time>
      </trkpt>
      <trkpt lat="45.74293" lon="4.74869">
        <ele>227.01</ele>
        <time>2012-08-25T10:49:09Z</time>
      </trkpt>
      <trkpt lat="45.74291" lon="4.74868">
        <ele>226.53</ele>
        <time>2012-08-25T10:49:10Z</time>
      </trkpt>
      <trkpt lat="45.7429" lon="4.74869">
        <ele>226.05</ele>
        <time>2012-08-25T10:49:11Z</time>
      </trkpt>
      <trkpt lat="45.74289" lon="4.74869">
        <ele>226.53</ele>
        <time>2012-08-25T10:49:12Z</time>
      </trkpt>
      <trkpt lat="45.74286" lon="4.74874">
        <ele>225.57</ele>
        <time>2012-08-25T10:49:15Z</time>
      </trkpt>
      <trkpt lat="45.74278" lon="4.74886">
        <ele>226.53</ele>
        <time>2012-08-25T10:49:20Z</time>
      </trkpt>
      <trkpt lat="45.74263" lon="4.74907">
        <ele>228.45</ele>
        <time>2012-08-25T10:49:31Z</time>
      </trkpt>
      <trkpt lat="45.74259" lon="4.7491">
        <ele>227.49</ele>
        <time>2012-08-25T10:49:34Z</time>
      </trkpt>
      <trkpt lat="45.74253" lon="4.74917">
        <ele>228.45</ele>
        <time>2012-08-25T10:49:38Z</time>
      </trkpt>
      <trkpt lat="45.74247" lon="4.74921">
        <ele>227.97</ele>
        <time>2012-08-25T10:49:41Z</time>
      </trkpt>
      <trkpt lat="45.74242" lon="4.74923">
        <ele>227.49</ele>
        <time>2012-08-25T10:49:43Z</time>
      </trkpt>
      <trkpt lat="45.74239" lon="4.74924">
        <ele>227.49</ele>
        <time>2012-08-25T10:49:44Z</time>
      </trkpt>
      <trkpt lat="45.74237" lon="4.74925">
        <ele>227.49</ele>
        <time>2012-08-25T10:49:45Z</time>
      </trkpt>
      <trkpt lat="45.74233" lon="4.74926">
        <ele>227.49</ele>
        <time>2012-08-25T10:49:46Z</time>
      </trkpt>
      <trkpt lat="45.7423" lon="4.74927">
        <ele>227.01</ele>
        <time>2012-08-25T10:49:47Z</time>
      </trkpt>
      <trkpt lat="45.74226" lon="4.74927">
        <ele>227.01</ele>
        <time>2012-08-25T10:49:48Z</time>
      </trkpt>
      <trkpt lat="45.74197" lon="4.74945">
        <ele>225.09</ele>
        <time>2012-08-25T10:49:57Z</time>
      </trkpt>
      <trkpt lat="45.74195" lon="4.74949">
        <ele>225.57</ele>
        <time>2012-08-25T10:49:58Z</time>
      </trkpt>
      <trkpt lat="45.74193" lon="4.74953">
        <ele>225.57</ele>
        <time>2012-08-25T10:49:59Z</time>
      </trkpt>
      <trkpt lat="45.74191" lon="4.74956">
        <ele>226.05</ele>
        <time>2012-08-25T10:50:00Z</time>
      </trkpt>
      <trkpt lat="45.74189" lon="4.74957">
        <ele>225.57</ele>
        <time>2012-08-25T10:50:01Z</time>
      </trkpt>
      <trkpt lat="45.74187" lon="4.74959">
        <ele>225.57</ele>
        <time>2012-08-25T10:50:02Z</time>
      </trkpt>
      <trkpt lat="45.74182" lon="4.74964">
        <ele>226.05</ele>
        <time>2012-08-25T10:50:05Z</time>
      </trkpt>
      <trkpt lat="45.74171" lon="4.7497">
        <ele>225.09</ele>
        <time>2012-08-25T10:50:10Z</time>
      </trkpt>
      <trkpt lat="45.74163" lon="4.74974">
        <ele>223.64</ele>
        <time>2012-08-25T10:50:14Z</time>
      </trkpt>
      <trkpt lat="45.74157" lon="4.7498">
        <ele>224.12</ele>
        <time>2012-08-25T10:50:20Z</time>
      </trkpt>
      <trkpt lat="45.74159" lon="4.74991">
        <ele>225.09</ele>
        <time>2012-08-25T10:50:26Z</time>
      </trkpt>
      <trkpt lat="45.74151" lon="4.75045">
        <ele>224.61</ele>
        <time>2012-08-25T10:50:38Z</time>
      </trkpt>
      <trkpt lat="45.7414" lon="4.75114">
        <ele>224.61</ele>
        <time>2012-08-25T10:50:51Z</time>
      </trkpt>
      <trkpt lat="45.74133" lon="4.75132">
        <ele>224.12</ele>
        <time>2012-08-25T10:50:55Z</time>
      </trkpt>
      <trkpt lat="45.74129" lon="4.75168">
        <ele>223.16</ele>
        <time>2012-08-25T10:51:01Z</time>
      </trkpt>
      <trkpt lat="45.74135" lon="4.75215">
        <ele>223.16</ele>
        <time>2012-08-25T10:51:11Z</time>
      </trkpt>
      <trkpt lat="45.74144" lon="4.75241">
        <ele>223.64</ele>
        <time>2012-08-25T10:51:17Z</time>
      </trkpt>
      <trkpt lat="45.74154" lon="4.75278">
        <ele>223.16</ele>
        <time>2012-08-25T10:51:25Z</time>
      </trkpt>
      <trkpt lat="45.74155" lon="4.75292">
        <ele>222.68</ele>
        <time>2012-08-25T10:51:27Z</time>
      </trkpt>
      <trkpt lat="45.74157" lon="4.75304">
        <ele>222.68</ele>
        <time>2012-08-25T10:51:29Z</time>
      </trkpt>
      <trkpt lat="45.7416" lon="4.75316">
        <ele>222.2</ele>
        <time>2012-08-25T10:51:31Z</time>
      </trkpt>
      <trkpt lat="45.74169" lon="4.75347">
        <ele>221.72</ele>
        <time>2012-08-25T10:51:36Z</time>
      </trkpt>
      <trkpt lat="45.74174" lon="4.75375">
        <ele>221.24</ele>
        <time>2012-08-25T10:51:41Z</time>
      </trkpt>
      <trkpt lat="45.74184" lon="4.75388">
        <ele>221.24</ele>
        <time>2012-08-25T10:51:45Z</time>
      </trkpt>
      <trkpt lat="45.74193" lon="4.75399">
        <ele>221.72</ele>
        <time>2012-08-25T10:51:56Z</time>
      </trkpt>
      <trkpt lat="45.74192" lon="4.75416">
        <ele>218.84</ele>
        <time>2012-08-25T10:52:09Z</time>
      </trkpt>
      <trkpt lat="45.74188" lon="4.75416">
        <ele>218.84</ele>
        <time>2012-08-25T10:52:34Z</time>
      </trkpt>
      <trkpt lat="45.74187" lon="4.75414">
        <ele>218.36</ele>
        <time>2012-08-25T10:52:48Z</time>
      </trkpt>
      <trkpt lat="45.74185" lon="4.75415">
        <ele>218.84</ele>
        <time>2012-08-25T10:53:11Z</time>
      </trkpt>
      <trkpt lat="45.74193" lon="4.75433">
        <ele>218.84</ele>
        <time>2012-08-25T10:53:28Z</time>
      </trkpt>
      <trkpt lat="45.742" lon="4.75437">
        <ele>218.84</ele>
        <time>2012-08-25T10:53:43Z</time>
      </trkpt>
      <trkpt lat="45.74193" lon="4.75447">
        <ele>220.76</ele>
        <time>2012-08-25T10:53:55Z</time>
      </trkpt>
      <trkpt lat="45.74189" lon="4.75458">
        <ele>221.72</ele>
        <time>2012-08-25T10:54:10Z</time>
      </trkpt>
      <trkpt lat="45.74192" lon="4.75468">
        <ele>221.24</ele>
        <time>2012-08-25T10:54:20Z</time>
      </trkpt>
      <trkpt lat="45.74197" lon="4.75494">
        <ele>220.28</ele>
        <time>2012-08-25T10:54:29Z</time>
      </trkpt>
      <trkpt lat="45.74198" lon="4.75497">
        <ele>220.76</ele>
        <time>2012-08-25T10:54:30Z</time>
      </trkpt>
      <trkpt lat="45.74199" lon="4.755">
        <ele>220.28</ele>
        <time>2012-08-25T10:54:31Z</time>
      </trkpt>
      <trkpt lat="45.742" lon="4.75502">
        <ele>220.28</ele>
        <time>2012-08-25T10:54:32Z</time>
      </trkpt>
      <trkpt lat="45.74206" lon="4.75513">
        <ele>220.76</ele>
        <time>2012-08-25T10:54:39Z</time>
      </trkpt>
      <trkpt lat="45.74207" lon="4.75514">
        <ele>221.24</ele>
        <time>2012-08-25T10:54:40Z</time>
      </trkpt>
      <trkpt lat="45.74229" lon="4.75519">
        <ele>220.28</ele>
        <time>2012-08-25T10:54:51Z</time>
      </trkpt>
      <trkpt lat="45.74248" lon="4.75528">
        <ele>220.76</ele>
        <time>2012-08-25T10:55:00Z</time>
      </trkpt>
      <trkpt lat="45.74252" lon="4.75529">
        <ele>221.72</ele>
        <time>2012-08-25T10:55:02Z</time>
      </trkpt>
      <trkpt lat="45.74263" lon="4.75529">
        <ele>221.72</ele>
        <time>2012-08-25T10:55:09Z</time>
      </trkpt>
      <trkpt lat="45.74264" lon="4.75528">
        <ele>220.76</ele>
        <time>2012-08-25T10:55:10Z</time>
      </trkpt>
      <trkpt lat="45.74266" lon="4.75526">
        <ele>220.76</ele>
        <time>2012-08-25T10:55:11Z</time>
      </trkpt>
      <trkpt lat="45.74269" lon="4.75525">
        <ele>219.32</ele>
        <time>2012-08-25T10:55:13Z</time>
      </trkpt>
      <trkpt lat="45.74273" lon="4.75525">
        <ele>219.32</ele>
        <time>2012-08-25T10:55:30Z</time>
      </trkpt>
      <trkpt lat="45.74278" lon="4.75527">
        <ele>218.36</ele>
        <time>2012-08-25T10:55:37Z</time>
      </trkpt>
      <trkpt lat="45.74288" lon="4.7553">
        <ele>218.84</ele>
        <time>2012-08-25T10:55:44Z</time>
      </trkpt>
      <trkpt lat="45.7432" lon="4.7555">
        <ele>218.36</ele>
        <time>2012-08-25T10:55:58Z</time>
      </trkpt>
      <trkpt lat="45.74321" lon="4.75553">
        <ele>218.84</ele>
        <time>2012-08-25T10:55:59Z</time>
      </trkpt>
      <trkpt lat="45.74322" lon="4.75557">
        <ele>218.36</ele>
        <time>2012-08-25T10:56:00Z</time>
      </trkpt>
      <trkpt lat="45.74323" lon="4.7556">
        <ele>218.36</ele>
        <time>2012-08-25T10:56:01Z</time>
      </trkpt>
      <trkpt lat="45.74324" lon="4.75564">
        <ele>217.88</ele>
        <time>2012-08-25T10:56:02Z</time>
      </trkpt>
      <trkpt lat="45.74326" lon="4.75569">
        <ele>217.88</ele>
        <time>2012-08-25T10:56:03Z</time>
      </trkpt>
      <trkpt lat="45.74333" lon="4.75586">
        <ele>217.4</ele>
        <time>2012-08-25T10:56:08Z</time>
      </trkpt>
      <trkpt lat="45.74339" lon="4.75624">
        <ele>217.88</ele>
        <time>2012-08-25T10:56:20Z</time>
      </trkpt>
      <trkpt lat="45.74339" lon="4.75627">
        <ele>217.88</ele>
        <time>2012-08-25T10:56:21Z</time>
      </trkpt>
      <trkpt lat="45.74339" lon="4.7563">
        <ele>217.4</ele>
        <time>2012-08-25T10:56:22Z</time>
      </trkpt>
      <trkpt lat="45.74338" lon="4.75633">
        <ele>217.4</ele>
        <time>2012-08-25T10:56:23Z</time>
      </trkpt>
      <trkpt lat="45.74337" lon="4.75638">
        <ele>217.4</ele>
        <time>2012-08-25T10:56:25Z</time>
      </trkpt>
      <trkpt lat="45.74337" lon="4.7564">
        <ele>217.4</ele>
        <time>2012-08-25T10:56:26Z</time>
      </trkpt>
      <trkpt lat="45.74336" lon="4.75642">
        <ele>217.88</ele>
        <time>2012-08-25T10:56:27Z</time>
      </trkpt>
      <trkpt lat="45.74335" lon="4.75645">
        <ele>217.4</ele>
        <time>2012-08-25T10:56:28Z</time>
      </trkpt>
      <trkpt lat="45.74336" lon="4.75651">
        <ele>217.4</ele>
        <time>2012-08-25T10:56:31Z</time>
      </trkpt>
      <trkpt lat="45.74337" lon="4.75656">
        <ele>217.4</ele>
        <time>2012-08-25T10:56:34Z</time>
      </trkpt>
      <trkpt lat="45.74338" lon="4.75657">
        <ele>217.4</ele>
        <time>2012-08-25T10:56:35Z</time>
      </trkpt>
      <trkpt lat="45.74338" lon="4.7566">
        <ele>217.4</ele>
        <time>2012-08-25T10:56:37Z</time>
      </trkpt>
      <trkpt lat="45.74339" lon="4.75663">
        <ele>217.4</ele>
        <time>2012-08-25T10:56:38Z</time>
      </trkpt>
      <trkpt lat="45.74339" lon="4.75665">
        <ele>216.91</ele>
        <time>2012-08-25T10:56:39Z</time>
      </trkpt>
      <trkpt lat="45.74339" lon="4.75666">
        <ele>216.91</ele>
        <time>2012-08-25T10:56:40Z</time>
      </trkpt>
      <trkpt lat="45.74339" lon="4.75667">
        <ele>216.91</ele>
        <time>2012-08-25T10:56:41Z</time>
      </trkpt>
      <trkpt lat="45.74342" lon="4.75673">
        <ele>216.43</ele>
        <time>2012-08-25T10:56:43Z</time>
      </trkpt>
      <trkpt lat="45.74343" lon="4.75675">
        <ele>216.91</ele>
        <time>2012-08-25T10:56:44Z</time>
      </trkpt>
      <trkpt lat="45.74344" lon="4.75678">
        <ele>215.95</ele>
        <time>2012-08-25T10:56:45Z</time>
      </trkpt>
      <trkpt lat="45.74345" lon="4.75679">
        <ele>215.47</ele>
        <time>2012-08-25T10:56:46Z</time>
      </trkpt>
      <trkpt lat="45.74347" lon="4.7568">
        <ele>214.99</ele>
        <time>2012-08-25T10:56:47Z</time>
      </trkpt>
      <trkpt lat="45.74357" lon="4.75699">
        <ele>214.03</ele>
        <time>2012-08-25T10:56:54Z</time>
      </trkpt>
      <trkpt lat="45.74357" lon="4.75702">
        <ele>214.03</ele>
        <time>2012-08-25T10:56:55Z</time>
      </trkpt>
      <trkpt lat="45.74357" lon="4.75706">
        <ele>214.03</ele>
        <time>2012-08-25T10:56:56Z</time>
      </trkpt>
      <trkpt lat="45.74357" lon="4.75716">
        <ele>213.55</ele>
        <time>2012-08-25T10:56:58Z</time>
      </trkpt>
      <trkpt lat="45.74355" lon="4.75726">
        <ele>213.07</ele>
        <time>2012-08-25T10:57:01Z</time>
      </trkpt>
      <trkpt lat="45.74355" lon="4.75731">
        <ele>213.07</ele>
        <time>2012-08-25T10:57:02Z</time>
      </trkpt>
      <trkpt lat="45.74357" lon="4.75747">
        <ele>213.55</ele>
        <time>2012-08-25T10:57:06Z</time>
      </trkpt>
      <trkpt lat="45.74365" lon="4.75779">
        <ele>213.07</ele>
        <time>2012-08-25T10:57:18Z</time>
      </trkpt>
      <trkpt lat="45.74367" lon="4.75787">
        <ele>213.55</ele>
        <time>2012-08-25T10:57:22Z</time>
      </trkpt>
      <trkpt lat="45.74368" lon="4.75798">
        <ele>214.99</ele>
        <time>2012-08-25T10:57:30Z</time>
      </trkpt>
      <trkpt lat="45.7437" lon="4.75803">
        <ele>214.51</ele>
        <time>2012-08-25T10:57:43Z</time>
      </trkpt>
      <trkpt lat="45.74373" lon="4.7581">
        <ele>214.99</ele>
        <time>2012-08-25T10:57:48Z</time>
      </trkpt>
      <trkpt lat="45.74373" lon="4.75812">
        <ele>214.99</ele>
        <time>2012-08-25T10:57:49Z</time>
      </trkpt>
      <trkpt lat="45.74374" lon="4.75814">
        <ele>214.99</ele>
        <time>2012-08-25T10:57:50Z</time>
      </trkpt>
      <trkpt lat="45.74383" lon="4.75852">
        <ele>214.51</ele>
        <time>2012-08-25T10:58:02Z</time>
      </trkpt>
      <trkpt lat="45.74382" lon="4.75866">
        <ele>214.51</ele>
        <time>2012-08-25T10:58:06Z</time>
      </trkpt>
      <trkpt lat="45.74382" lon="4.7587">
        <ele>214.51</ele>
        <time>2012-08-25T10:58:07Z</time>
      </trkpt>
      <trkpt lat="45.74383" lon="4.75873">
        <ele>214.51</ele>
        <time>2012-08-25T10:58:08Z</time>
      </trkpt>
      <trkpt lat="45.74383" lon="4.75877">
        <ele>214.03</ele>
        <time>2012-08-25T10:58:09Z</time>
      </trkpt>
      <trkpt lat="45.74383" lon="4.7588">
        <ele>214.03</ele>
        <time>2012-08-25T10:58:10Z</time>
      </trkpt>
      <trkpt lat="45.74384" lon="4.75883">
        <ele>214.03</ele>
        <time>2012-08-25T10:58:11Z</time>
      </trkpt>
      <trkpt lat="45.74384" lon="4.75886">
        <ele>214.51</ele>
        <time>2012-08-25T10:58:12Z</time>
      </trkpt>
      <trkpt lat="45.74383" lon="4.75889">
        <ele>214.51</ele>
        <time>2012-08-25T10:58:13Z</time>
      </trkpt>
      <trkpt lat="45.74383" lon="4.75893">
        <ele>214.03</ele>
        <time>2012-08-25T10:58:14Z</time>
      </trkpt>
      <trkpt lat="45.74383" lon="4.75898">
        <ele>214.03</ele>
        <time>2012-08-25T10:58:15Z</time>
      </trkpt>
      <trkpt lat="45.74377" lon="4.75944">
        <ele>213.55</ele>
        <time>2012-08-25T10:58:25Z</time>
      </trkpt>
      <trkpt lat="45.7436" lon="4.7599">
        <ele>213.55</ele>
        <time>2012-08-25T10:58:36Z</time>
      </trkpt>
      <trkpt lat="45.74358" lon="4.76036">
        <ele>213.07</ele>
        <time>2012-08-25T10:58:45Z</time>
      </trkpt>
      <trkpt lat="45.74353" lon="4.76081">
        <ele>213.55</ele>
        <time>2012-08-25T10:58:55Z</time>
      </trkpt>
      <trkpt lat="45.74354" lon="4.76085">
        <ele>213.55</ele>
        <time>2012-08-25T10:58:56Z</time>
      </trkpt>
      <trkpt lat="45.74355" lon="4.7609">
        <ele>213.55</ele>
        <time>2012-08-25T10:58:57Z</time>
      </trkpt>
      <trkpt lat="45.7436" lon="4.7612">
        <ele>212.59</ele>
        <time>2012-08-25T10:59:03Z</time>
      </trkpt>
      <trkpt lat="45.74362" lon="4.76123">
        <ele>212.59</ele>
        <time>2012-08-25T10:59:04Z</time>
      </trkpt>
      <trkpt lat="45.74363" lon="4.76127">
        <ele>213.07</ele>
        <time>2012-08-25T10:59:05Z</time>
      </trkpt>
      <trkpt lat="45.74363" lon="4.76131">
        <ele>212.59</ele>
        <time>2012-08-25T10:59:06Z</time>
      </trkpt>
      <trkpt lat="45.74364" lon="4.76136">
        <ele>213.07</ele>
        <time>2012-08-25T10:59:07Z</time>
      </trkpt>
      <trkpt lat="45.74365" lon="4.76141">
        <ele>212.59</ele>
        <time>2012-08-25T10:59:08Z</time>
      </trkpt>
      <trkpt lat="45.74365" lon="4.76147">
        <ele>212.59</ele>
        <time>2012-08-25T10:59:09Z</time>
      </trkpt>
      <trkpt lat="45.74378" lon="4.7621">
        <ele>212.11</ele>
        <time>2012-08-25T10:59:21Z</time>
      </trkpt>
      <trkpt lat="45.74378" lon="4.76255">
        <ele>211.15</ele>
        <time>2012-08-25T10:59:33Z</time>
      </trkpt>
      <trkpt lat="45.74338" lon="4.76301">
        <ele>211.63</ele>
        <time>2012-08-25T10:59:47Z</time>
      </trkpt>
      <trkpt lat="45.7431" lon="4.76326">
        <ele>211.15</ele>
        <time>2012-08-25T10:59:58Z</time>
      </trkpt>
      <trkpt lat="45.74268" lon="4.76358">
        <ele>210.19</ele>
        <time>2012-08-25T11:00:12Z</time>
      </trkpt>
      <trkpt lat="45.74267" lon="4.76361">
        <ele>210.67</ele>
        <time>2012-08-25T11:00:13Z</time>
      </trkpt>
      <trkpt lat="45.74266" lon="4.76363">
        <ele>210.19</ele>
        <time>2012-08-25T11:00:14Z</time>
      </trkpt>
      <trkpt lat="45.74266" lon="4.76367">
        <ele>210.19</ele>
        <time>2012-08-25T11:00:15Z</time>
      </trkpt>
      <trkpt lat="45.74264" lon="4.76369">
        <ele>210.19</ele>
        <time>2012-08-25T11:00:16Z</time>
      </trkpt>
      <trkpt lat="45.74262" lon="4.7637">
        <ele>210.19</ele>
        <time>2012-08-25T11:00:17Z</time>
      </trkpt>
      <trkpt lat="45.74259" lon="4.76371">
        <ele>210.67</ele>
        <time>2012-08-25T11:00:18Z</time>
      </trkpt>
      <trkpt lat="45.74257" lon="4.76371">
        <ele>210.67</ele>
        <time>2012-08-25T11:00:19Z</time>
      </trkpt>
      <trkpt lat="45.74253" lon="4.76371">
        <ele>210.19</ele>
        <time>2012-08-25T11:00:20Z</time>
      </trkpt>
      <trkpt lat="45.74247" lon="4.76376">
        <ele>210.19</ele>
        <time>2012-08-25T11:00:22Z</time>
      </trkpt>
    </trkseg>
  </trk>
</gpx>